[[{"header":{"parameterUnit":"m.s-1","parameterCategory":1,"la1":31.0,"la2":29.5877,"lo1":-88.7671,"lo2":-86.6584,"dy":0.0162,"dx":0.0185,"nx":115,"ny":88,"refTime":"2025-01-14T00:00:00:Z","depth":0,"parameterNumber":2,"parameterNumberName":"U-component_of_WINDS"},"data":[0.0,0.0,0.0,0.0,0.0,0.0,0.0,0.0,0.0,0.0,0.0,0.0,0.0,0.0,0.0,0.0,0.0,0.0,0.0,0.0,0.0,0.0,0.0,0.0,0.0,0.0,0.0,0.0,0.0,0.0,0.0,0.0,0.0,0.0,0.0,0.0,0.0,0.0,0.0,0.0,0.0,0.0,0.0,0.0,0.0,0.0,0.0,0.0,0.0,0.0,0.0,0.0,0.0,0.0,0.0,0.0,0.0,0.0,0.0,0.0,0.0,0.0,0.0,0.0,0.0,0.0,0.0,0.0,0.0,0.0,0.0,0.0,0.0,0.0,0.0,0.0,0.0,0.0,0.0,0.0,0.0,0.0,0.0,0.0,0.0,0.0,0.0,0.0,0.0,0.0,0.0,0.0,0.0,0.0,0.0,0.0,0.0,0.0,0.0,0.0,0.0,0.0,0.0,0.0,0.0,0.0,0.0,0.0,0.0,0.0,0.0,0.0,0.0,0.0,0.0,0.0,0.0,0.0,0.0,0.0,0.0,0.0,0.0,0.0,0.0,0.0,0.0,0.0,0.0,0.0,0.0,0.0,0.0,0.0,0.0,0.0,0.0,0.0,0.0,0.0,0.0,0.0,0.0,0.0,0.0,0.0,0.0,0.0,0.0,0.0,0.0,0.0,0.0,0.0,0.0,0.0,0.0,0.0,0.0,0.0,0.0,0.0,0.0,0.0,0.0,0.0,0.0,0.0,0.0,0.0,0.0,0.0,0.0,0.0,0.0,0.0,0.0,0.0,0.0,0.0,0.0,0.0,0.0,0.0,0.0,0.0,0.0,0.0,0.0,0.0,0.0,0.0,0.0,0.0,0.0,0.0,0.0,0.0,0.0,0.0,0.0,0.0,0.0,0.0,0.0,0.0,0.0,0.0,0.0,0.0,0.0,0.0,0.0,0.0,0.0,0.0,0.0,0.0,0.0,0.0,0.0,0.0,0.0,0.0,0.0,0.0,0.0,0.0,0.0,0.0,0.0,0.0,0.0,0.0,0.0,0.0,0.0,0.0,0.0,0.0,0.0,0.0,0.0,0.0,0.0,0.0,0.0,0.0,0.0,0.0,0.0,0.0,0.0,0.0,0.0,0.0,0.0,0.0,0.0,0.0,0.0,0.0,0.0,0.0,0.0,0.0,0.0,0.0,0.0,0.0,0.0,0.0,0.0,0.0,0.0,0.0,0.0,0.0,0.0,0.0,0.0,0.0,0.0,0.0,0.0,0.0,0.0,0.0,0.0,0.0,0.0,0.0,0.0,0.0,0.0,0.0,0.0,0.0,0.0,0.0,0.0,0.0,0.0,0.0,0.0,0.0,0.0,0.0,0.0,0.0,0.0,0.0,0.0,0.0,0.0,0.0,0.0,0.0,0.0,0.0,0.0,0.0,0.0,0.0,0.0,0.0,0.0,0.0,0.0,0.0,0.0,0.0,0.0,0.0,0.0,0.0,0.0,0.0,0.0,0.0,0.0,0.0,0.0,0.0,0.0,0.0,0.0,0.0,0.0,0.0,0.0,0.0,0.0,0.0,0.0,0.0,0.0,0.0,0.0,0.0,0.0,0.0,0.0,0.0,0.0,0.0,0.0,0.0,0.0,0.0,0.0,0.0,0.0,0.0,0.0,0.0,0.0,0.0,0.0,0.0,0.0,0.0,0.0,0.0,0.0,0.0,0.0,0.0,0.0,0.0,0.0,0.0,0.0,0.0,0.0,0.0,0.0,0.0,0.0,0.0,0.0,0.0,0.0,0.0,0.0,0.0,0.0,0.0,0.0,0.0,0.0,0.0,0.0,0.0,0.0,0.0,0.0,0.0,0.0,0.0,0.0,0.0,0.0,0.0,0.0,0.0,0.0,0.0,0.0,0.0,0.0,0.0,0.0,0.0,0.0,0.0,0.0,0.0,0.0,0.0,0.0,0.0,0.0,0.0,0.0,0.0,0.0,0.0,0.0,0.0,0.0,0.0,0.0,0.0,0.0,0.0,0.0,0.0,0.0,0.0,0.0,0.0,0.0,0.0,0.0,0.0,0.0,0.0,0.0,0.0,0.0,0.0,0.0,0.0,0.0,0.0,0.0,0.0,0.0,0.0,0.0,0.0,0.0,0.0,0.0,0.0,0.0,0.0,0.0,0.0,0.0,0.0,0.0,0.0,0.0,0.0,0.0,0.0,0.0,0.0,0.0,0.0,0.0,0.0,0.0,0.0,0.0,0.0,0.0,0.0,0.0,0.0,0.0,0.0,0.0,0.0,0.0,0.0,0.0,0.0,0.0,0.0,0.0,0.0,0.0,0.0,0.0,0.0,0.0,0.0,0.0,0.0,0.0,0.0,0.0,0.0,0.0,0.0,0.0,0.0,0.0,0.0,0.0,0.0,0.0,0.0,0.0,0.0,0.0,0.0,0.0,0.0,0.0,0.0,0.0,0.0,0.0,0.0,0.0,0.0,0.0,0.0,0.0,0.0,0.0,0.0,0.0,0.0,0.0,0.0,0.0,0.0,0.0,0.0,0.0,0.0,0.0,0.0,0.0,0.0,0.0,0.0,0.0,0.0,0.0,0.0,0.0,0.0,0.0,0.0,0.0,0.0,0.0,0.0,0.0,0.0,0.0,0.0,0.0,0.0,0.0,0.0,0.0,0.0,0.0,0.0,0.0,0.0,0.0,0.0,0.0,0.0,0.0,0.0,0.0,0.0,0.0,0.0,0.0,0.0,0.0,0.0,0.0,0.0,0.0,0.0,0.0,0.0,0.0,0.0,0.0,0.0,0.0,0.0,0.0,0.0,0.0,0.0,0.0,0.0,0.0,0.0,0.0,0.0,0.0,0.0,0.0,0.0,0.0,0.0,0.0,0.0,0.0,0.0,0.0,0.0,0.0,0.0,0.0,0.0,0.0,0.0,0.0,0.0,0.0,0.0,0.0,0.0,0.0,0.0,0.0,0.0,0.0,0.0,0.0,0.0,0.0,0.0,0.0,0.0,0.0,0.0,0.0,0.0,0.0,0.0,0.0,0.0,0.0,0.0,0.0,0.0,0.0,0.0,0.0,0.0,0.0,0.0,0.0,0.0,0.0,0.0,0.0,0.0,0.0,0.0,0.0,0.0,0.0,0.0,0.0,0.0,0.0,0.0,0.0,0.0,0.0,0.0,0.0,0.0,0.0,0.0,0.0,0.0,0.0,0.0,0.0,0.0,0.0,0.0,0.0,0.0,0.0,0.0,0.0,0.0,0.0,0.0,0.0,0.0,0.0,0.0,0.0,0.0,0.0,0.0,0.0,0.0,0.0,0.0,0.0,0.0,0.0,0.0,0.0,0.0,0.0,0.0,0.0,0.0,0.0,0.0,0.0,0.0,0.0,0.0,0.0,0.0,0.0,0.0,0.0,0.0,0.0,0.0,0.0,0.0,0.0,0.0,0.0,0.0,0.0,0.0,0.0,0.0,0.0,0.0,0.0,0.0,0.0,0.0,0.0,0.0,0.0,0.0,0.0,0.0,0.0,0.0,0.0,0.0,0.0,0.0,0.0,0.0,0.0,0.0,0.0,0.0,0.0,0.0,0.0,0.0,0.0,0.0,0.0,0.0,0.0,0.0,0.0,0.0,0.0,0.0,0.0,0.0,0.0,0.0,0.0,0.0,0.0,0.0,0.0,0.0,0.0,0.0,0.0,0.0,0.0,0.0,0.0,0.0,0.0,0.0,0.0,0.0,0.0,0.0,0.0,0.0,0.0,0.0,0.0,0.0,0.0,0.0,0.0,0.0,0.0,0.0,0.0,0.0,0.0,0.0,0.0,0.0,0.0,0.0,0.0,0.0,0.0,0.0,0.0,0.0,0.0,0.0,0.0,0.0,0.0,0.0,0.0,0.0,0.0,0.0,0.0,0.0,0.0,0.0,0.0,0.0,0.0,0.0,0.0,0.0,0.0,0.0,0.0,0.0,0.0,0.0,0.0,0.0,0.0,0.0,0.0,0.0,0.0,0.0,0.0,0.0,0.0,0.0,0.0,0.0,0.0,0.0,0.0,0.0,0.0,0.0,0.0,0.0,0.0,0.0,0.0,0.0,0.0,0.0,0.0,0.0,0.0,0.0,0.0,0.0,0.0,0.0,0.0,0.0,0.0,0.0,0.0,0.0,0.0,0.0,0.0,0.0,0.0,0.0,0.0,0.0,0.0,0.0,0.0,0.0,0.0,0.0,0.0,0.0,0.0,0.0,0.0,0.0,0.0,0.0,0.0,0.0,0.0,0.0,1.8444,0.0,0.0,0.0,0.0,0.0,0.0,0.0,0.0,0.0,0.0,0.0,0.0,0.0,0.0,0.0,0.0,0.0,0.0,0.0,0.0,0.0,0.0,0.0,0.0,0.0,0.0,0.0,0.0,0.0,0.0,0.0,0.0,0.0,0.0,0.0,0.0,0.0,0.0,0.0,0.0,0.0,0.0,0.0,0.0,0.0,0.0,0.0,0.0,0.0,0.0,0.0,0.0,0.0,0.0,0.0,0.0,0.0,0.0,0.0,0.0,0.0,0.0,0.0,0.0,0.0,0.0,0.0,0.0,0.0,0.0,0.0,0.0,0.0,0.0,0.0,0.0,0.0,0.0,0.0,0.0,0.0,0.0,0.0,0.0,0.0,0.0,0.0,0.0,0.0,0.0,0.0,0.0,0.0,0.0,0.0,0.0,0.0,0.0,0.0,0.0,0.0,0.0,0.0,0.0,0.0,0.0,0.0,0.0,0.0,0.0,1.8748,1.872,1.8645,1.8585,1.8413,0.0,0.0,0.0,0.0,0.0,0.0,0.0,0.0,0.0,0.0,0.0,0.0,0.0,0.0,0.0,0.0,0.0,0.0,0.0,0.0,0.0,0.0,0.0,0.0,0.0,0.0,0.0,0.0,0.0,0.0,0.0,0.0,0.0,0.0,0.0,0.0,0.0,0.0,0.0,0.0,0.0,0.0,0.0,0.0,0.0,0.0,0.0,0.0,0.0,0.0,0.0,0.0,0.0,0.0,0.0,0.0,0.0,0.0,0.0,0.0,0.0,0.0,0.0,0.0,0.0,0.0,0.0,0.0,0.0,0.0,0.0,0.0,0.0,0.0,0.0,0.0,0.0,0.0,0.0,0.0,0.0,0.0,0.0,0.0,0.0,0.0,0.0,0.0,0.0,0.0,0.0,0.0,0.0,0.0,0.0,0.0,0.0,0.0,0.0,0.0,0.0,0.0,0.0,0.0,0.0,0.0,0.0,0.0,0.0,0.0,0.0,0.0,1.9029,1.8827,1.8452,0.0,0.0,0.0,0.0,0.0,0.0,0.0,0.0,0.0,0.0,0.0,0.0,0.0,0.0,0.0,0.0,0.0,0.0,0.0,0.0,0.0,0.0,0.0,0.0,0.0,0.0,0.0,0.0,0.0,0.0,0.0,0.0,0.0,0.0,0.0,0.0,0.0,0.0,0.0,0.0,0.0,0.0,0.0,0.0,0.0,0.0,0.0,0.0,0.0,0.0,0.0,0.0,0.0,0.0,0.0,0.0,0.0,0.0,0.0,0.0,0.0,0.0,0.0,0.0,0.0,0.0,0.0,0.0,0.0,0.0,0.0,0.0,0.0,0.0,0.0,0.0,0.0,0.0,0.0,0.0,0.0,0.0,0.0,0.0,0.0,0.0,0.0,0.0,0.0,0.0,0.0,0.0,0.0,0.0,0.0,0.0,0.0,0.0,0.0,0.0,0.0,0.0,0.0,0.0,0.0,0.0,0.0,0.0,0.0,0.0,1.9961,2.0655,2.053,0.0,1.8978,0.0,0.0,0.0,0.0,0.0,0.0,0.0,0.0,0.0,0.0,0.0,0.0,0.0,0.0,0.0,0.0,0.0,0.0,0.0,0.0,0.0,0.0,0.0,0.0,0.0,0.0,0.0,0.0,0.0,0.0,0.0,0.0,0.0,0.0,0.0,0.0,0.0,0.0,0.0,0.0,0.0,0.0,0.0,0.0,0.0,0.0,0.0,0.0,0.0,0.0,0.0,0.0,0.0,0.0,0.0,0.0,0.0,0.0,0.0,0.0,0.0,0.0,0.0,0.0,0.0,0.0,0.0,0.0,0.0,0.0,0.0,0.0,0.0,0.0,0.0,0.0,0.0,0.0,0.0,0.0,0.0,0.0,0.0,0.0,0.0,0.0,0.0,0.0,0.0,0.0,0.0,0.0,0.0,0.0,0.0,0.0,0.0,0.0,0.0,0.0,0.0,0.0,0.0,0.0,0.0,0.0,0.0,0.0,0.0,0.0,1.9932,2.065,2.0045,1.9441,0.0,0.0,0.0,0.0,0.0,0.0,0.0,0.0,0.0,0.0,0.0,0.0,0.0,0.0,0.0,0.0,0.0,0.0,0.0,0.0,0.0,0.0,0.0,0.0,0.0,0.0,0.0,0.0,0.0,0.0,0.0,0.0,0.0,0.0,0.0,0.0,0.0,0.0,0.0,0.0,0.0,0.0,0.0,0.0,0.0,0.0,0.0,0.0,0.0,0.0,0.0,0.0,0.0,0.0,0.0,0.0,0.0,0.0,0.0,0.0,0.0,0.0,0.0,0.0,0.0,0.0,0.0,0.0,0.0,0.0,0.0,0.0,0.0,0.0,0.0,0.0,0.0,0.0,0.0,0.0,0.0,0.0,0.0,0.0,0.0,0.0,0.0,0.0,0.0,0.0,0.0,0.0,0.0,0.0,0.0,0.0,0.0,0.0,0.0,0.0,0.0,0.0,0.0,0.0,0.0,0.0,0.0,0.0,0.0,0.0,1.9743,2.0166,2.0929,1.9906,1.9245,1.9172,0.0,0.0,0.0,0.0,0.0,0.0,0.0,0.0,0.0,0.0,0.0,0.0,0.0,0.0,0.0,0.0,0.0,0.0,0.0,0.0,0.0,0.0,0.0,0.0,0.0,0.0,0.0,0.0,0.0,0.0,0.0,0.0,0.0,0.0,0.0,0.0,0.0,0.0,0.0,0.0,0.0,0.0,0.0,0.0,0.0,0.0,0.0,0.0,0.0,0.0,0.0,0.0,0.0,0.0,0.0,0.0,0.0,0.0,0.0,0.0,0.0,0.0,0.0,0.0,0.0,0.0,0.0,0.0,0.0,0.0,0.0,0.0,0.0,0.0,0.0,0.0,0.0,0.0,0.0,0.0,0.0,0.0,0.0,0.0,0.0,0.0,0.0,0.0,0.0,0.0,0.0,0.0,0.0,0.0,0.0,0.0,0.0,0.0,0.0,0.0,0.0,0.0,0.0,0.0,0.0,0.0,0.0,0.0,0.0,2.0401,2.1034,2.231,2.0881,2.0008,0.0,0.0,0.0,0.0,0.0,0.0,0.0,0.0,0.0,0.0,0.0,0.0,0.0,0.0,0.0,0.0,0.0,0.0,0.0,0.0,0.0,0.0,0.0,0.0,0.0,0.0,0.0,0.0,0.0,0.0,0.0,0.0,0.0,0.0,0.0,0.0,0.0,0.0,0.0,0.0,0.0,0.0,0.0,0.0,0.0,0.0,0.0,0.0,0.0,0.0,0.0,0.0,0.0,0.0,0.0,0.0,0.0,0.0,0.0,0.0,0.0,0.0,0.0,0.0,0.0,0.0,0.0,0.0,0.0,0.0,0.0,0.0,0.0,0.0,0.0,0.0,0.0,0.0,0.0,0.0,0.0,0.0,0.0,0.0,0.0,0.0,0.0,0.0,0.0,0.0,0.0,0.0,0.0,0.0,0.0,0.0,0.0,0.0,0.0,0.0,0.0,0.0,0.0,0.0,0.0,0.0,0.0,0.0,0.0,2.0248,2.1208,2.1915,2.2302,2.0793,1.9907,0.0,0.0,0.0,0.0,0.0,0.0,0.0,0.0,0.0,0.0,0.0,0.0,0.0,0.0,0.0,0.0,0.0,0.0,0.0,0.0,0.0,0.0,0.0,0.0,0.0,0.0,0.0,0.0,0.0,0.0,0.0,0.0,0.0,0.0,0.0,0.0,0.0,0.0,0.0,0.0,0.0,0.0,0.0,0.0,0.0,0.0,0.0,0.0,0.0,0.0,0.0,0.0,0.0,0.0,0.0,0.0,0.0,0.0,0.0,0.0,0.0,0.0,0.0,0.0,0.0,0.0,0.0,0.0,0.0,0.0,0.0,0.0,0.0,0.0,0.0,0.0,0.0,0.0,0.0,0.0,0.0,0.0,0.0,0.0,0.0,0.0,0.0,0.0,0.0,0.0,0.0,0.0,0.0,0.0,0.0,0.0,0.0,0.0,0.0,0.0,0.0,0.0,0.0,0.0,0.0,0.0,0.0,0.0,0.0,2.0511,0.0,2.2349,0.0,2.074,1.9829,0.0,0.0,0.0,0.0,0.0,0.0,0.0,0.0,0.0,0.0,0.0,0.0,0.0,0.0,0.0,0.0,0.0,0.0,0.0,0.0,0.0,0.0,0.0,0.0,0.0,0.0,0.0,0.0,0.0,0.0,0.0,0.0,0.0,0.0,0.0,0.0,0.0,0.0,0.0,0.0,0.0,0.0,0.0,0.0,0.0,0.0,0.0,0.0,0.0,0.0,0.0,0.0,0.0,0.0,0.0,0.0,0.0,0.0,0.0,0.0,0.0,0.0,0.0,0.0,0.0,0.0,0.0,0.0,0.0,0.0,0.0,0.0,0.0,0.0,0.0,0.0,0.0,0.0,0.0,0.0,0.0,0.0,0.0,0.0,0.0,0.0,0.0,0.0,0.0,0.0,0.0,0.0,0.0,0.0,0.0,0.0,0.0,0.0,0.0,0.0,0.0,0.0,0.0,0.0,0.0,0.0,0.0,0.0,1.9756,2.1169,2.2031,2.245,2.2214,2.078,1.9896,0.0,0.0,0.0,0.0,0.0,0.0,0.0,0.0,0.0,0.0,0.0,0.0,0.0,0.0,0.0,0.0,0.0,0.0,0.0,0.0,0.0,0.0,0.0,0.0,0.0,0.0,0.0,0.0,0.0,0.0,0.0,0.0,0.0,0.0,0.0,0.0,0.0,0.0,0.0,0.0,0.0,0.0,0.0,0.0,0.0,0.0,0.0,0.0,0.0,0.0,0.0,0.0,0.0,0.0,0.0,0.0,0.0,0.0,0.0,0.0,0.0,0.0,0.0,0.0,0.0,0.0,0.0,0.0,0.0,0.0,0.0,0.0,0.0,0.0,0.0,0.0,0.0,0.0,0.0,0.0,0.0,0.0,0.0,0.0,0.0,0.0,0.0,0.0,0.0,0.0,0.0,0.0,0.0,0.0,0.0,0.0,0.0,0.0,0.0,0.0,0.0,0.0,0.0,0.0,0.0,0.0,0.0,0.0,0.0,2.1962,2.3136,2.3728,2.352,2.2103,2.099,0.0,0.0,0.0,0.0,0.0,0.0,0.0,0.0,0.0,0.0,0.0,0.0,0.0,0.0,0.0,0.0,0.0,0.0,0.0,0.0,0.0,0.0,0.0,0.0,0.0,0.0,0.0,0.0,0.0,0.0,0.0,0.0,0.0,0.0,0.0,0.0,0.0,0.0,0.0,0.0,0.0,0.0,0.0,0.0,0.0,0.0,0.0,0.0,0.0,0.0,0.0,0.0,0.0,0.0,0.0,0.0,0.0,0.0,0.0,0.0,0.0,0.0,0.0,0.0,0.0,0.0,0.0,0.0,0.0,0.0,0.0,0.0,0.0,0.0,0.0,0.0,0.0,0.0,0.0,0.0,0.0,0.0,0.0,0.0,0.0,0.0,0.0,0.0,0.0,0.0,0.0,0.0,0.0,0.0,0.0,0.0,0.0,0.0,0.0,0.0,0.0,0.0,0.0,0.0,0.0,0.0,0.0,0.0,0.0,2.4355,2.4914,2.512,2.4905,2.3191,2.2041,2.144,0.0,0.0,0.0,0.0,0.0,0.0,0.0,0.0,0.0,0.0,0.0,0.0,0.0,0.0,0.0,0.0,0.0,0.0,0.0,0.0,0.0,0.0,0.0,0.0,0.0,0.0,0.0,0.0,0.0,0.0,0.0,0.0,0.0,0.0,0.0,0.0,0.0,0.0,0.0,0.0,0.0,0.0,0.0,0.0,0.0,0.0,0.0,0.0,0.0,0.0,0.0,0.0,0.0,0.0,0.0,0.0,0.0,0.0,0.0,0.0,0.0,0.0,0.0,0.0,0.0,0.0,0.0,0.0,0.0,0.0,0.0,0.0,0.0,0.0,0.0,0.0,0.0,0.0,0.0,0.0,0.0,0.0,0.0,0.0,0.0,0.0,0.0,0.0,0.0,0.0,0.0,0.0,0.0,0.0,0.0,0.0,0.0,0.0,0.0,0.0,0.0,0.0,0.0,0.0,0.0,0.0,0.0,0.0,2.7906,2.7302,2.6809,2.6375,2.4282,2.3018,0.0,0.0,0.0,0.0,0.0,0.0,0.0,0.0,0.0,0.0,0.0,0.0,0.0,0.0,0.0,0.0,0.0,0.0,0.0,0.0,0.0,0.0,0.0,0.0,0.0,0.0,0.0,0.0,0.0,0.0,0.0,0.0,0.0,0.0,0.0,0.0,0.0,0.0,0.0,0.0,0.0,0.0,0.0,0.0,0.0,0.0,0.0,0.0,0.0,0.0,0.0,0.0,0.0,0.0,0.0,0.0,0.0,0.0,0.0,0.0,0.0,0.0,0.0,0.0,0.0,0.0,0.0,0.0,0.0,0.0,0.0,0.0,0.0,0.0,0.0,0.0,0.0,0.0,0.0,0.0,0.0,0.0,0.0,0.0,0.0,0.0,0.0,0.0,0.0,0.0,0.0,0.0,0.0,0.0,0.0,0.0,0.0,0.0,0.0,0.0,0.0,0.0,0.0,0.0,0.0,0.0,0.0,0.0,0.0,3.0462,3.1262,3.0976,2.9356,2.7066,2.5342,0.0,0.0,0.0,0.0,0.0,0.0,0.0,0.0,0.0,0.0,0.0,0.0,0.0,0.0,0.0,0.0,0.0,0.0,0.0,0.0,0.0,0.0,0.0,0.0,0.0,0.0,0.0,0.0,0.0,0.0,0.0,0.0,0.0,0.0,0.0,0.0,0.0,0.0,0.0,0.0,0.0,0.0,0.0,0.0,0.0,0.0,0.0,0.0,0.0,0.0,0.0,0.0,0.0,0.0,0.0,0.0,0.0,0.0,0.0,0.0,0.0,0.0,0.0,0.0,0.0,0.0,0.0,0.0,0.0,0.0,0.0,0.0,0.0,0.0,0.0,0.0,0.0,0.0,0.0,0.0,0.0,0.0,0.0,0.0,0.0,0.0,0.0,0.0,0.0,0.0,0.0,0.0,0.0,0.0,0.0,0.0,0.0,0.0,0.0,0.0,0.0,0.0,0.0,0.0,0.0,0.0,0.0,0.0,3.091,3.2736,3.4252,3.4455,3.3189,2.9816,2.7392,0.0,0.0,0.0,0.0,0.0,0.0,0.0,0.0,0.0,0.0,0.0,0.0,0.0,0.0,0.0,0.0,0.0,0.0,0.0,0.0,0.0,0.0,0.0,0.0,0.0,0.0,0.0,0.0,0.0,0.0,0.0,0.0,0.0,0.0,0.0,0.0,0.0,0.0,0.0,0.0,0.0,0.0,0.0,0.0,0.0,0.0,0.0,0.0,0.0,0.0,0.0,0.0,0.0,0.0,0.0,0.0,0.0,0.0,0.0,0.0,0.0,0.0,0.0,0.0,0.0,0.0,0.0,0.0,0.0,0.0,0.0,0.0,0.0,0.0,0.0,0.0,0.0,0.0,0.0,0.0,0.0,0.0,0.0,0.0,0.0,0.0,0.0,0.0,0.0,0.0,0.0,0.0,0.0,0.0,0.0,0.0,0.0,0.0,0.0,0.0,0.0,0.0,0.0,0.0,0.0,0.0,0.0,0.0,3.2849,3.4747,3.6472,3.7255,3.6813,3.2421,2.9271,0.0,0.0,0.0,0.0,0.0,0.0,0.0,0.0,0.0,0.0,0.0,0.0,0.0,0.0,0.0,0.0,0.0,0.0,0.0,0.0,0.0,0.0,0.0,0.0,0.0,0.0,0.0,0.0,0.0,0.0,0.0,0.0,0.0,0.0,0.0,0.0,0.0,0.0,0.0,0.0,0.0,0.0,0.0,0.0,0.0,0.0,0.0,0.0,0.0,0.0,0.0,0.0,0.0,0.0,0.0,0.0,0.0,0.0,0.0,0.0,0.0,0.0,0.0,0.0,0.0,0.0,0.0,0.0,0.0,0.0,0.0,0.0,0.0,0.0,0.0,0.0,0.0,0.0,0.0,0.0,0.0,0.0,0.0,0.0,0.0,0.0,0.0,0.0,0.0,0.0,0.0,0.0,0.0,0.0,0.0,0.0,0.0,0.0,0.0,0.0,0.0,0.0,0.0,0.0,0.0,0.0,0.0,0.0,3.4373,3.6589,3.7898,3.8316,3.7912,3.4356,3.1322,0.0,0.0,0.0,0.0,0.0,0.0,0.0,0.0,0.0,0.0,0.0,0.0,0.0,0.0,0.0,0.0,0.0,0.0,0.0,0.0,0.0,0.0,0.0,0.0,0.0,0.0,0.0,0.0,0.0,0.0,0.0,0.0,0.0,0.0,0.0,0.0,0.0,0.0,0.0,0.0,0.0,0.0,0.0,0.0,0.0,0.0,0.0,0.0,2.0041,0.0,0.0,0.0,0.0,0.0,0.0,0.0,0.0,0.0,0.0,0.0,0.0,0.0,0.0,0.0,0.0,0.0,0.0,0.0,0.0,0.0,0.0,0.0,0.0,0.0,0.0,0.0,0.0,0.0,0.0,0.0,0.0,0.0,0.0,0.0,0.0,0.0,0.0,0.0,0.0,0.0,0.0,0.0,0.0,0.0,0.0,0.0,0.0,0.0,0.0,0.0,0.0,0.0,0.0,0.0,0.0,0.0,0.0,0.0,3.6091,3.8531,3.9543,3.9818,3.9355,3.6628,3.3436,0.0,0.0,0.0,0.0,0.0,0.0,0.0,0.0,0.0,0.0,0.0,0.0,0.0,0.0,0.0,0.0,0.0,0.0,0.0,0.0,0.0,0.0,0.0,0.0,0.0,0.0,0.0,0.0,0.0,0.0,0.0,0.0,0.0,0.0,0.0,0.0,0.0,0.0,0.0,0.0,0.0,0.0,0.0,0.0,0.0,0.0,0.0,0.0,0.0,0.0,0.0,0.0,0.0,0.0,0.0,0.0,0.0,0.0,0.0,0.0,0.0,0.0,0.0,0.0,0.0,0.0,0.0,0.0,0.0,0.0,0.0,0.0,0.0,0.0,0.0,0.0,0.0,0.0,0.0,0.0,0.0,0.0,0.0,0.0,0.0,0.0,0.0,0.0,0.0,0.0,0.0,0.0,0.0,0.0,0.0,0.0,0.0,0.0,0.0,0.0,0.0,0.0,0.0,0.0,0.0,0.0,0.0,3.4545,3.7804,4.033,4.1177,4.1367,4.087,3.8499,3.5156,3.0821,0.0,0.0,0.0,0.0,0.0,0.0,0.0,0.0,0.0,0.0,0.0,0.0,0.0,0.0,0.0,0.0,0.0,0.0,0.0,0.0,0.0,0.0,0.0,0.0,0.0,0.0,0.0,0.0,0.0,0.0,0.0,0.0,0.0,0.0,0.0,0.0,0.0,0.0,1.8688,2.1252,0.0,0.0,0.0,0.0,0.0,0.0,0.0,0.0,2.3349,0.0,0.0,0.0,0.0,0.0,0.0,0.0,0.0,0.0,0.0,0.0,0.0,0.0,0.0,0.0,0.0,0.0,0.0,0.0,0.0,0.0,0.0,0.0,0.0,0.0,0.0,0.0,0.0,0.0,0.0,0.0,0.0,0.0,0.0,0.0,0.0,0.0,0.0,0.0,0.0,0.0,0.0,0.0,0.0,0.0,0.0,0.0,0.0,0.0,0.0,0.0,0.0,0.0,0.0,0.0,0.0,3.2683,3.6186,3.9134,4.1469,4.2362,4.231,4.1181,3.8361,3.5072,3.1457,0.0,0.0,0.0,0.0,0.0,0.0,0.0,0.0,0.0,0.0,0.0,0.0,0.0,0.0,0.0,0.0,0.0,0.0,0.0,0.0,0.0,0.0,0.0,0.0,0.0,0.0,0.0,0.0,0.0,0.0,0.0,0.0,0.0,0.0,0.0,0.0,0.0,0.0,0.0,2.4078,2.5467,0.0,0.0,0.0,0.0,0.0,0.0,0.0,0.0,2.4685,0.0,0.0,0.0,0.0,0.0,0.0,0.0,0.0,0.0,0.0,0.0,0.0,0.0,0.0,0.0,0.0,0.0,0.0,0.0,0.0,0.0,0.0,0.0,0.0,0.0,0.0,0.0,0.0,0.0,0.0,0.0,0.0,0.0,0.0,0.0,0.0,0.0,0.0,0.0,0.0,0.0,0.0,0.0,0.0,0.0,0.0,0.0,0.0,0.0,0.0,0.0,0.0,0.0,0.0,0.0,3.4056,3.7369,4.021,4.2635,4.3114,4.2847,4.1796,3.8853,3.5413,0.0,0.0,0.0,0.0,0.0,0.0,0.0,0.0,0.0,0.0,0.0,0.0,0.0,0.0,0.0,0.0,0.0,0.0,0.0,0.0,0.0,0.0,0.0,0.0,0.0,0.0,0.0,0.0,0.0,0.0,0.0,0.0,0.0,0.0,0.0,0.0,0.0,0.0,0.0,0.0,2.5575,2.7147,2.8225,0.0,0.0,0.0,0.0,0.0,0.0,2.7221,2.6799,0.0,0.0,0.0,0.0,0.0,0.0,0.0,0.0,0.0,0.0,0.0,0.0,0.0,0.0,0.0,0.0,0.0,0.0,0.0,0.0,0.0,0.0,0.0,0.0,0.0,0.0,0.0,0.0,0.0,0.0,0.0,0.0,0.0,0.0,0.0,0.0,0.0,0.0,0.0,0.0,0.0,0.0,0.0,0.0,0.0,0.0,0.0,0.0,0.0,0.0,0.0,0.0,0.0,0.0,0.0,3.5037,3.851,4.143,4.3713,4.3982,4.3535,4.237,3.9433,3.5862,0.0,0.0,0.0,0.0,0.0,0.0,0.0,0.0,0.0,0.0,0.0,0.0,0.0,0.0,0.0,0.0,0.0,0.0,0.0,0.0,0.0,0.0,0.0,0.0,0.0,0.0,0.0,0.0,0.0,0.0,0.0,0.0,0.0,0.0,0.0,0.0,0.0,0.0,0.0,0.0,0.0,2.8957,3.0525,3.0011,0.0,0.0,0.0,0.0,2.9805,2.9603,0.0,0.0,0.0,0.0,0.0,0.0,0.0,0.0,0.0,0.0,0.0,0.0,0.0,0.0,0.0,0.0,0.0,0.0,0.0,0.0,0.0,0.0,0.0,0.0,0.0,0.0,0.0,0.0,0.0,0.0,0.0,0.0,0.0,0.0,0.0,0.0,0.0,0.0,0.0,0.0,0.0,0.0,0.0,0.0,0.0,0.0,0.0,0.0,0.0,0.0,0.0,0.0,0.0,0.0,0.0,0.0,3.5413,3.9866,4.2998,4.4601,4.5529,4.4924,4.2697,3.9842,3.6181,0.0,0.0,0.0,0.0,0.0,0.0,0.0,0.0,0.0,0.0,0.0,0.0,0.0,0.0,0.0,0.0,0.0,0.0,0.0,0.0,0.0,0.0,0.0,0.0,0.0,0.0,0.0,0.0,0.0,0.0,0.0,0.0,0.0,0.0,0.0,0.0,0.0,0.0,0.0,0.0,0.0,3.1345,3.3327,3.2982,3.2748,0.0,0.0,3.2704,3.3239,3.2729,0.0,0.0,0.0,0.0,0.0,0.0,0.0,0.0,0.0,0.0,0.0,0.0,0.0,0.0,0.0,0.0,0.0,0.0,0.0,0.0,0.0,0.0,0.0,0.0,0.0,0.0,0.0,0.0,0.0,0.0,0.0,0.0,0.0,0.0,0.0,0.0,0.0,0.0,0.0,0.0,0.0,0.0,0.0,0.0,0.0,0.0,0.0,0.0,0.0,0.0,0.0,0.0,0.0,0.0,0.0,3.2817,3.7503,4.0906,4.3632,4.5715,4.5898,4.4991,4.3108,4.0263,3.662,0.0,0.0,0.0,0.0,0.0,0.0,0.0,0.0,0.0,0.0,0.0,0.0,0.0,0.0,0.0,0.0,0.0,0.0,0.0,0.0,0.0,0.0,0.0,0.0,0.0,0.0,0.0,0.0,0.0,0.0,0.0,0.0,0.0,0.0,0.0,0.0,0.0,0.0,0.0,0.0,0.0,0.0,3.4889,3.5409,0.0,0.0,0.0,3.5774,3.6071,0.0,0.0,0.0,0.0,0.0,0.0,0.0,0.0,0.0,0.0,0.0,0.0,0.0,0.0,0.0,0.0,0.0,0.0,0.0,0.0,0.0,0.0,0.0,0.0,0.0,0.0,0.0,0.0,0.0,0.0,0.0,0.0,0.0,0.0,0.0,0.0,0.0,0.0,0.0,0.0,0.0,0.0,0.0,0.0,0.0,0.0,0.0,0.0,0.0,0.0,0.0,0.0,0.0,0.0,0.0,0.0,0.0,3.8997,4.1757,4.4314,4.6577,4.6253,4.5188,4.3499,4.0891,0.0,0.0,0.0,0.0,0.0,0.0,0.0,0.0,0.0,0.0,0.0,0.0,0.0,0.0,0.0,0.0,0.0,0.0,0.0,0.0,0.0,0.0,0.0,0.0,0.0,0.0,0.0,1.3989,0.0,0.0,0.0,0.0,0.0,0.0,0.0,0.0,0.0,0.0,0.0,0.0,0.0,0.0,3.4804,3.6703,3.7833,3.8663,0.0,0.0,3.8711,3.8733,3.7886,3.6482,0.0,0.0,0.0,0.0,0.0,0.0,0.0,0.0,0.0,0.0,0.0,0.0,0.0,0.0,0.0,0.0,0.0,0.0,0.0,0.0,0.0,0.0,0.0,0.0,0.0,0.0,0.0,0.0,0.0,0.0,0.0,0.0,0.0,0.0,0.0,0.0,0.0,0.0,0.0,0.0,0.0,0.0,0.0,0.0,0.0,0.0,0.0,0.0,0.0,0.0,0.0,0.0,0.0,0.0,0.0,3.8643,4.2471,4.5211,4.6913,4.7117,4.6147,4.4011,4.1784,3.8189,0.0,0.0,0.0,0.0,0.0,0.0,0.0,0.0,0.0,0.0,0.0,0.0,0.0,0.0,0.0,0.0,0.0,0.0,0.0,0.0,0.0,0.0,0.0,0.0,0.0,0.0,0.0,0.0,0.0,0.0,0.0,0.0,0.0,0.0,0.0,0.0,0.0,0.0,0.0,0.0,0.0,3.5972,3.9369,4.0305,4.1154,0.0,0.0,4.1394,4.1273,3.9991,3.8084,3.527,0.0,0.0,0.0,0.0,0.0,0.0,0.0,0.0,0.0,0.0,0.0,0.0,0.0,0.0,0.0,0.0,0.0,0.0,0.0,0.0,0.0,0.0,0.0,0.0,0.0,0.0,0.0,0.0,0.0,0.0,0.0,0.0,0.0,0.0,0.0,0.0,0.0,0.0,0.0,0.0,0.0,0.0,0.0,0.0,0.0,0.0,0.0,0.0,0.0,0.0,0.0,0.0,0.0,3.4835,3.9436,4.3263,4.601,4.7667,4.7692,4.6947,4.5402,4.2664,3.9298,0.0,0.0,0.0,0.0,0.0,0.0,0.0,0.0,0.0,0.0,0.0,0.0,0.0,0.0,0.0,0.0,0.0,0.0,0.0,0.0,0.0,0.0,0.0,0.0,0.0,0.0,0.0,0.0,2.057,2.1516,2.1763,0.0,0.0,0.0,0.0,0.0,0.0,0.0,0.0,0.0,0.0,3.8739,4.0684,4.2177,0.0,0.0,4.3444,4.3089,4.2623,4.1323,3.943,3.6704,3.4078,0.0,0.0,0.0,0.0,0.0,0.0,0.0,0.0,0.0,0.0,0.0,0.0,0.0,0.0,0.0,0.0,0.0,0.0,0.0,0.0,0.0,0.0,0.0,0.0,0.0,0.0,0.0,0.0,0.0,0.0,0.0,0.0,0.0,0.0,0.0,0.0,0.0,0.0,0.0,0.0,0.0,0.0,0.0,0.0,0.0,0.0,0.0,0.0,0.0,0.0,0.0,0.0,3.5365,4.0236,4.3716,4.6367,4.8155,4.8038,4.7412,4.6166,4.3637,4.0597,0.0,0.0,0.0,0.0,0.0,0.0,0.0,0.0,0.0,0.0,0.0,0.0,0.0,0.0,0.0,0.0,0.0,0.0,0.0,0.0,0.0,0.0,0.0,0.0,0.0,0.0,0.0,0.0,2.2352,2.281,2.2629,0.0,0.0,0.0,0.0,0.0,0.0,0.0,0.0,0.0,0.0,4.0637,4.2106,4.3651,4.4639,4.4675,4.4637,4.4285,4.3394,4.2264,4.0673,3.8208,0.0,0.0,0.0,0.0,0.0,0.0,0.0,0.0,0.0,0.0,0.0,0.0,0.0,0.0,0.0,0.0,0.0,0.0,0.0,0.0,0.0,0.0,0.0,0.0,0.0,0.0,0.0,0.0,0.0,0.0,1.8694,0.0,0.0,0.0,0.0,0.0,0.0,0.0,0.0,0.0,0.0,0.0,0.0,0.0,0.0,0.0,0.0,0.0,0.0,0.0,0.0,0.0,0.0,3.5529,4.0903,4.3818,4.6198,4.8141,4.8142,4.7512,4.629,4.4749,4.2142,3.825,0.0,0.0,0.0,0.0,0.0,0.0,0.0,0.0,0.0,0.0,0.0,0.0,0.0,0.0,0.0,0.0,0.0,0.0,0.0,0.0,0.0,0.0,0.0,0.0,0.0,0.0,2.3546,2.361,2.3324,0.0,0.0,0.0,0.0,0.0,0.0,0.0,0.0,0.0,0.0,3.9073,4.1286,4.3659,4.4576,4.5169,4.5674,4.557,4.497,4.3619,4.2816,4.1719,0.0,0.0,0.0,0.0,0.0,0.0,0.0,0.0,0.0,0.0,0.0,0.0,0.0,0.0,0.0,0.0,0.0,0.0,0.0,0.0,0.0,0.0,0.0,0.0,0.0,0.0,0.0,2.2988,2.2617,0.0,0.0,0.0,0.0,0.0,0.0,0.0,0.0,0.0,0.0,0.0,3.0464,3.1383,0.0,0.0,0.0,0.0,0.0,0.0,0.0,0.0,0.0,0.0,0.0,0.0,3.6356,4.1152,4.4603,4.7228,4.8992,4.8863,4.8495,4.7846,4.5737,4.2586,3.8318,0.0,0.0,0.0,0.0,0.0,0.0,0.0,0.0,0.0,0.0,0.0,0.0,0.0,0.0,0.0,0.0,0.0,0.0,0.0,0.0,0.0,0.0,0.0,0.0,0.0,2.4765,0.0,0.0,0.0,0.0,0.0,0.0,0.0,0.0,0.0,0.0,0.0,3.6245,3.8736,4.126,4.3177,4.4166,4.4916,4.5344,0.0,0.0,0.0,0.0,0.0,0.0,0.0,0.0,0.0,0.0,0.0,0.0,0.0,0.0,3.5709,3.2813,3.231,3.2333,3.2344,0.0,0.0,0.0,0.0,0.0,0.0,0.0,0.0,0.0,0.0,0.0,0.0,0.0,0.0,2.5955,0.0,2.464,0.0,0.0,0.0,0.0,0.0,0.0,0.0,0.0,3.2302,3.3591,3.4046,3.4646,3.4412,0.0,3.3042,3.1279,0.0,0.0,0.0,0.0,0.0,0.0,0.0,0.0,3.7331,4.1848,4.5281,4.7781,4.9269,4.9254,4.8967,4.8538,4.6015,4.3127,3.9816,3.6331,3.2993,0.0,0.0,0.0,0.0,0.0,0.0,0.0,0.0,0.0,0.0,0.0,0.0,0.0,0.0,0.0,0.0,0.0,0.0,0.0,0.0,0.0,0.0,0.0,2.6558,0.0,0.0,0.0,0.0,0.0,0.0,0.0,0.0,0.0,3.2965,3.6005,3.8969,4.1053,4.3125,4.4593,4.4986,0.0,0.0,0.0,0.0,0.0,0.0,0.0,4.3601,4.2659,4.2066,4.1673,4.1432,4.1896,4.236,4.2475,0.0,0.0,3.7824,3.7148,3.7229,3.7229,3.7417,3.7524,3.7417,3.8379,3.9294,0.0,0.0,0.0,0.0,0.0,0.0,0.0,0.0,2.9192,2.9178,0.0,2.7812,0.0,0.0,0.0,0.0,0.0,0.0,0.0,0.0,3.5375,3.6641,3.7661,3.7545,3.7325,3.7056,3.631,3.5612,3.4714,2.9927,0.0,0.0,0.0,0.0,0.0,0.0,3.8483,4.3039,4.5866,4.7898,4.9161,4.9291,4.8993,4.8273,4.5688,4.3805,4.2653,3.9675,3.6714,3.3851,3.009,0.0,0.0,0.0,0.0,0.0,0.0,0.0,0.0,0.0,0.0,0.0,0.0,0.0,0.0,0.0,0.0,0.0,0.0,0.0,0.0,2.8339,0.0,0.0,0.0,0.0,0.0,0.0,0.0,0.0,0.0,0.0,3.7008,3.8675,4.0875,4.3697,0.0,0.0,0.0,0.0,4.6204,4.6001,4.596,4.5849,4.5449,4.5504,4.5445,4.5058,0.0,0.0,4.4697,4.584,4.6821,4.7285,4.7818,4.7171,4.3065,4.2478,4.2621,4.2621,4.2824,4.3124,4.3157,4.3424,4.4075,3.5109,0.0,0.0,0.0,0.0,3.2733,3.3119,3.3383,3.2967,3.2716,3.2545,3.0886,0.0,0.0,0.0,0.0,0.0,0.0,3.5442,3.7526,3.869,3.9654,4.0377,4.052,4.0246,3.9643,3.943,3.89,3.8055,3.6179,3.3553,3.0294,0.0,0.0,0.0,0.0,4.0919,4.5312,4.728,4.9078,5.0847,5.0087,4.9152,4.8035,4.6824,4.5624,4.4434,4.236,4.0041,3.7399,3.4329,0.0,0.0,0.0,0.0,0.0,0.0,0.0,0.0,0.0,0.0,0.0,0.0,0.0,0.0,0.0,0.0,0.0,0.0,0.0,3.1561,3.095,3.0085,0.0,0.0,0.0,0.0,0.0,0.0,0.0,0.0,0.0,4.2428,4.2736,4.3443,0.0,0.0,4.6793,4.735,4.7408,4.7388,4.7325,0.0,0.0,0.0,4.7188,4.7261,4.7303,4.7432,4.7596,4.7852,4.8224,4.8681,4.9322,4.9624,4.9467,4.8828,4.7546,4.6753,4.671,4.6851,4.6957,4.6916,4.7309,4.7764,3.9506,3.7312,3.5956,3.5583,3.5927,3.6274,3.6594,3.6829,3.6482,3.614,3.5751,3.4427,3.3552,3.3107,3.3291,0.0,0.0,0.0,3.8627,4.0197,4.1348,4.2161,4.269,4.2969,4.2833,4.2295,4.2209,4.1738,4.0958,4.0569,3.8979,3.6266,0.0,0.0,3.7685,3.978,4.279,4.6664,4.8085,4.956,5.1228,5.0475,4.9481,4.8361,4.7765,4.6967,4.6092,4.4385,4.2596,4.0748,3.7859,3.4695,0.0,0.0,0.0,0.0,0.0,0.0,0.0,0.0,0.0,0.0,0.0,1.9725,0.0,0.0,0.0,0.0,2.9478,3.248,3.4658,3.3734,0.0,0.0,0.0,0.0,0.0,0.0,0.0,3.9641,4.1366,4.338,4.5939,4.6072,4.6174,4.6898,4.7332,4.7851,4.8591,0.0,4.8802,4.9161,4.9213,4.9257,4.9345,4.9345,4.9433,4.9683,5.0157,5.0571,5.0808,5.1015,5.1398,5.1856,5.2002,5.2126,5.252,5.1621,5.0549,4.9828,4.9801,4.9961,5.0151,5.0434,5.0707,4.3095,4.266,4.0389,3.9545,3.967,3.969,3.9719,3.9747,3.9682,3.9332,3.8783,3.8079,3.7481,3.6978,3.7363,0.0,0.0,3.9944,4.1192,4.221,4.3394,4.415,4.4582,4.4881,4.4934,4.4748,4.4518,4.4093,4.3459,4.3431,4.3322,4.3015,3.9877,3.9179,4.0912,4.2124,4.4301,4.7415,4.8477,4.9576,5.0774,5.0569,4.9997,4.9035,4.8392,4.7872,4.7391,4.569,4.4368,4.3523,4.0641,3.7727,3.4896,0.0,0.0,0.0,0.0,0.0,0.0,0.0,0.0,0.0,0.0,0.0,0.0,0.0,0.0,0.0,3.3341,0.0,3.7215,3.6658,0.0,0.0,0.0,3.6613,3.7421,3.903,4.1028,4.3485,0.0,0.0,0.0,0.0,4.8876,4.8544,4.8492,4.8842,4.9961,5.0109,5.0394,5.1112,5.1255,5.1349,5.147,5.1616,5.1709,5.1894,5.257,5.2945,5.3192,5.3666,5.4225,5.429,5.4521,5.4459,5.4497,5.4268,5.3967,5.2067,5.1947,5.2324,5.2817,5.2783,5.2977,4.3823,4.4083,4.3521,4.283,4.2155,4.215,4.2401,4.2731,4.2058,4.1696,4.1477,4.0569,4.0148,4.0199,4.0281,4.0923,4.1981,4.2818,4.3738,4.4703,4.4882,4.5129,4.5481,4.5355,4.5292,4.5243,4.517,4.5062,4.4899,4.4899,4.5114,4.5385,4.4208,4.3709,4.4036,4.459,4.6196,4.8887,4.9398,5.0057,5.0848,5.0823,5.0208,4.9035,4.821,4.7424,4.6606,4.5677,4.4522,4.3111,4.1553,3.9373,3.6486,3.3252,0.0,0.0,0.0,0.0,0.0,0.0,0.0,0.0,0.0,2.4513,2.6016,0.0,3.0819,0.0,3.6245,3.8513,3.9392,3.9161,0.0,0.0,3.9916,4.0878,4.1569,4.3198,4.4961,4.6752,4.7513,4.8558,5.0384,5.0696,5.086,5.1057,5.0825,5.0921,5.1694,5.1812,5.1896,5.2063,5.2147,5.2191,5.2483,5.2846,5.3116,5.3211,5.3475,5.3672,5.3749,5.3895,5.4016,5.4057,5.4057,5.4057,5.4118,5.4057,5.3952,5.3498,5.3691,5.4018,5.4204,5.4052,5.3991,4.5555,4.5792,4.5792,4.5461,4.4893,4.4318,4.4259,4.4505,4.4006,4.3635,4.3329,4.2518,4.2211,4.2351,4.2716,4.3223,4.3807,4.4542,4.509,4.5524,4.571,4.6008,4.647,4.6493,4.6613,4.6861,4.6706,4.6628,4.6628,4.6656,4.687,4.7356,4.7026,4.6863,4.6873,4.6269,4.7032,4.9242,4.9978,5.0512,5.0873,5.0649,4.9925,4.87,4.793,4.6901,4.5598,4.4957,4.4102,4.3088,4.2025,4.0389,3.8169,3.5705,3.3099,0.0,0.0,0.0,0.0,0.0,0.0,0.0,0.0,0.0,0.0,0.0,3.4744,0.0,3.9873,0.0,4.2229,4.2357,4.2425,4.2501,4.3301,4.4237,4.5223,4.6371,4.77,4.9321,4.9563,5.0159,5.1516,5.1599,5.1759,5.224,5.214,5.214,5.2553,5.2658,5.2797,5.3188,5.3246,5.3293,5.3444,5.3694,5.3923,5.3893,5.4017,5.4061,5.4061,5.4061,5.4061,5.4061,5.4061,5.4061,5.4086,5.4086,5.4086,5.4111,5.4283,5.4504,5.4694,5.4633,5.4629,4.7202,4.7257,4.7257,4.7285,4.7208,4.6124,4.5628,4.5596,4.5588,4.5225,4.4587,4.4063,4.387,4.4004,4.483,4.5111,4.5026,4.5829,4.6059,4.5811,4.636,4.6857,4.7302,4.7587,4.8026,4.8545,4.8301,4.8164,4.8192,4.8192,4.8382,4.8736,4.8681,4.8789,4.9004,4.7488,4.746,4.914,5.0271,5.0878,5.0878,5.0326,4.9442,4.8254,4.751,4.6296,4.4574,4.3887,4.3345,4.2929,4.2049,4.0957,3.9568,3.7978,3.5938,0.0,3.1671,0.0,0.0,0.0,0.0,0.0,0.0,0.0,0.0,3.6562,3.9159,4.2104,4.3492,4.4478,4.5032,4.553,4.5834,4.5843,4.6339,4.7139,4.8268,4.8827,4.9705,5.1253,5.1013,5.1099,5.2015,5.2014,5.2168,5.2705,5.2904,5.3029,5.3146,5.304,5.3176,5.4013,5.4123,5.3924,5.4031,5.4167,5.4245,5.4245,5.4292,5.4278,5.4245,5.4245,5.4223,5.4197,5.4138,5.4197,5.4289,5.423,5.4256,5.4484,5.4451,5.4412,5.4704,5.4865,5.5151,4.6782,4.6951,4.6979,4.709,4.7286,4.7052,4.6813,4.6623,4.6553,4.604,4.5249,4.5112,4.5332,4.5829,4.6512,4.7065,4.7483,4.8143,4.8182,4.7675,4.7784,4.765,4.7322,4.7375,4.7618,4.7945,4.7891,4.8,4.8192,4.8192,4.849,4.898,4.8545,4.8572,0.0,0.0,0.0,0.0,5.0215,5.0683,5.0878,5.0298,4.9414,4.8227,4.6942,0.0,4.3942,4.3062,4.2237,4.1389,4.1335,0.0,0.0,0.0,0.0,0.0,0.0,0.0,0.0,0.0,0.0,0.0,3.9327,3.9051,3.8393,4.1354,4.3721,4.4744,4.5572,4.6075,4.6201,4.7014,4.7532,4.759,4.8792,4.9786,5.0048,5.0399,5.1006,5.1818,5.1678,5.1757,5.2446,5.2964,5.3253,5.3369,5.3853,5.4165,5.4159,5.3351,5.2861,5.2998,5.3295,5.3422,5.3605,5.3815,5.3993,5.4226,5.4304,5.42,5.3968,5.3942,5.3893,5.3739,5.3632,5.3835,5.4274,5.401,5.4089,5.5267,5.49,5.4399,5.4428,5.4823,5.5267,4.7395,0.0,4.7538,4.7624,0.0,4.7908,4.7731,4.734,4.7109,4.6785,4.6322,4.6322,4.6511,4.6836,4.7161,4.7459,4.7731,4.8056,4.8055,4.7781,4.7754,4.7749,4.7738,4.7766,4.7982,4.8443,4.8443,4.8585,4.8891,4.9188,4.9543,5.001,4.9982,5.0144,5.0416,4.9947,4.9599,4.9363,4.9936,5.0319,5.0404,4.9885,4.8981,4.7858,0.0,0.0,0.0,0.0,0.0,0.0,0.0,0.0,0.0,0.0,0.0,3.9409,3.9072,3.9243,3.9934,3.9973,4.0949,4.3153,4.4567,4.4792,4.3442,4.5526,4.7137,4.7662,4.8191,4.8477,4.8506,4.9107,4.9513,4.9571,5.0087,5.0574,5.102,5.1127,5.1454,5.2025,5.2035,5.2157,5.2645,5.2821,5.3077,5.3331,5.3501,5.3641,5.3641,5.3637,5.3509,5.3194,5.3245,5.3263,5.3138,5.3213,5.3343,5.3445,5.3527,5.3448,5.3316,5.329,5.3324,5.3508,5.3568,5.3714,5.4262,5.4203,5.4257,5.4887,5.4774,5.443,5.4434,5.4905,5.5296,4.8339,4.8309,4.8309,4.8339,4.8339,4.8524,4.8247,4.767,0.0,0.0,0.0,4.7285,4.7366,4.7472,4.7472,4.7525,4.7632,4.7632,4.7604,4.7548,4.7548,4.7787,4.8209,4.8315,4.8662,4.9143,4.9276,4.9476,4.9848,5.0303,5.0661,5.0893,5.1379,5.1623,5.1623,5.136,5.0605,4.9514,4.9923,5.0224,5.0144,4.9575,4.868,4.7567,4.697,4.5585,4.3308,4.3199,4.2656,4.1489,4.1846,4.197,4.1652,4.2314,4.2574,4.2281,4.267,4.3251,4.3891,4.3993,4.4792,4.6575,4.8475,4.9095,4.7986,4.8756,4.9538,5.0111,5.0332,5.0446,5.0475,5.0768,5.0958,5.0958,5.0658,5.0731,5.1398,5.1349,5.1386,5.1893,5.2035,5.2206,5.2463,5.2603,5.2712,5.3156,5.3292,5.3059,5.312,5.364,5.3836,5.355,5.3437,5.3376,5.3113,5.3026,5.2914,5.3082,5.2939,5.2715,5.2635,5.2608,5.2808,5.3097,5.3323,5.3692,5.4259,5.4259,5.44,5.4712,5.4626,5.4598,5.4768,5.5074,5.5321,4.8788,4.8788,4.8814,4.8814,4.8762,4.836,4.7824,4.7291,4.7314,4.7285,4.7285,4.7285,4.7579,4.8058,4.8086,4.8324,4.883,4.883,4.8742,0.0,4.8512,4.8395,4.8239,4.8737,4.9144,4.9455,4.9934,5.0376,5.0617,5.0727,5.0753,5.0839,5.0919,5.0973,5.0916,5.0886,5.0753,5.0572,5.0917,5.0995,5.077,5.02,4.9304,4.8137,4.7567,4.64,4.4529,4.4447,4.3877,4.2735,4.3104,4.331,4.3298,4.3952,4.4339,4.4328,4.5046,4.5779,4.6432,4.6976,4.7742,4.8884,5.0228,5.0585,4.9606,5.0118,5.058,5.0666,5.0494,5.0339,5.0342,5.0488,5.056,5.0561,5.0709,5.0878,5.1099,5.1072,5.1072,5.1239,5.1544,5.1876,5.2125,5.2815,5.3366,5.3587,5.3803,5.4217,5.4023,5.3536,5.3129,5.3217,5.3246,5.3416,5.3612,5.3864,5.3723,5.3808,5.3326,5.2821,5.2435,5.2351,5.2352,5.2156,5.2657,5.3242,5.4,5.3721,5.4118,5.5166,5.5053,5.4798,5.5394,5.5478,5.5423,4.8892,4.8892,4.8892,4.8892,4.8866,4.8641,4.8384,4.8133,4.8155,4.7908,4.7531,4.7703,4.792,4.8186,4.8213,4.8316,4.8635,4.8608,4.8705,4.8904,4.893,4.8999,4.9113,4.9401,4.9621,4.9741,4.9977,5.0259,5.0585,5.0876,5.1156,5.1303,5.1626,5.1694,5.1512,5.1512,5.1512,5.1485,5.1176,5.1078,5.1076,5.0538,4.9893,4.9195,4.8626,4.7676,4.6237,4.6156,4.5775,4.4881,4.5178,4.5326,4.5351,4.595,4.6409,4.6771,4.7274,4.7875,4.8522,4.9326,5.002,5.0649,5.1542,5.1877,5.1399,5.1169,5.1051,5.1051,5.0809,5.0648,5.0648,5.0932,5.1155,5.1183,5.1457,5.173,5.1815,5.173,5.173,5.1871,5.2121,5.2397,5.2728,5.3134,5.3542,5.3816,5.4054,5.4071,5.4071,5.3576,5.3204,5.3367,5.34,5.3377,5.3384,5.3357,5.3329,5.3301,5.305,5.2769,5.2486,5.2457,5.2567,5.2757,5.3003,5.3476,5.4233,5.4178,5.4435,5.4777,5.4975,5.4862,5.5116,5.5113,5.5207,4.9059,4.9059,4.9059,4.8982,4.8886,4.8911,4.8804,4.8676,4.8743,4.841,4.7965,4.821,4.8306,4.8176,4.8306,4.8358,4.8358,4.8446,4.8707,4.9154,4.924,4.9509,4.9897,5.0002,5.0106,5.0137,5.0211,5.0385,5.0706,5.1158,5.1465,5.1732,5.216,5.2218,5.1996,5.1996,5.1996,5.1944,5.1315,5.1117,5.1371,5.0896,5.0449,5.0085,4.9574,4.8816,4.7866,4.7785,4.7513,4.6943,4.7099,4.723,4.7257,4.7624,4.8026,4.8467,4.8904,4.9484,5.0264,5.0961,5.1486,5.167,5.2107,5.2325,5.2214,5.1618,5.1293,5.1405,5.1292,5.1068,5.1011,5.1255,5.1584,5.1582,5.1792,5.1953,5.2296,5.2207,5.2207,5.2439,5.2578,5.2765,5.312,5.3189,5.3226,5.3547,5.3531,5.3379,5.3379,5.3379,5.3375,5.3435,5.3567,5.3635,5.3168,5.3199,5.3197,5.3027,5.2917,5.2833,5.2718,5.2689,5.2827,5.321,5.3487,5.3764,5.432,5.4433,5.4465,5.4639,5.4641,5.4639,5.4669,5.4697,5.4815,4.951,4.9536,4.9485,4.9234,4.8838,4.8812,4.8536,4.8139,4.8337,4.841,4.835,4.8707,4.8578,4.8249,4.8604,4.8809,4.884,4.9135,4.9313,4.9421,4.9668,4.9845,4.9971,5.0446,5.0707,5.076,5.1152,5.1335,5.1423,5.1502,5.158,5.1611,5.1664,5.169,5.1659,5.1659,5.1659,5.1627,5.1554,5.1549,5.1656,5.1368,5.0952,5.039,5.0056,4.9602,4.8896,4.8924,4.8653,4.811,4.8327,4.8516,4.8516,4.8516,4.8543,4.8653,4.9363,5.0312,5.1372,5.1644,5.1552,5.137,5.1449,5.1411,5.1118,5.0981,5.1201,5.1814,5.1842,5.1498,5.126,5.1078,5.1014,5.1073,5.1091,5.1065,5.15,5.1392,5.1507,5.1857,5.2168,5.2287,5.2422,5.2618,5.2727,5.2868,5.2865,5.283,5.283,5.283,5.2803,5.2906,5.3423,5.3997,5.4125,5.4384,5.3981,5.3832,5.3446,5.3052,5.2763,5.2701,5.2756,5.2892,5.3248,5.3637,5.3899,5.4164,5.4221,5.4311,5.4431,5.4548,5.4607,5.452,5.4609,4.9,4.9032,4.9,4.9005,4.8975,4.895,4.8953,4.8912,4.9039,4.8926,4.8705,4.9109,4.9031,4.8584,4.882,4.8892,4.8892,4.9045,4.9312,4.9621,4.9775,4.9992,5.0328,5.0534,5.0783,5.0971,5.1205,5.1434,5.1565,5.1596,5.1596,5.1596,5.1596,5.1596,5.1596,5.1596,5.1596,5.1596,5.1596,5.159,5.158,5.1065,5.075,5.0637,5.0096,4.9561,4.9177,4.9291,4.9184,4.8799,4.8885,4.9131,4.9426,4.9425,4.9558,4.9879,5.0222,5.0808,5.1639,5.1543,5.1496,5.1748,5.1565,5.1473,5.1561,5.1561,5.1744,5.1997,5.1582,5.1153,5.1059,5.1206,5.1303,5.1386,5.1652,5.1899,5.2021,5.2078,5.2138,5.2286,5.2356,5.2398,5.2425,5.252,5.2588,5.2615,5.2588,5.2527,5.2558,5.2615,5.2615,5.265,5.2956,5.3227,5.344,5.341,5.3379,5.3234,5.3039,5.2759,5.2702,5.2638,5.2638,5.2638,5.2887,5.3078,5.3139,5.3231,5.3319,5.3622,5.3921,5.4011,5.4011,5.4011,5.4011,4.8576,4.8576,4.8576,4.8739,4.8942,4.8942,4.9105,4.9324,4.9324,4.9139,4.8967,4.9286,4.9355,4.9118,4.9104,4.9104,4.9104,4.9198,4.9459,4.9873,4.9962,5.0229,5.0563,5.0588,5.0741,5.0931,5.0962,5.1063,5.1314,5.1314,5.1314,5.1314,5.1408,5.144,5.1471,5.1534,5.1596,5.1596,5.1596,5.1596,5.147,5.0743,5.0409,5.0631,4.9914,4.9354,4.9125,4.9326,4.9435,4.9338,4.9365,4.9573,5.0017,5.0011,5.0128,5.0477,5.0552,5.0789,5.1343,5.1185,5.1214,5.1606,5.144,5.144,5.1654,5.1685,5.1685,5.1637,5.111,5.0789,5.1058,5.1406,5.1644,5.1701,5.2072,5.2342,5.2408,5.2465,5.2469,5.2558,5.2474,5.2399,5.2218,5.2063,5.1939,5.197,5.2001,5.2063,5.2032,5.2001,5.2001,5.2063,5.2032,5.2218,5.2496,5.2738,5.2615,5.2615,5.2654,5.2627,5.2615,5.2619,5.2619,5.2612,5.2623,5.265,5.2773,5.2711,5.265,5.2922,5.3166,5.3349,5.3319,5.3349,5.3379,4.8576,4.8543,4.8576,4.8576,4.8633,4.8608,4.8608,4.8706,4.8698,4.8812,4.903,4.9112,4.9282,4.9529,4.951,4.9554,4.9586,4.9824,4.9977,5.006,5.0346,5.0563,5.0588,5.0588,5.0588,5.062,5.0614,5.0652,5.0709,5.0683,5.0652,5.0683,5.0994,5.112,5.1151,5.1403,5.1596,5.1534,5.1534,5.1565,5.1434,5.0498,5.0101,5.0322,4.9619,4.915,4.9094,4.9123,4.9363,4.9924,4.9863,5.0011,5.0217,5.0052,4.9945,4.994,4.9893,5.0098,5.0592,5.067,5.0664,5.0683,5.0652,5.0652,5.0747,5.0747,5.0747,5.0715,5.0707,5.0824,5.1325,5.1418,5.1554,5.1523,5.1575,5.1783,5.2059,5.2001,5.2276,5.2399,5.2214,5.1841,5.1277,5.0899,5.0873,5.0842,5.0778,5.081,5.0905,5.081,5.0842,5.0842,5.0905,5.1126,5.2249,5.2373,5.2434,5.2404,5.2311,5.2527,5.2615,5.2615,5.2558,5.2527,5.2465,5.2465,5.2558,5.2615,5.2584,5.2677,5.2707,5.2799,5.2922,5.2738,5.283,4.7918,4.7918,4.7918,4.8017,4.819,4.819,4.8346,4.8576,4.8576,4.8641,4.8804,4.9007,4.917,4.9299,4.9493,4.959,4.9622,4.9719,4.9751,4.9783,4.9912,4.9976,4.9944,4.9976,5.0072,5.0264,5.0264,5.0391,5.0588,5.0588,5.0588,5.0588,5.0741,5.0778,5.0804,5.0873,5.0968,5.0968,5.0968,5.1088,5.1194,5.0338,5.0012,5.0272,4.9706,4.9303,4.91,4.9413,4.9639,4.964,4.9403,4.9512,4.996,5.0199,5.0327,5.0312,5.0306,5.0409,5.0531,5.0423,5.0295,5.0264,5.0072,5.0072,5.0232,5.0295,5.0359,5.055,5.0588,5.0747,5.0873,5.0968,5.0936,5.0968,5.0968,5.1031,5.1094,5.1126,5.1189,5.1283,5.1189,5.1031,5.0867,5.0652,5.0588,5.0588,5.0588,5.0556,5.0588,5.0588,5.0556,5.0588,5.0588,5.0747,5.1126,5.1502,5.1654,5.169,5.1721,5.1877,5.197,5.197,5.1908,5.197,5.2001,5.2001,5.2059,5.2183,5.2183,5.2276,5.2306,5.2434,5.2646,5.2465,5.2527,4.7331,4.7331,4.7464,4.763,4.7828,4.7828,4.7993,4.8248,4.8248,4.8313,4.8445,4.8649,4.8812,4.8942,4.917,4.9267,4.9324,4.9493,4.959,4.959,4.959,4.959,4.959,4.959,4.9744,4.9912,4.9944,5.004,5.0238,5.027,5.027,5.0295,5.0359,5.0455,5.0455,5.0525,5.0588,5.0588,5.0588,5.0741,5.0822,5.0227,4.9887,5.0064,4.9759,4.9411,4.9075,4.9412,4.9576,4.9487,4.9297,4.9398,4.9867,5.0155,5.027,5.0295,5.027,5.0295,5.0264,5.0072,4.9912,4.9912,4.9751,4.9719,4.9912,4.9944,5.0072,5.0257,5.0442,5.0518,5.0569,5.0728,5.0774,5.0653,5.0588,5.0588,5.0588,5.062,5.062,5.0652,5.0582,5.0487,5.0423,5.0359,5.0295,5.027,5.0295,5.027,5.0295,5.0295,5.027,5.0295,5.0264,5.0206,5.0429,5.0677,5.0962,5.1088,5.1189,5.1283,5.1346,5.1346,5.1377,5.1408,5.144,5.1466,5.1528,5.1685,5.1747,5.181,5.1965,5.2094,5.2187,5.2218,5.2249,4.6998,4.7032,4.7331,4.7464,4.7497,4.753,4.753,4.7563,4.7563,4.7786,4.8114,4.8108,4.8436,4.8641,4.8895,4.8739,4.892,4.9352,4.9511,4.9493,4.9493,4.9525,4.9558,4.9525,4.959,4.9647,4.9622,4.9622,4.9687,4.9687,4.9687,4.9687,4.9976,5.0072,5.0097,5.0359,5.0525,5.0493,5.0493,5.055,5.0537,5.0064,4.9834,4.9839,4.9768,4.9455,4.8938,4.8994,4.9307,4.9711,4.9726,4.983,4.9888,4.9815,4.9622,4.9687,4.9622,4.959,4.9672,4.9633,4.9626,4.9726,4.9658,4.9758,4.9784,4.9823,4.983,4.9996,5.024,5.0484,5.0559,5.0919,5.1049,5.0685,5.0563,5.0563,5.0518,5.0556,5.0556,5.0461,5.0264,5.0129,5.0008,4.9847,4.9687,4.9654,4.9622,4.959,4.959,4.959,4.959,4.9622,4.9687,4.9751,4.9783,4.9879,5.0232,5.0518,5.0652,5.0778,5.0873,5.0873,5.0968,5.1031,5.1094,5.1094,5.112,5.1246,5.1214,5.1277,5.1471,5.1627,5.1596,5.1627,5.1721,4.6597,4.663,4.6998,4.7132,4.7165,4.7398,4.7497,4.7497,4.7497,4.778,4.8203,4.8452,4.8813,4.924,4.9548,4.9624,4.9657,4.9487,4.9216,4.8951,4.8902,4.9065,4.9202,4.9267,4.9364,4.9558,4.959,4.959,4.959,4.959,4.959,4.9622,4.9687,4.9751,4.9808,4.9847,4.9912,4.9912,4.9912,5.0008,5.02,4.9856,4.9755,4.9914,4.9563,4.9206,4.9056,4.9501,4.9704,4.9691,4.9435,4.935,4.9404,4.9525,4.959,4.9558,4.9364,4.9434,4.9692,4.957,4.9595,4.9867,5.0166,5.0356,5.0389,5.0563,5.0687,5.072,5.0921,5.1021,5.1079,5.1147,5.1103,5.0536,5.0468,5.0323,4.9994,4.9944,4.9912,4.9912,4.9815,4.9751,4.9687,4.9461,4.9267,4.9234,4.9072,4.8967,4.8935,4.9,4.9032,4.917,4.9234,4.9364,4.9525,4.9622,4.9815,5.0136,5.027,5.0366,5.0429,5.0461,5.0582,5.0709,5.0715,5.0772,5.0772,5.0772,5.0772,5.0772,5.0936,5.0968,5.0905,5.1031,5.122,4.6391,4.6261,4.663,4.6798,4.6831,4.7165,4.7418,4.7595,4.7752,4.8098,4.8575,4.8816,4.9112,4.9412,4.9665,4.9611,4.9416,4.9051,4.8694,4.8321,4.8535,4.8706,4.8902,4.891,4.9072,4.9364,4.9429,4.9461,4.959,4.959,4.959,4.959,4.959,4.959,4.959,4.959,4.959,4.959,4.959,4.9654,4.9654,4.9525,4.9429,4.9486,4.913,4.8935,4.8967,4.9324,4.9454,4.9259,4.9007,4.891,4.8967,4.913,4.9202,4.9219,4.9231,4.9315,4.9628,4.9659,4.9713,5.01,5.0318,5.0452,5.0486,5.0746,5.0871,5.0871,5.1146,5.1372,5.1397,5.1732,5.1624,5.1096,5.0645,5.0152,4.9586,4.9429,4.9332,4.9267,4.9227,4.9227,4.9162,4.9097,4.8935,4.8845,4.8739,4.8576,4.8576,4.8608,4.8739,4.8869,4.8902,4.9072,4.9332,4.9429,4.9461,4.9719,4.9944,4.9982,5.0046,5.0072,5.0136,5.0327,5.0391,5.0423,5.0423,5.0423,5.0423,5.0455,5.0461,5.0652,5.0747,5.0715,5.081,4.639,4.597,4.6251,4.6466,4.65,4.6893,4.7312,4.7784,4.8102,4.8526,4.8968,4.9098,4.9215,4.9239,4.9487,4.927,4.8589,4.8633,4.845,4.8173,4.8344,4.8575,4.8567,4.8633,4.8804,4.904,4.9072,4.9202,4.9421,4.9461,4.9558,4.9525,4.9558,4.959,4.959,4.959,4.9525,4.9525,4.9493,4.9332,4.9137,4.9072,4.8942,4.8706,4.8608,4.8543,4.8576,4.8576,4.8576,4.8543,4.8576,4.8567,4.8617,4.8649,4.8739,4.8895,4.9132,4.9311,4.9483,4.975,5.0068,5.0215,5.0274,5.017,5.0351,5.0502,5.057,5.057,5.1129,5.1548,5.1691,5.2136,5.2332,5.1949,5.0989,5.0139,4.9329,4.9214,4.924,4.8961,4.8731,4.8756,4.892,4.8854,4.8764,4.8764,4.8723,4.8673,4.8526,4.8517,4.8551,4.8567,4.8543,4.8739,4.8975,4.9097,4.913,4.9259,4.9493,4.9687,4.9783,4.9815,4.9815,4.9976,5.0072,5.0072,5.0072,5.0072,5.0072,5.0072,5.0232,5.0461,5.0493,5.0366,5.0334,4.6554,4.6093,4.647,4.6607,4.6676,4.6983,4.7401,4.7849,4.7976,4.8502,4.9103,4.9268,4.9599,5.0204,5.0204,5.0191,4.9843,4.9565,4.9456,4.9167,4.8556,4.8291,4.8264,4.8469,4.8633,4.8731,4.8764,4.8772,4.8869,4.9105,4.9234,4.9234,4.9429,4.9558,4.9558,4.9332,4.9234,4.9202,4.8967,4.8837,4.8772,4.8739,4.8698,4.86,4.8338,4.8182,4.8149,4.7918,4.7894,4.8149,4.8125,4.8344,4.8694,4.8967,4.9189,4.9499,4.9551,4.9708,4.9991,5.0014,5.0142,5.053,5.0666,5.0902,5.0937,5.118,5.1309,5.1368,5.1654,5.1713,5.1738,5.1966,5.1862,5.1367,5.0902,5.0406,4.9932,4.9856,4.9789,4.9722,4.9639,4.9557,4.9523,4.9389,4.9255,4.9221,4.9038,4.883,4.8631,4.8509,4.8576,4.8262,4.8215,4.8412,4.8576,4.8674,4.8772,4.8804,4.9065,4.9396,4.9525,4.9654,4.9654,4.9719,4.9815,4.9815,4.9783,4.9719,4.9719,4.9783,4.9847,5.004,4.9912,4.9815,4.9847,4.6908,4.6449,4.6692,4.6797,4.6831,4.7143,4.7597,4.7994,4.8181,4.8662,4.9275,4.9381,4.9712,5.0175,5.0175,5.0032,4.9818,4.9567,4.9246,4.8937,4.8389,4.8136,4.8188,4.84,4.8556,4.864,4.8444,4.8469,4.8608,4.8804,4.8902,4.8935,4.9097,4.9195,4.9162,4.9032,4.8902,4.8869,4.8698,4.8535,4.8379,4.8346,4.8419,4.8417,4.8258,4.8206,4.8391,4.8271,4.8175,4.8173,4.8158,4.8376,4.8836,4.9101,4.9382,4.9665,4.9664,4.9852,5.0108,5.021,5.0394,5.0635,5.0884,5.0954,5.1,5.1225,5.133,5.1282,5.1446,5.1551,5.1586,5.1691,5.1569,5.1205,5.0999,5.0606,4.9976,4.9854,4.9776,4.9733,4.9699,4.9699,4.9699,4.9495,4.9426,4.9344,4.9169,4.8946,4.8744,4.8661,4.8575,4.8439,4.837,4.861,4.8678,4.8729,4.8706,4.8748,4.8797,4.9107,4.9299,4.9493,4.9525,4.9525,4.9558,4.9558,4.9493,4.9493,4.9622,4.9654,4.959,4.9558,4.9525,4.9525,4.9525,4.74,4.6989,4.6989,4.6954,4.7024,4.7306,4.7724,4.819,4.8473,4.8884,4.9343,4.9413,4.9462,4.9509,4.9652,4.9309,4.8909,4.9027,4.858,4.8403,4.8202,4.8314,4.8376,4.8343,4.8556,4.8752,4.8324,4.8417,4.8656,4.8772,4.8756,4.892,4.8871,4.883,4.9043,4.8871,4.8764,4.8805,4.8779,4.8581,4.8357,4.8324,4.8418,4.8483,4.8498,4.8623,4.8912,4.8998,4.8878,4.8517,4.8411,4.8686,4.9095,4.9191,4.9322,4.95,4.9862,5.0044,5.0081,5.0466,5.0672,5.0696,5.0696,5.0696,5.0731,5.0802,5.0802,5.0837,5.0989,5.1095,5.1071,5.1376,5.1247,5.0904,5.0893,5.0516,4.9862,4.9606,4.9537,4.9253,4.9242,4.915,4.9218,4.9194,4.9301,4.9824,4.9624,4.948,4.9335,4.9191,4.9095,4.8912,4.8908,4.8942,4.8884,4.8859,4.8743,4.8713,4.8706,4.8895,4.9122,4.9292,4.9364,4.9396,4.9227,4.9227,4.9292,4.9357,4.9421,4.9389,4.9227,4.9324,4.9454,4.9396,4.9396,4.763,4.7446,4.7446,4.7446,4.7482,4.7518,4.7865,4.8338,4.8434,4.8732,4.9029,4.9124,4.9245,4.9473,4.9437,4.9438,4.9226,4.9202,4.9026,4.8651,4.9003,4.8909,4.8683,4.8537,4.8666,4.8868,4.8922,4.8894,4.8971,4.9101,4.9334,4.9343,4.9414,4.9738,4.9621,4.9279,4.9392,4.9324,4.9097,4.8855,4.8763,4.8695,4.8758,4.8848,4.8906,4.8964,4.9036,4.9119,4.9263,4.9383,4.9205,4.9136,4.9589,4.9744,4.9854,5.0167,5.0359,5.0503,5.0551,5.0624,5.0696,5.0696,5.0696,5.0696,5.0696,5.066,5.066,5.0696,5.0767,5.0636,5.0459,5.0424,5.0329,5.0116,4.9985,4.9878,4.9653,4.977,4.9828,4.9782,4.957,4.9511,4.9829,4.9758,4.9923,5.0206,5.018,5.0095,4.9926,4.9675,4.9589,4.9411,4.9432,4.9394,4.9173,4.9068,4.8888,4.8804,4.8774,4.88,4.9002,4.9035,4.9141,4.901,4.8772,4.8837,4.9032,4.8935,4.8935,4.8869,4.8869,4.8935,4.9032,4.9105,4.9299,4.7453,4.7409,4.7386,4.7495,4.7698,4.7698,4.7967,4.8354,4.8377,4.8509,4.8691,4.8727,4.8812,4.8993,4.8993,4.8993,4.8993,4.8993,4.8853,4.8631,4.8853,4.8878,4.8894,4.878,4.885,4.8915,4.864,4.8569,4.8638,4.8937,4.9002,4.9119,4.9485,4.9354,4.9392,4.9211,4.8899,4.8762,4.8672,4.8569,4.8545,4.8545,4.8735,4.895,4.914,4.9283,4.9295,4.9272,4.9449,4.958,4.9484,4.9612,5.0132,5.0263,5.0431,5.0624,5.0696,5.0696,5.0696,5.0696,5.0696,5.066,5.066,5.0554,5.0483,5.0412,5.0306,5.0175,5.0104,5.0033,4.983,4.983,4.9688,4.958,4.9509,4.9509,4.9544,4.9688,4.9795,4.9759,4.9581,4.9605,4.9759,4.9818,4.9842,4.9878,4.9878,4.9818,5.009,4.9923,5.005,4.9966,4.9974,4.9841,4.9528,4.9308,4.9053,4.8986,4.8947,4.8966,4.9014,4.8953,4.8849,4.8753,4.8698,4.8633,4.8706,4.8576,4.8608,4.869,4.8723,4.8633,4.8657,4.887,4.9049,4.7134,4.7186,4.7222,4.7392,4.7685,4.7699,4.7845,4.8159,4.8196,4.8159,4.8328,4.8305,4.8341,4.8437,4.845,4.8414,4.8437,4.8473,4.8476,4.8476,4.8476,4.8644,4.8779,4.8817,4.8726,4.8615,4.8521,4.8368,4.8414,4.846,4.8893,4.8809,4.9004,4.9182,4.8809,4.8657,4.8717,4.852,4.8485,4.8427,4.8403,4.8403,4.8591,4.8921,4.9239,4.9451,4.9451,4.9475,4.9497,4.9509,4.9509,4.989,5.0282,5.0519,5.0519,5.0483,5.0412,5.0377,5.0377,5.0448,5.0448,5.0519,5.0483,5.0341,5.0104,4.9997,4.9866,4.9688,4.9616,4.9544,4.9437,4.946,4.9389,4.9293,4.9293,4.9329,4.9329,4.9329,4.9293,4.9424,4.9281,4.9209,4.9353,4.9424,4.9473,4.9509,4.9509,4.958,4.9854,5.0044,5.0068,5.0197,5.0089,5.0217,4.9987,4.9819,4.9541,4.9311,4.9215,4.9177,4.9139,4.901,4.8913,4.8831,4.8745,4.8713,4.8705,4.8776,4.876,4.8681,4.8689,4.8767,4.876,4.8739,4.8912,4.6891,4.7222,4.7222,4.7222,4.7318,4.7296,4.7355,4.7392,4.7465,4.7612,4.7868,4.7904,4.8086,4.8305,4.84,4.84,4.84,4.8377,4.8377,4.8377,4.8377,4.8509,4.8546,4.8582,4.849,4.8647,4.8739,4.8931,4.9049,4.9321,4.9156,4.9286,4.9369,4.9334,4.9204,4.9298,4.9038,4.8718,4.8777,4.8836,4.8836,4.886,4.8883,4.9047,4.9151,4.927,4.9365,4.9437,4.9509,4.9509,4.9509,4.9544,4.958,4.9616,4.9652,4.9818,4.9818,4.9854,4.9854,4.9783,4.9723,4.9688,4.9783,4.9747,4.9616,4.9604,4.9473,4.9401,4.9329,4.9293,4.9124,4.898,4.8871,4.8704,4.8559,4.8559,4.8559,4.8595,4.8667,4.8812,4.874,4.874,4.892,4.9065,4.9137,4.9209,4.9221,4.9329,4.9532,4.9675,4.9735,4.9926,5.0127,5.0316,5.0481,5.035,5.0193,4.9808,4.9651,4.9541,4.9397,4.9167,4.9038,4.9218,4.9097,4.8966,4.8981,4.8957,4.8942,4.8898,4.8942,4.901,4.8952,4.8926,4.9197,4.6411,4.6559,4.6596,4.6707,4.6854,4.6891,4.7002,4.7186,4.7222,4.7296,4.7428,4.7502,4.7721,4.8013,4.8109,4.8218,4.8364,4.8377,4.8377,4.8377,4.8377,4.8377,4.8377,4.84,4.8377,4.8414,4.8595,4.8776,4.8957,4.9114,4.9173,4.9257,4.9424,4.9329,4.8969,4.8874,4.8681,4.8499,4.8354,4.8354,4.8354,4.8354,4.8354,4.8354,4.8354,4.8318,4.8318,4.8318,4.8282,4.8282,4.8259,4.8318,4.8354,4.8427,4.8717,4.9293,4.9437,4.9473,4.9473,4.9509,4.9509,4.9509,4.9473,4.9401,4.9281,4.9209,4.9029,4.8681,4.8391,4.8245,4.805,4.8123,4.7977,4.7831,4.7794,4.7831,4.7794,4.7794,4.7977,4.8196,4.8341,4.845,4.8618,4.8727,4.8799,4.8848,4.8957,4.9065,4.9209,4.9281,4.9389,4.9616,4.9854,4.9997,5.0211,5.0222,5.0293,5.0042,4.9921,4.9789,4.9846,4.9712,4.9819,5.0031,4.9793,4.9359,4.9119,4.9111,4.9105,4.9167,4.9153,4.9163,4.9163,4.9231,4.9513,4.6002,4.6002,4.6002,4.6188,4.6448,4.6485,4.6633,4.6891,4.6928,4.6987,4.7075,4.7112,4.7318,4.7612,4.7721,4.7831,4.8159,4.8123,4.8086,4.8086,4.8086,4.8123,4.8123,4.8159,4.8086,4.7977,4.7904,4.7868,4.8268,4.8414,4.8582,4.8559,4.8897,4.8789,4.8268,4.8159,4.7685,4.7465,4.7222,4.7222,4.7222,4.7222,4.7222,4.7222,4.7222,4.7318,4.7406,4.7406,4.7406,4.7369,4.7332,4.7296,4.7222,4.7222,4.7808,4.8789,4.9041,4.9078,4.9114,4.9078,4.8969,4.8969,4.9114,4.8957,4.8704,4.845,4.8341,4.7758,4.7502,4.7369,4.7406,4.7259,4.7259,4.7259,4.7259,4.7222,4.7296,4.7332,4.7369,4.7648,4.7904,4.8086,4.8196,4.8509,4.8618,4.8618,4.8667,4.8704,4.8848,4.8871,4.8993,4.9317,4.9496,4.9544,4.9652,4.9723,4.983,4.9843,4.9819,4.9783,5.0067,5.0327,5.041,5.0361,5.0167,4.9758,4.9528,4.9397,4.9662,4.9734,4.9493,4.9528,4.972,4.9803,4.9897,4.6002,4.6002,4.6002,4.6039,4.6077,4.6077,4.6077,4.6151,4.6188,4.6374,4.667,4.6707,4.6891,4.7208,4.7318,4.7296,4.7392,4.7465,4.7479,4.7502,4.7502,4.7502,4.7369,4.7332,4.7502,4.7502,4.7355,4.7502,4.7721,4.7612,4.7516,4.7589,4.7662,4.7442,4.7502,4.7406,4.7318,4.7186,4.7149,4.7149,4.7149,4.7112,4.7112,4.7149,4.7112,4.7075,4.7038,4.7038,4.7075,4.7112,4.7149,4.7186,4.7222,4.7222,4.7222,4.7406,4.7516,4.7626,4.8013,4.8123,4.8159,4.8159,4.8123,4.7831,4.7721,4.7552,4.7442,4.7332,4.7149,4.7075,4.7038,4.7134,4.7186,4.7112,4.7038,4.7038,4.7098,4.6854,4.6891,4.7038,4.7318,4.7575,4.7758,4.8123,4.8437,4.8414,4.8437,4.8473,4.8509,4.8582,4.8654,4.892,4.9101,4.9209,4.9185,4.9221,4.9365,4.9532,4.964,4.9711,4.9997,5.0246,5.0424,5.0339,5.023,5.0287,5.0167,5.0191,5.0407,5.0335,5.0095,5.0263,5.0527,5.0479,5.0298,4.6002,4.6002,4.6002,4.6002,4.6002,4.6002,4.6002,4.6002,4.6002,4.6114,4.6262,4.6262,4.6485,4.6817,4.7075,4.7222,4.7186,4.7186,4.7186,4.7149,4.7149,4.7186,4.7222,4.7222,4.7222,4.7075,4.7002,4.6891,4.7075,4.7222,4.7186,4.7186,4.7149,4.7112,4.6891,4.6854,4.6707,4.6596,4.6522,4.6485,4.6522,4.6522,4.6522,4.6544,4.6559,4.6559,4.6559,4.6522,4.6522,4.6522,4.6522,4.6522,4.6522,4.6522,4.6522,4.6522,4.6522,4.6854,4.7355,4.7428,4.7465,4.7465,4.7465,4.7392,4.7208,4.6965,4.6854,4.6854,4.6633,4.6559,4.6559,4.6522,4.6522,4.6522,4.6721,4.6662,4.664,4.6522,4.6448,4.6596,4.6743,4.7002,4.7318,4.7685,4.8013,4.8232,4.8305,4.84,4.8437,4.8473,4.8509,4.8595,4.8704,4.8776,4.874,4.874,4.8957,4.9101,4.9232,4.9353,4.9688,4.9902,5.0104,5.0317,5.0375,5.047,5.066,5.0672,5.06,5.0624,5.0696,5.0696,5.0696,5.0672,5.0563,4.6002,4.6002,4.6002,4.6002,4.6002,4.6002,4.6002,4.6002,4.6002,4.6002,4.6002,4.6002,4.6188,4.6448,4.6707,4.6817,4.6854,4.6891,4.6891,4.6891,4.6891,4.6854,4.6817,4.6854,4.6854,4.6891,4.6559,4.6485,4.6559,4.667,4.6817,4.6891,4.678,4.6707,4.6522,4.6411,4.6336,4.6114,4.6077,4.6077,4.6077,4.6039,4.6039,4.6039,4.6002,4.6002,4.6002,4.6039,4.6039,4.6039,4.6077,4.6114,4.6077,4.6114,4.6114,4.6114,4.6114,4.6299,4.6743,4.6928,4.7038,4.7002,4.6928,4.6817,4.6817,4.6596,4.6448,4.6448,4.6262,4.6077,4.6002,4.6039,4.6223,4.6289,4.6355,4.6236,4.6177,4.6377,4.6342,4.6262,4.6411,4.6522,4.6817,4.7186,4.7575,4.7977,4.8159,4.8291,4.8328,4.8305,4.8377,4.8414,4.845,4.8523,4.8523,4.8486,4.8654,4.8727,4.8835,4.9016,4.9317,4.9604,4.9783,5.0033,5.0317,5.0554,5.0625,5.066,5.0696,5.0696,5.0696,5.0696,5.0696,5.0696,5.0696,4.6002,4.6002,4.6002,4.6002,4.6002,4.6002,4.6002,4.6002,4.6002,4.6002,4.6002,4.5965,4.5965,4.6039,4.6039,4.6077,4.6077,4.6077,4.6077,4.6077,4.6077,4.6151,4.6188,4.6188,4.6188,4.6188,4.6151,4.6114,4.6077,4.6188,4.6188,4.6114,4.6299,4.6151,4.6077,4.6114,4.6114,4.6002,4.6002,4.6002,4.6002,4.6002,4.6002,4.6002,4.6002,4.6002,4.6002,4.6002,4.6002,4.6002,4.6002,4.6002,4.6002,4.6002,4.6002,4.6002,4.6002,4.6114,4.6299,4.6485,4.6655,4.6522,4.6411,4.6262,4.6262,4.6151,4.6039,4.6114,4.6039,4.6002,4.6002,4.6046,4.6249,4.6402,4.657,4.6679,4.6679,4.6679,4.6586,4.6192,4.6245,4.6592,4.6748,4.715,4.7261,4.7643,4.7758,4.7868,4.805,4.8086,4.8196,4.8232,4.8268,4.8341,4.8377,4.8377,4.84,4.8509,4.8618,4.8763,4.898,4.9196,4.946,4.9747,5.0068,5.0341,5.059,5.0625,5.066,5.066,5.0696,5.0696,5.0696,5.0696,5.0696,4.6002,4.6002,4.6002,4.6002,4.6002,4.6002,4.6002,4.6002,4.6002,4.6002,4.5965,4.5742,4.563,4.5555,4.533,4.5256,4.5256,4.5256,4.5293,4.5368,4.548,4.5592,4.5704,4.5816,4.6002,4.5965,4.5965,4.6002,4.6002,4.5928,4.5965,4.6002,4.5928,4.6002,4.6002,4.6002,4.6002,4.6002,4.6002,4.6002,4.6002,4.6002,4.6002,4.6002,4.6002,4.6002,4.6002,4.6002,4.6002,4.6002,4.6002,4.6002,4.6002,4.6002,4.6002,4.6002,4.6002,4.6002,4.6002,4.6151,4.6225,4.6225,4.6077,4.6024,4.6046,4.6002,4.6002,4.6002,4.6024,4.6068,4.6024,4.6264,4.6533,4.6729,4.6963,4.7138,4.7182,4.7182,4.7051,4.6723,4.687,4.7105,4.7181,4.7213,4.7224,4.7269,4.7386,4.7524,4.7821,4.7976,4.8058,4.8117,4.814,4.8145,4.8182,4.8187,4.8168,4.8278,4.8387,4.8546,4.8691,4.8944,4.9232,4.9496,4.9783,5.0033,5.0306,5.0554,5.0625,5.066,5.066,5.0696,5.0696,5.0696,5.0696,4.5891,4.5965,4.5891,4.5891,4.6002,4.6002,4.6002,4.5965,4.5853,4.5742,4.563,4.533,4.5218,4.5143,4.4993,4.4843,4.488,4.488,4.4843,4.4955,4.5106,4.5218,4.533,4.5443,4.5518,4.5667,4.5667,4.5592,4.5555,4.563,4.5592,4.5592,4.5779,4.5816,4.6002,4.6002,4.6002,4.6002,4.6002,4.6002,4.6002,4.6002,4.6002,4.6002,4.6002,4.6002,4.6002,4.6002,4.6002,4.6002,4.6002,4.6002,4.6002,4.6002,4.6002,4.6002,4.5965,4.5965,4.6002,4.6002,4.6068,4.628,4.6105,4.6111,4.6155,4.6111,4.6002,4.6024,4.6111,4.6183,4.6205,4.6658,4.7094,4.7357,4.7531,4.7684,4.7723,4.7701,4.7531,4.7335,4.7482,4.7417,4.7395,4.7406,4.7519,4.7542,4.767,4.785,4.8052,4.8126,4.8044,4.8007,4.7984,4.8028,4.8012,4.8041,4.807,4.8273,4.8337,4.8314,4.845,4.8727,4.8944,4.9196,4.9484,4.9747,4.9926,5.0068,5.0353,5.066,5.0625,5.059,5.0696,5.0696,5.0696,4.563,4.5928,4.5555,4.563,4.5891,4.5965,4.5965,4.5816,4.5555,4.5218,4.4955,4.4843,4.4805,4.4767,4.4676,4.4617,4.4617,4.4654,4.4654,4.4654,4.473,4.4805,4.4843,4.4918,4.5068,4.488,4.4955,4.5031,4.4955,4.5031,4.4993,4.5159,4.5508,4.5803,4.5971,4.6024,4.6024,4.6046,4.6111,4.6155,4.6199,4.6221,4.6243,4.613,4.6043,4.6006,4.5894,4.5763,4.5763,4.5742,4.5779,4.5779,4.5779,4.5816,4.5816,4.5853,4.5891,4.5928,4.5987,4.5987,4.6217,4.6485,4.6332,4.6267,4.6414,4.6299,4.599,4.603,4.6214,4.6485,4.6778,4.7084,4.752,4.7859,4.799,4.8165,4.8204,4.8204,4.8034,4.7968,4.7728,4.7531,4.7531,4.763,4.7827,4.7931,4.8062,4.8164,4.8198,4.8087,4.7922,4.79,4.784,4.7991,4.8014,4.7999,4.8022,4.8222,4.8322,4.8301,4.8264,4.8414,4.8691,4.8908,4.9124,4.9412,4.9496,4.9544,4.9926,5.0246,5.0448,5.0483,5.059,5.059,5.0448,4.5068,4.5181,4.5068,4.5068,4.5181,4.5218,4.5218,4.5181,4.5068,4.4918,4.4767,4.4541,4.439,4.4352,4.4184,4.405,4.405,4.3974,4.3995,4.4071,4.4277,4.4352,4.4449,4.4659,4.4772,4.4805,4.4805,4.4815,4.4843,4.4798,4.5044,4.5306,4.5643,4.6084,4.649,4.6745,4.7007,4.7007,4.7007,4.7007,4.6985,4.6904,4.6768,4.648,4.6198,4.5955,4.5745,4.5573,4.5422,4.5358,4.5358,4.5336,4.5315,4.5293,4.5256,4.5256,4.5218,4.5352,4.5631,4.5889,4.6342,4.6543,4.6593,4.643,4.6394,4.591,4.5867,4.5991,4.6089,4.6337,4.6668,4.716,4.7606,4.8104,4.8318,4.858,4.8667,4.8667,4.8602,4.858,4.8427,4.8339,4.8296,4.8143,4.8277,4.8206,4.8256,4.7976,4.7953,4.7827,4.7662,4.7662,4.7701,4.7935,4.805,4.8037,4.8064,4.8224,4.8275,4.8262,4.8287,4.8287,4.84,4.8654,4.8835,4.9016,4.9101,4.9245,4.9509,4.9818,4.989,4.9997,5.0033,4.9961,4.9854,4.5142,4.5235,4.4934,4.4833,4.4829,4.4793,4.473,4.4617,4.4579,4.4541,4.4374,4.4109,4.3974,4.3898,4.3767,4.3615,4.3615,4.3615,4.3615,4.3653,4.3843,4.3995,4.4129,4.4428,4.4554,4.4685,4.4812,4.4879,4.4866,4.4879,4.5103,4.5518,4.5997,4.6368,4.6687,4.6922,4.6901,4.6819,4.6819,4.6841,4.6879,4.6862,4.6807,4.6566,4.6279,4.6031,4.5754,4.5448,4.5171,4.5065,4.5001,4.4937,4.4852,4.4789,4.4826,4.4805,4.5018,4.5337,4.5971,4.6269,4.6624,4.6819,4.6737,4.657,4.6376,4.6095,4.5865,4.5865,4.5894,4.6176,4.6605,4.7137,4.7677,4.8139,4.8383,4.8605,4.8785,4.8763,4.8763,4.8785,4.8806,4.8806,4.8828,4.8842,4.8728,4.8575,4.8422,4.8121,4.7864,4.7859,4.7837,4.7898,4.7963,4.8266,4.8339,4.8185,4.8233,4.8205,4.8216,4.8186,4.824,4.8227,4.8333,4.8364,4.8546,4.8691,4.8799,4.898,4.9065,4.9101,4.9101,4.9245,4.9437,4.9437,4.9401,4.5802,4.6011,4.5279,4.4897,4.489,4.4816,4.4546,4.4184,4.4184,4.3974,4.3653,4.3691,4.3691,4.3653,4.3615,4.3615,4.3615,4.3615,4.3677,4.3698,4.3836,4.3815,4.3981,4.4268,4.4509,4.458,4.4725,4.4943,4.4997,4.5094,4.5331,4.5616,4.6072,4.6453,4.6587,4.6556,4.6567,4.6706,4.6784,4.6805,4.6844,4.662,4.6645,4.6464,4.628,4.6156,4.5955,4.5849,4.5616,4.5485,4.5375,4.5159,4.4947,4.4793,4.4831,4.4921,4.5244,4.5867,4.6357,4.6529,4.6706,4.6713,4.6469,4.6541,4.652,4.6236,4.5965,4.5983,4.6049,4.6227,4.651,4.7078,4.7666,4.7927,4.8187,4.841,4.8648,4.8688,4.8688,4.8648,4.8648,4.8609,4.8569,4.8609,4.8569,4.8482,4.833,4.8448,4.8314,4.8536,4.8514,4.8536,4.8623,4.8733,4.8702,4.8496,4.8327,4.8305,4.8082,4.8035,4.8111,4.8174,4.8172,4.8205,4.8264,4.8305,4.8232,4.8328,4.846,4.8496,4.8766,4.8845,4.9135,4.9209,4.9185,4.5237,4.5334,4.5071,4.4951,4.4907,4.4607,4.4172,4.3788,4.3767,4.3691,4.3615,4.3615,4.3615,4.3615,4.3615,4.3615,4.3635,4.3656,4.3863,4.3967,4.4112,4.4319,4.4526,4.4691,4.4795,4.4836,4.496,4.5105,4.5144,4.5271,4.5517,4.5719,4.6132,4.6378,4.6419,4.6377,4.6632,4.6886,4.6923,4.6923,4.6963,4.6963,4.6865,4.6664,4.6374,4.6211,4.5951,4.5681,4.5391,4.5266,4.5185,4.5,4.5,4.4937,4.4958,4.5,4.5355,4.5814,4.6043,4.6335,4.6524,4.6548,4.6337,4.6338,4.6316,4.6206,4.5934,4.6034,4.6055,4.6195,4.6398,4.6896,4.7352,4.7613,4.7813,4.7933,4.8172,4.8211,4.8211,4.8211,4.8211,4.8211,4.8172,4.8132,4.8052,4.8092,4.8211,4.837,4.8591,4.8749,4.8907,4.8907,4.8907,4.8907,4.8907,4.8706,4.8527,4.8359,4.8157,4.8018,4.81,4.8134,4.8007,4.7967,4.7993,4.7798,4.7516,4.7775,4.8282,4.8543,4.8767,4.8772,4.8806,4.8938,4.9,4.5519,4.5498,4.5333,4.5167,4.496,4.4691,4.4319,4.3905,4.3698,4.3615,4.3615,4.3615,4.3615,4.3615,4.3615,4.3698,4.3905,4.3946,4.4153,4.4505,4.4528,4.4712,4.494,4.5148,4.525,4.5291,4.5436,4.5643,4.5561,4.5726,4.5954,4.5975,4.6224,4.6265,4.6306,4.6345,4.6527,4.6788,4.701,4.7092,4.7132,4.7132,4.6912,4.679,4.6417,4.6154,4.5952,4.5581,4.5457,4.5291,4.5271,4.5147,4.5064,4.4999,4.5186,4.5267,4.5495,4.5806,4.6055,4.6222,4.6306,4.6307,4.6307,4.6306,4.6264,4.6199,4.6034,4.5972,4.6013,4.6116,4.6361,4.6666,4.697,4.7293,4.7373,4.7453,4.7533,4.7653,4.7653,4.7653,4.7693,4.7693,4.7653,4.7613,4.7653,4.7752,4.7853,4.7933,4.8251,4.863,4.8789,4.8907,4.8907,4.8907,4.8907,4.8907,4.875,4.8549,4.832,4.8229,4.8245,4.8164,4.8013,4.7873,4.7738,4.7589,4.7507,4.788,4.8328,4.8553,4.8778,4.8873,4.8891,4.8942,4.8946,4.6286,4.6245,4.5912,4.5478,4.5084,4.5043,4.4795,4.4319,4.3905,4.3635,4.3635,4.3615,4.3615,4.3635,4.3698,4.3849,4.3999,4.4143,4.4374,4.4904,4.4767,4.4831,4.5076,4.5379,4.5325,4.5671,4.5915,4.5917,4.6203,4.6224,4.6183,4.6307,4.6185,4.6145,4.6145,4.6023,4.6064,4.6104,4.6226,4.6266,4.6388,4.6347,4.6307,4.6347,4.6306,4.6265,4.6265,4.6203,4.6161,4.5871,4.5685,4.5519,4.5354,4.525,4.5457,4.5602,4.5788,4.5954,4.6121,4.6265,4.6286,4.6307,4.6307,4.6307,4.6265,4.6245,4.6121,4.6058,4.6099,4.6099,4.6302,4.6426,4.669,4.6832,4.6912,4.6972,4.7092,4.7132,4.7132,4.7132,4.7132,4.7173,4.7173,4.7132,4.7052,4.7312,4.7533,4.7573,4.7773,4.8233,4.8511,4.871,4.8868,4.8868,4.8907,4.8907,4.8907,4.875,4.8549,4.8518,4.8581,4.8339,4.8028,4.7838,4.7653,4.7722,4.7797,4.8088,4.8342,4.8604,4.8807,4.8981,4.905,4.9101,4.9171,4.6307,4.6286,4.6203,4.5933,4.554,4.5519,4.525,4.4795,4.4339,4.3967,4.3677,4.3635,4.3597,4.3621,4.3931,4.4063,4.3915,4.4224,4.4394,4.46,4.4642,4.4844,4.4947,4.5169,4.521,4.5332,4.5617,4.5982,4.6104,4.6185,4.6266,4.6226,4.6023,4.582,4.5779,4.5617,4.5454,4.5495,4.5495,4.5739,4.6104,4.6266,4.6307,4.6266,4.6226,4.6226,4.6226,4.6246,4.6245,4.6162,4.6141,4.6079,4.5996,4.5976,4.6017,4.6121,4.606,4.6142,4.6224,4.6307,4.6307,4.6266,4.6266,4.6307,4.6307,4.6307,4.6265,4.6203,4.6183,4.6162,4.6183,4.6265,4.6347,4.6428,4.6509,4.659,4.6649,4.6649,4.6649,4.6649,4.667,4.667,4.669,4.6649,4.6609,4.6751,4.7033,4.7153,4.7274,4.7595,4.7994,4.8273,4.8789,4.8868,4.8868,4.8907,4.8907,4.8907,4.8711,4.8768,4.8846,4.8481,4.8053,4.774,4.7542,4.7711,4.7885,4.7967,4.8243,4.863,4.8901,4.9077,4.9343,4.9477,4.9594,4.6307,4.6307,4.6307,4.6162,4.6016,4.5975,4.5726,4.5312,4.5022,4.4533,4.3963,4.3913,4.379,4.3718,4.4091,4.4205,4.3973,4.4217,4.4522,4.4623,4.4602,4.4804,4.4944,4.4923,4.5025,4.5127,4.525,4.5495,4.5779,4.5698,4.5657,4.5698,4.5495,4.5372,4.5332,4.5127,4.4984,4.5025,4.4964,4.525,4.5739,4.5739,4.5739,4.5739,4.5739,4.582,4.6023,4.6064,4.6145,4.6145,4.6084,4.6003,4.5819,4.5698,4.5779,4.5921,4.6003,4.6104,4.6226,4.6266,4.6226,4.6226,4.6064,4.5982,4.5901,4.5901,4.5982,4.5961,4.6204,4.6245,4.6245,4.6307,4.6307,4.6347,4.6388,4.6428,4.6468,4.6468,4.6468,4.6468,4.6468,4.6468,4.6448,4.6448,4.6428,4.6428,4.667,4.6711,4.6832,4.7033,4.7394,4.7794,4.8233,4.8551,4.8591,4.871,4.8907,4.8907,4.8789,4.8824,4.8755,4.8444,4.8094,4.7842,4.7716,4.7871,4.7986,4.8129,4.8371,4.8779,4.9023,4.9223,4.9468,4.9669,4.9705,4.6226,4.6307,4.6266,4.6226,4.6185,4.6145,4.5878,4.5588,4.5525,4.5039,4.4333,4.4259,4.4017,4.3922,4.4071,4.4219,4.4301,4.4321,4.4602,4.4619,4.4658,4.4576,4.4596,4.4759,4.4759,4.48,4.4923,4.5005,4.5168,4.5168,4.5168,4.5005,4.4964,4.4923,4.4923,4.4841,4.4718,4.4677,4.4677,4.4759,4.4882,4.4964,4.5086,4.5086,4.5066,4.5209,4.5495,4.5657,4.582,4.582,4.5739,4.5657,4.5535,4.5372,4.5413,4.5535,4.5596,4.5739,4.5901,4.5942,4.6023,4.5982,4.5759,4.5596,4.5495,4.5535,4.5617,4.5739,4.5982,4.6145,4.6145,4.6185,4.6185,4.6266,4.6266,4.6266,4.6266,4.6266,4.6307,4.6307,4.6307,4.6307,4.6307,4.6307,4.6307,4.6307,4.6307,4.6307,4.6388,4.663,4.6912,4.7234,4.7595,4.7874,4.8153,4.8331,4.8529,4.845,4.837,4.8569,4.8644,4.8186,4.7974,4.8026,4.7979,4.7957,4.8144,4.8331,4.8632,4.882,4.8995,4.9109,4.9209,4.9411,4.955,4.5982,4.6266,4.5942,4.5841,4.5739,4.5413,4.5189,4.5068,4.4785,4.4502,4.4422,4.4341,4.4099,4.3716,4.414,4.4261,4.4017,4.4175,4.4047,4.398,4.4123,4.4041,4.4041,4.4205,4.4247,4.437,4.4534,4.4698,4.4718,4.4841,4.4964,4.4882,4.4575,4.4493,4.4452,4.4329,4.4082,4.4123,4.4123,4.4123,4.4288,4.4513,4.4964,4.5025,4.5025,4.5046,4.5127,4.5127,4.5168,4.5168,4.5209,4.5168,4.5086,4.4964,4.5005,4.5086,4.5168,4.525,4.5413,4.5454,4.5495,4.5454,4.5209,4.5127,4.5086,4.5046,4.5086,4.5086,4.5291,4.5495,4.5576,4.5739,4.5779,4.6023,4.6145,4.6185,4.6226,4.6226,4.6226,4.6266,4.6307,4.6307,4.6307,4.6307,4.6307,4.6307,4.6307,4.6307,4.6307,4.6388,4.6489,4.6751,4.7033,4.7314,4.7653,4.7813,4.7973,4.7933,4.7933,4.8092,4.8092,4.7871,4.7743,4.7813,4.7856,4.7838,4.8086,4.8342,4.8543,4.8706,4.8846,4.8965,4.9026,4.9105,4.9263]},{"header":{"parameterUnit":"m.s-1","parameterCategory":1,"la1":31.0,"la2":29.5877,"lo1":-88.7671,"lo2":-86.6584,"dy":0.0162,"dx":0.0185,"nx":115,"ny":88,"refTime":"2025-01-14T00:00:00:Z","depth":0,"parameterNumber":3,"parameterNumberName":"V-component_of_WINDS"},"data":[0.0,0.0,0.0,0.0,0.0,0.0,0.0,0.0,0.0,0.0,0.0,0.0,0.0,0.0,0.0,0.0,0.0,0.0,0.0,0.0,0.0,0.0,0.0,0.0,0.0,0.0,0.0,0.0,0.0,0.0,0.0,0.0,0.0,0.0,0.0,0.0,0.0,0.0,0.0,0.0,0.0,0.0,0.0,0.0,0.0,0.0,0.0,0.0,0.0,0.0,0.0,0.0,0.0,0.0,0.0,0.0,0.0,0.0,0.0,0.0,0.0,0.0,0.0,0.0,0.0,0.0,0.0,0.0,0.0,0.0,0.0,0.0,0.0,0.0,0.0,0.0,0.0,0.0,0.0,0.0,0.0,0.0,0.0,0.0,0.0,0.0,0.0,0.0,0.0,0.0,0.0,0.0,0.0,0.0,0.0,0.0,0.0,0.0,0.0,0.0,0.0,0.0,0.0,0.0,0.0,0.0,0.0,0.0,0.0,0.0,0.0,0.0,0.0,0.0,0.0,0.0,0.0,0.0,0.0,0.0,0.0,0.0,0.0,0.0,0.0,0.0,0.0,0.0,0.0,0.0,0.0,0.0,0.0,0.0,0.0,0.0,0.0,0.0,0.0,0.0,0.0,0.0,0.0,0.0,0.0,0.0,0.0,0.0,0.0,0.0,0.0,0.0,0.0,0.0,0.0,0.0,0.0,0.0,0.0,0.0,0.0,0.0,0.0,0.0,0.0,0.0,0.0,0.0,0.0,0.0,0.0,0.0,0.0,0.0,0.0,0.0,0.0,0.0,0.0,0.0,0.0,0.0,0.0,0.0,0.0,0.0,0.0,0.0,0.0,0.0,0.0,0.0,0.0,0.0,0.0,0.0,0.0,0.0,0.0,0.0,0.0,0.0,0.0,0.0,0.0,0.0,0.0,0.0,0.0,0.0,0.0,0.0,0.0,0.0,0.0,0.0,0.0,0.0,0.0,0.0,0.0,0.0,0.0,0.0,0.0,0.0,0.0,0.0,0.0,0.0,0.0,0.0,0.0,0.0,0.0,0.0,0.0,0.0,0.0,0.0,0.0,0.0,0.0,0.0,0.0,0.0,0.0,0.0,0.0,0.0,0.0,0.0,0.0,0.0,0.0,0.0,0.0,0.0,0.0,0.0,0.0,0.0,0.0,0.0,0.0,0.0,0.0,0.0,0.0,0.0,0.0,0.0,0.0,0.0,0.0,0.0,0.0,0.0,0.0,0.0,0.0,0.0,0.0,0.0,0.0,0.0,0.0,0.0,0.0,0.0,0.0,0.0,0.0,0.0,0.0,0.0,0.0,0.0,0.0,0.0,0.0,0.0,0.0,0.0,0.0,0.0,0.0,0.0,0.0,0.0,0.0,0.0,0.0,0.0,0.0,0.0,0.0,0.0,0.0,0.0,0.0,0.0,0.0,0.0,0.0,0.0,0.0,0.0,0.0,0.0,0.0,0.0,0.0,0.0,0.0,0.0,0.0,0.0,0.0,0.0,0.0,0.0,0.0,0.0,0.0,0.0,0.0,0.0,0.0,0.0,0.0,0.0,0.0,0.0,0.0,0.0,0.0,0.0,0.0,0.0,0.0,0.0,0.0,0.0,0.0,0.0,0.0,0.0,0.0,0.0,0.0,0.0,0.0,0.0,0.0,0.0,0.0,0.0,0.0,0.0,0.0,0.0,0.0,0.0,0.0,0.0,0.0,0.0,0.0,0.0,0.0,0.0,0.0,0.0,0.0,0.0,0.0,0.0,0.0,0.0,0.0,0.0,0.0,0.0,0.0,0.0,0.0,0.0,0.0,0.0,0.0,0.0,0.0,0.0,0.0,0.0,0.0,0.0,0.0,0.0,0.0,0.0,0.0,0.0,0.0,0.0,0.0,0.0,0.0,0.0,0.0,0.0,0.0,0.0,0.0,0.0,0.0,0.0,0.0,0.0,0.0,0.0,0.0,0.0,0.0,0.0,0.0,0.0,0.0,0.0,0.0,0.0,0.0,0.0,0.0,0.0,0.0,0.0,0.0,0.0,0.0,0.0,0.0,0.0,0.0,0.0,0.0,0.0,0.0,0.0,0.0,0.0,0.0,0.0,0.0,0.0,0.0,0.0,0.0,0.0,0.0,0.0,0.0,0.0,0.0,0.0,0.0,0.0,0.0,0.0,0.0,0.0,0.0,0.0,0.0,0.0,0.0,0.0,0.0,0.0,0.0,0.0,0.0,0.0,0.0,0.0,0.0,0.0,0.0,0.0,0.0,0.0,0.0,0.0,0.0,0.0,0.0,0.0,0.0,0.0,0.0,0.0,0.0,0.0,0.0,0.0,0.0,0.0,0.0,0.0,0.0,0.0,0.0,0.0,0.0,0.0,0.0,0.0,0.0,0.0,0.0,0.0,0.0,0.0,0.0,0.0,0.0,0.0,0.0,0.0,0.0,0.0,0.0,0.0,0.0,0.0,0.0,0.0,0.0,0.0,0.0,0.0,0.0,0.0,0.0,0.0,0.0,0.0,0.0,0.0,0.0,0.0,0.0,0.0,0.0,0.0,0.0,0.0,0.0,0.0,0.0,0.0,0.0,0.0,0.0,0.0,0.0,0.0,0.0,0.0,0.0,0.0,0.0,0.0,0.0,0.0,0.0,0.0,0.0,0.0,0.0,0.0,0.0,0.0,0.0,0.0,0.0,0.0,0.0,0.0,0.0,0.0,0.0,0.0,0.0,0.0,0.0,0.0,0.0,0.0,0.0,0.0,0.0,0.0,0.0,0.0,0.0,0.0,0.0,0.0,0.0,0.0,0.0,0.0,0.0,0.0,0.0,0.0,0.0,0.0,0.0,0.0,0.0,0.0,0.0,0.0,0.0,0.0,0.0,0.0,0.0,0.0,0.0,0.0,0.0,0.0,0.0,0.0,0.0,0.0,0.0,0.0,0.0,0.0,0.0,0.0,0.0,0.0,0.0,0.0,0.0,0.0,0.0,0.0,0.0,0.0,0.0,0.0,0.0,0.0,0.0,0.0,0.0,0.0,0.0,0.0,0.0,0.0,0.0,0.0,0.0,0.0,0.0,0.0,0.0,0.0,0.0,0.0,0.0,0.0,0.0,0.0,0.0,0.0,0.0,0.0,0.0,0.0,0.0,0.0,0.0,0.0,0.0,0.0,0.0,0.0,0.0,0.0,0.0,0.0,0.0,0.0,0.0,0.0,0.0,0.0,0.0,0.0,0.0,0.0,0.0,0.0,0.0,0.0,0.0,0.0,0.0,0.0,0.0,0.0,0.0,0.0,0.0,0.0,0.0,0.0,0.0,0.0,0.0,0.0,0.0,0.0,0.0,0.0,0.0,0.0,0.0,0.0,0.0,0.0,0.0,0.0,0.0,0.0,0.0,0.0,0.0,0.0,0.0,0.0,0.0,0.0,0.0,0.0,0.0,0.0,0.0,0.0,0.0,0.0,0.0,0.0,0.0,0.0,0.0,0.0,0.0,0.0,0.0,0.0,0.0,0.0,0.0,0.0,0.0,0.0,0.0,0.0,0.0,0.0,0.0,0.0,0.0,0.0,0.0,0.0,0.0,0.0,0.0,0.0,0.0,0.0,0.0,0.0,0.0,0.0,0.0,0.0,0.0,0.0,0.0,0.0,0.0,0.0,0.0,0.0,0.0,0.0,0.0,0.0,0.0,0.0,0.0,0.0,0.0,0.0,0.0,0.0,0.0,0.0,0.0,0.0,0.0,0.0,0.0,0.0,0.0,0.0,0.0,0.0,0.0,0.0,0.0,0.0,0.0,0.0,0.0,0.0,0.0,0.0,0.0,0.0,0.0,0.0,0.0,0.0,0.0,0.0,0.0,0.0,0.0,0.0,0.0,0.0,0.0,0.0,0.0,0.0,0.0,0.0,0.0,0.0,0.0,0.0,0.0,0.0,0.0,0.0,0.0,0.0,0.0,0.0,0.0,0.0,0.0,0.0,0.0,0.0,0.0,0.0,0.0,0.0,0.0,0.0,0.0,0.0,0.0,0.0,0.0,0.0,0.0,0.0,0.0,0.0,0.0,0.0,0.0,0.0,0.0,0.0,0.0,0.0,0.0,0.0,0.0,0.0,0.0,0.0,0.0,0.0,0.0,0.0,0.0,0.0,0.0,0.0,0.0,0.0,0.0,0.0,0.0,0.0,0.0,0.0,0.0,0.0,0.0,0.0,0.0,0.0,0.0,0.0,0.0,0.0,0.0,0.0,0.0,0.0,0.0,0.0,0.0,0.0,0.0,0.0,0.0,0.0,0.8785,0.0,0.0,0.0,0.0,0.0,0.0,0.0,0.0,0.0,0.0,0.0,0.0,0.0,0.0,0.0,0.0,0.0,0.0,0.0,0.0,0.0,0.0,0.0,0.0,0.0,0.0,0.0,0.0,0.0,0.0,0.0,0.0,0.0,0.0,0.0,0.0,0.0,0.0,0.0,0.0,0.0,0.0,0.0,0.0,0.0,0.0,0.0,0.0,0.0,0.0,0.0,0.0,0.0,0.0,0.0,0.0,0.0,0.0,0.0,0.0,0.0,0.0,0.0,0.0,0.0,0.0,0.0,0.0,0.0,0.0,0.0,0.0,0.0,0.0,0.0,0.0,0.0,0.0,0.0,0.0,0.0,0.0,0.0,0.0,0.0,0.0,0.0,0.0,0.0,0.0,0.0,0.0,0.0,0.0,0.0,0.0,0.0,0.0,0.0,0.0,0.0,0.0,0.0,0.0,0.0,0.0,0.0,0.0,0.0,0.0,0.8408,0.847,0.8633,0.8852,0.9118,0.0,0.0,0.0,0.0,0.0,0.0,0.0,0.0,0.0,0.0,0.0,0.0,0.0,0.0,0.0,0.0,0.0,0.0,0.0,0.0,0.0,0.0,0.0,0.0,0.0,0.0,0.0,0.0,0.0,0.0,0.0,0.0,0.0,0.0,0.0,0.0,0.0,0.0,0.0,0.0,0.0,0.0,0.0,0.0,0.0,0.0,0.0,0.0,0.0,0.0,0.0,0.0,0.0,0.0,0.0,0.0,0.0,0.0,0.0,0.0,0.0,0.0,0.0,0.0,0.0,0.0,0.0,0.0,0.0,0.0,0.0,0.0,0.0,0.0,0.0,0.0,0.0,0.0,0.0,0.0,0.0,0.0,0.0,0.0,0.0,0.0,0.0,0.0,0.0,0.0,0.0,0.0,0.0,0.0,0.0,0.0,0.0,0.0,0.0,0.0,0.0,0.0,0.0,0.0,0.0,0.0,0.0,0.0,0.0,0.0,0.0,0.0,0.9191,0.9425,0.9644,0.0,0.0,0.0,0.0,0.0,0.0,0.0,0.0,0.0,0.0,0.0,0.0,0.0,0.0,0.0,0.0,0.0,0.0,0.0,0.0,0.0,0.0,0.0,0.0,0.0,0.0,0.0,0.0,0.0,0.0,0.0,0.0,0.0,0.0,0.0,0.0,0.0,0.0,0.0,0.0,0.0,0.0,0.0,0.0,0.0,0.0,0.0,0.0,0.0,0.0,0.0,0.0,0.0,0.0,0.0,0.0,0.0,0.0,0.0,0.0,0.0,0.0,0.0,0.0,0.0,0.0,0.0,0.0,0.0,0.0,0.0,0.0,0.0,0.0,0.0,0.0,0.0,0.0,0.0,0.0,0.0,0.0,0.0,0.0,0.0,0.0,0.0,0.0,0.0,0.0,0.0,0.0,0.0,0.0,0.0,0.0,0.0,0.0,0.0,0.0,0.0,0.0,0.0,0.0,0.0,0.0,0.0,0.0,0.0,0.0,0.9507,0.9866,1.0124,0.0,1.0642,0.0,0.0,0.0,0.0,0.0,0.0,0.0,0.0,0.0,0.0,0.0,0.0,0.0,0.0,0.0,0.0,0.0,0.0,0.0,0.0,0.0,0.0,0.0,0.0,0.0,0.0,0.0,0.0,0.0,0.0,0.0,0.0,0.0,0.0,0.0,0.0,0.0,0.0,0.0,0.0,0.0,0.0,0.0,0.0,0.0,0.0,0.0,0.0,0.0,0.0,0.0,0.0,0.0,0.0,0.0,0.0,0.0,0.0,0.0,0.0,0.0,0.0,0.0,0.0,0.0,0.0,0.0,0.0,0.0,0.0,0.0,0.0,0.0,0.0,0.0,0.0,0.0,0.0,0.0,0.0,0.0,0.0,0.0,0.0,0.0,0.0,0.0,0.0,0.0,0.0,0.0,0.0,0.0,0.0,0.0,0.0,0.0,0.0,0.0,0.0,0.0,0.0,0.0,0.0,0.0,0.0,0.0,0.0,0.0,0.0,0.9924,1.0409,1.056,1.0693,0.0,0.0,0.0,0.0,0.0,0.0,0.0,0.0,0.0,0.0,0.0,0.0,0.0,0.0,0.0,0.0,0.0,0.0,0.0,0.0,0.0,0.0,0.0,0.0,0.0,0.0,0.0,0.0,0.0,0.0,0.0,0.0,0.0,0.0,0.0,0.0,0.0,0.0,0.0,0.0,0.0,0.0,0.0,0.0,0.0,0.0,0.0,0.0,0.0,0.0,0.0,0.0,0.0,0.0,0.0,0.0,0.0,0.0,0.0,0.0,0.0,0.0,0.0,0.0,0.0,0.0,0.0,0.0,0.0,0.0,0.0,0.0,0.0,0.0,0.0,0.0,0.0,0.0,0.0,0.0,0.0,0.0,0.0,0.0,0.0,0.0,0.0,0.0,0.0,0.0,0.0,0.0,0.0,0.0,0.0,0.0,0.0,0.0,0.0,0.0,0.0,0.0,0.0,0.0,0.0,0.0,0.0,0.0,0.0,0.0,1.0209,1.0498,1.1143,1.1062,1.1041,1.1167,0.0,0.0,0.0,0.0,0.0,0.0,0.0,0.0,0.0,0.0,0.0,0.0,0.0,0.0,0.0,0.0,0.0,0.0,0.0,0.0,0.0,0.0,0.0,0.0,0.0,0.0,0.0,0.0,0.0,0.0,0.0,0.0,0.0,0.0,0.0,0.0,0.0,0.0,0.0,0.0,0.0,0.0,0.0,0.0,0.0,0.0,0.0,0.0,0.0,0.0,0.0,0.0,0.0,0.0,0.0,0.0,0.0,0.0,0.0,0.0,0.0,0.0,0.0,0.0,0.0,0.0,0.0,0.0,0.0,0.0,0.0,0.0,0.0,0.0,0.0,0.0,0.0,0.0,0.0,0.0,0.0,0.0,0.0,0.0,0.0,0.0,0.0,0.0,0.0,0.0,0.0,0.0,0.0,0.0,0.0,0.0,0.0,0.0,0.0,0.0,0.0,0.0,0.0,0.0,0.0,0.0,0.0,0.0,0.0,1.0805,1.1361,1.2366,1.1799,1.1595,0.0,0.0,0.0,0.0,0.0,0.0,0.0,0.0,0.0,0.0,0.0,0.0,0.0,0.0,0.0,0.0,0.0,0.0,0.0,0.0,0.0,0.0,0.0,0.0,0.0,0.0,0.0,0.0,0.0,0.0,0.0,0.0,0.0,0.0,0.0,0.0,0.0,0.0,0.0,0.0,0.0,0.0,0.0,0.0,0.0,0.0,0.0,0.0,0.0,0.0,0.0,0.0,0.0,0.0,0.0,0.0,0.0,0.0,0.0,0.0,0.0,0.0,0.0,0.0,0.0,0.0,0.0,0.0,0.0,0.0,0.0,0.0,0.0,0.0,0.0,0.0,0.0,0.0,0.0,0.0,0.0,0.0,0.0,0.0,0.0,0.0,0.0,0.0,0.0,0.0,0.0,0.0,0.0,0.0,0.0,0.0,0.0,0.0,0.0,0.0,0.0,0.0,0.0,0.0,0.0,0.0,0.0,0.0,0.0,1.1008,1.1695,1.2273,1.2698,1.2111,1.1844,0.0,0.0,0.0,0.0,0.0,0.0,0.0,0.0,0.0,0.0,0.0,0.0,0.0,0.0,0.0,0.0,0.0,0.0,0.0,0.0,0.0,0.0,0.0,0.0,0.0,0.0,0.0,0.0,0.0,0.0,0.0,0.0,0.0,0.0,0.0,0.0,0.0,0.0,0.0,0.0,0.0,0.0,0.0,0.0,0.0,0.0,0.0,0.0,0.0,0.0,0.0,0.0,0.0,0.0,0.0,0.0,0.0,0.0,0.0,0.0,0.0,0.0,0.0,0.0,0.0,0.0,0.0,0.0,0.0,0.0,0.0,0.0,0.0,0.0,0.0,0.0,0.0,0.0,0.0,0.0,0.0,0.0,0.0,0.0,0.0,0.0,0.0,0.0,0.0,0.0,0.0,0.0,0.0,0.0,0.0,0.0,0.0,0.0,0.0,0.0,0.0,0.0,0.0,0.0,0.0,0.0,0.0,0.0,0.0,1.1501,0.0,1.2774,0.0,1.2278,1.1974,0.0,0.0,0.0,0.0,0.0,0.0,0.0,0.0,0.0,0.0,0.0,0.0,0.0,0.0,0.0,0.0,0.0,0.0,0.0,0.0,0.0,0.0,0.0,0.0,0.0,0.0,0.0,0.0,0.0,0.0,0.0,0.0,0.0,0.0,0.0,0.0,0.0,0.0,0.0,0.0,0.0,0.0,0.0,0.0,0.0,0.0,0.0,0.0,0.0,0.0,0.0,0.0,0.0,0.0,0.0,0.0,0.0,0.0,0.0,0.0,0.0,0.0,0.0,0.0,0.0,0.0,0.0,0.0,0.0,0.0,0.0,0.0,0.0,0.0,0.0,0.0,0.0,0.0,0.0,0.0,0.0,0.0,0.0,0.0,0.0,0.0,0.0,0.0,0.0,0.0,0.0,0.0,0.0,0.0,0.0,0.0,0.0,0.0,0.0,0.0,0.0,0.0,0.0,0.0,0.0,0.0,0.0,0.0,1.1249,1.2084,1.2544,1.2912,1.3085,1.2363,1.2014,0.0,0.0,0.0,0.0,0.0,0.0,0.0,0.0,0.0,0.0,0.0,0.0,0.0,0.0,0.0,0.0,0.0,0.0,0.0,0.0,0.0,0.0,0.0,0.0,0.0,0.0,0.0,0.0,0.0,0.0,0.0,0.0,0.0,0.0,0.0,0.0,0.0,0.0,0.0,0.0,0.0,0.0,0.0,0.0,0.0,0.0,0.0,0.0,0.0,0.0,0.0,0.0,0.0,0.0,0.0,0.0,0.0,0.0,0.0,0.0,0.0,0.0,0.0,0.0,0.0,0.0,0.0,0.0,0.0,0.0,0.0,0.0,0.0,0.0,0.0,0.0,0.0,0.0,0.0,0.0,0.0,0.0,0.0,0.0,0.0,0.0,0.0,0.0,0.0,0.0,0.0,0.0,0.0,0.0,0.0,0.0,0.0,0.0,0.0,0.0,0.0,0.0,0.0,0.0,0.0,0.0,0.0,0.0,0.0,1.2664,1.3442,1.3977,1.4098,1.3347,1.2847,0.0,0.0,0.0,0.0,0.0,0.0,0.0,0.0,0.0,0.0,0.0,0.0,0.0,0.0,0.0,0.0,0.0,0.0,0.0,0.0,0.0,0.0,0.0,0.0,0.0,0.0,0.0,0.0,0.0,0.0,0.0,0.0,0.0,0.0,0.0,0.0,0.0,0.0,0.0,0.0,0.0,0.0,0.0,0.0,0.0,0.0,0.0,0.0,0.0,0.0,0.0,0.0,0.0,0.0,0.0,0.0,0.0,0.0,0.0,0.0,0.0,0.0,0.0,0.0,0.0,0.0,0.0,0.0,0.0,0.0,0.0,0.0,0.0,0.0,0.0,0.0,0.0,0.0,0.0,0.0,0.0,0.0,0.0,0.0,0.0,0.0,0.0,0.0,0.0,0.0,0.0,0.0,0.0,0.0,0.0,0.0,0.0,0.0,0.0,0.0,0.0,0.0,0.0,0.0,0.0,0.0,0.0,0.0,0.0,1.4221,1.4657,1.5,1.528,1.4264,1.3673,1.3528,0.0,0.0,0.0,0.0,0.0,0.0,0.0,0.0,0.0,0.0,0.0,0.0,0.0,0.0,0.0,0.0,0.0,0.0,0.0,0.0,0.0,0.0,0.0,0.0,0.0,0.0,0.0,0.0,0.0,0.0,0.0,0.0,0.0,0.0,0.0,0.0,0.0,0.0,0.0,0.0,0.0,0.0,0.0,0.0,0.0,0.0,0.0,0.0,0.0,0.0,0.0,0.0,0.0,0.0,0.0,0.0,0.0,0.0,0.0,0.0,0.0,0.0,0.0,0.0,0.0,0.0,0.0,0.0,0.0,0.0,0.0,0.0,0.0,0.0,0.0,0.0,0.0,0.0,0.0,0.0,0.0,0.0,0.0,0.0,0.0,0.0,0.0,0.0,0.0,0.0,0.0,0.0,0.0,0.0,0.0,0.0,0.0,0.0,0.0,0.0,0.0,0.0,0.0,0.0,0.0,0.0,0.0,0.0,1.6582,1.6223,1.6208,1.6541,1.5247,1.4541,0.0,0.0,0.0,0.0,0.0,0.0,0.0,0.0,0.0,0.0,0.0,0.0,0.0,0.0,0.0,0.0,0.0,0.0,0.0,0.0,0.0,0.0,0.0,0.0,0.0,0.0,0.0,0.0,0.0,0.0,0.0,0.0,0.0,0.0,0.0,0.0,0.0,0.0,0.0,0.0,0.0,0.0,0.0,0.0,0.0,0.0,0.0,0.0,0.0,0.0,0.0,0.0,0.0,0.0,0.0,0.0,0.0,0.0,0.0,0.0,0.0,0.0,0.0,0.0,0.0,0.0,0.0,0.0,0.0,0.0,0.0,0.0,0.0,0.0,0.0,0.0,0.0,0.0,0.0,0.0,0.0,0.0,0.0,0.0,0.0,0.0,0.0,0.0,0.0,0.0,0.0,0.0,0.0,0.0,0.0,0.0,0.0,0.0,0.0,0.0,0.0,0.0,0.0,0.0,0.0,0.0,0.0,0.0,0.0,1.892,1.963,1.9497,1.8478,1.7347,1.6418,0.0,0.0,0.0,0.0,0.0,0.0,0.0,0.0,0.0,0.0,0.0,0.0,0.0,0.0,0.0,0.0,0.0,0.0,0.0,0.0,0.0,0.0,0.0,0.0,0.0,0.0,0.0,0.0,0.0,0.0,0.0,0.0,0.0,0.0,0.0,0.0,0.0,0.0,0.0,0.0,0.0,0.0,0.0,0.0,0.0,0.0,0.0,0.0,0.0,0.0,0.0,0.0,0.0,0.0,0.0,0.0,0.0,0.0,0.0,0.0,0.0,0.0,0.0,0.0,0.0,0.0,0.0,0.0,0.0,0.0,0.0,0.0,0.0,0.0,0.0,0.0,0.0,0.0,0.0,0.0,0.0,0.0,0.0,0.0,0.0,0.0,0.0,0.0,0.0,0.0,0.0,0.0,0.0,0.0,0.0,0.0,0.0,0.0,0.0,0.0,0.0,0.0,0.0,0.0,0.0,0.0,0.0,0.0,1.9012,2.088,2.235,2.2751,2.2046,1.9922,1.8346,0.0,0.0,0.0,0.0,0.0,0.0,0.0,0.0,0.0,0.0,0.0,0.0,0.0,0.0,0.0,0.0,0.0,0.0,0.0,0.0,0.0,0.0,0.0,0.0,0.0,0.0,0.0,0.0,0.0,0.0,0.0,0.0,0.0,0.0,0.0,0.0,0.0,0.0,0.0,0.0,0.0,0.0,0.0,0.0,0.0,0.0,0.0,0.0,0.0,0.0,0.0,0.0,0.0,0.0,0.0,0.0,0.0,0.0,0.0,0.0,0.0,0.0,0.0,0.0,0.0,0.0,0.0,0.0,0.0,0.0,0.0,0.0,0.0,0.0,0.0,0.0,0.0,0.0,0.0,0.0,0.0,0.0,0.0,0.0,0.0,0.0,0.0,0.0,0.0,0.0,0.0,0.0,0.0,0.0,0.0,0.0,0.0,0.0,0.0,0.0,0.0,0.0,0.0,0.0,0.0,0.0,0.0,0.0,2.0701,2.2592,2.4514,2.5724,2.6017,2.2754,2.0306,0.0,0.0,0.0,0.0,0.0,0.0,0.0,0.0,0.0,0.0,0.0,0.0,0.0,0.0,0.0,0.0,0.0,0.0,0.0,0.0,0.0,0.0,0.0,0.0,0.0,0.0,0.0,0.0,0.0,0.0,0.0,0.0,0.0,0.0,0.0,0.0,0.0,0.0,0.0,0.0,0.0,0.0,0.0,0.0,0.0,0.0,0.0,0.0,0.0,0.0,0.0,0.0,0.0,0.0,0.0,0.0,0.0,0.0,0.0,0.0,0.0,0.0,0.0,0.0,0.0,0.0,0.0,0.0,0.0,0.0,0.0,0.0,0.0,0.0,0.0,0.0,0.0,0.0,0.0,0.0,0.0,0.0,0.0,0.0,0.0,0.0,0.0,0.0,0.0,0.0,0.0,0.0,0.0,0.0,0.0,0.0,0.0,0.0,0.0,0.0,0.0,0.0,0.0,0.0,0.0,0.0,0.0,0.0,2.2162,2.4621,2.6168,2.7205,2.7766,2.5018,2.2548,0.0,0.0,0.0,0.0,0.0,0.0,0.0,0.0,0.0,0.0,0.0,0.0,0.0,0.0,0.0,0.0,0.0,0.0,0.0,0.0,0.0,0.0,0.0,0.0,0.0,0.0,0.0,0.0,0.0,0.0,0.0,0.0,0.0,0.0,0.0,0.0,0.0,0.0,0.0,0.0,0.0,0.0,0.0,0.0,0.0,0.0,0.0,0.0,1.098,0.0,0.0,0.0,0.0,0.0,0.0,0.0,0.0,0.0,0.0,0.0,0.0,0.0,0.0,0.0,0.0,0.0,0.0,0.0,0.0,0.0,0.0,0.0,0.0,0.0,0.0,0.0,0.0,0.0,0.0,0.0,0.0,0.0,0.0,0.0,0.0,0.0,0.0,0.0,0.0,0.0,0.0,0.0,0.0,0.0,0.0,0.0,0.0,0.0,0.0,0.0,0.0,0.0,0.0,0.0,0.0,0.0,0.0,0.0,2.403,2.642,2.8108,2.9196,2.9623,2.7789,2.5339,0.0,0.0,0.0,0.0,0.0,0.0,0.0,0.0,0.0,0.0,0.0,0.0,0.0,0.0,0.0,0.0,0.0,0.0,0.0,0.0,0.0,0.0,0.0,0.0,0.0,0.0,0.0,0.0,0.0,0.0,0.0,0.0,0.0,0.0,0.0,0.0,0.0,0.0,0.0,0.0,0.0,0.0,0.0,0.0,0.0,0.0,0.0,0.0,0.0,0.0,0.0,0.0,0.0,0.0,0.0,0.0,0.0,0.0,0.0,0.0,0.0,0.0,0.0,0.0,0.0,0.0,0.0,0.0,0.0,0.0,0.0,0.0,0.0,0.0,0.0,0.0,0.0,0.0,0.0,0.0,0.0,0.0,0.0,0.0,0.0,0.0,0.0,0.0,0.0,0.0,0.0,0.0,0.0,0.0,0.0,0.0,0.0,0.0,0.0,0.0,0.0,0.0,0.0,0.0,0.0,0.0,0.0,2.311,2.5891,2.8076,2.9985,3.1172,3.1502,3.035,2.7902,2.4189,0.0,0.0,0.0,0.0,0.0,0.0,0.0,0.0,0.0,0.0,0.0,0.0,0.0,0.0,0.0,0.0,0.0,0.0,0.0,0.0,0.0,0.0,0.0,0.0,0.0,0.0,0.0,0.0,0.0,0.0,0.0,0.0,0.0,0.0,0.0,0.0,0.0,0.0,1.0439,1.1856,0.0,0.0,0.0,0.0,0.0,0.0,0.0,0.0,1.3464,0.0,0.0,0.0,0.0,0.0,0.0,0.0,0.0,0.0,0.0,0.0,0.0,0.0,0.0,0.0,0.0,0.0,0.0,0.0,0.0,0.0,0.0,0.0,0.0,0.0,0.0,0.0,0.0,0.0,0.0,0.0,0.0,0.0,0.0,0.0,0.0,0.0,0.0,0.0,0.0,0.0,0.0,0.0,0.0,0.0,0.0,0.0,0.0,0.0,0.0,0.0,0.0,0.0,0.0,0.0,0.0,2.1607,2.4379,2.699,2.9512,3.1275,3.2319,3.2501,3.0961,2.8815,2.6076,0.0,0.0,0.0,0.0,0.0,0.0,0.0,0.0,0.0,0.0,0.0,0.0,0.0,0.0,0.0,0.0,0.0,0.0,0.0,0.0,0.0,0.0,0.0,0.0,0.0,0.0,0.0,0.0,0.0,0.0,0.0,0.0,0.0,0.0,0.0,0.0,0.0,0.0,0.0,1.3605,1.4482,0.0,0.0,0.0,0.0,0.0,0.0,0.0,0.0,1.4198,0.0,0.0,0.0,0.0,0.0,0.0,0.0,0.0,0.0,0.0,0.0,0.0,0.0,0.0,0.0,0.0,0.0,0.0,0.0,0.0,0.0,0.0,0.0,0.0,0.0,0.0,0.0,0.0,0.0,0.0,0.0,0.0,0.0,0.0,0.0,0.0,0.0,0.0,0.0,0.0,0.0,0.0,0.0,0.0,0.0,0.0,0.0,0.0,0.0,0.0,0.0,0.0,0.0,0.0,0.0,2.2998,2.5834,2.8451,3.0835,3.2489,3.3288,3.3171,3.1533,2.9322,0.0,0.0,0.0,0.0,0.0,0.0,0.0,0.0,0.0,0.0,0.0,0.0,0.0,0.0,0.0,0.0,0.0,0.0,0.0,0.0,0.0,0.0,0.0,0.0,0.0,0.0,0.0,0.0,0.0,0.0,0.0,0.0,0.0,0.0,0.0,0.0,0.0,0.0,0.0,0.0,1.4766,1.5792,1.6502,0.0,0.0,0.0,0.0,0.0,0.0,1.5975,1.5845,0.0,0.0,0.0,0.0,0.0,0.0,0.0,0.0,0.0,0.0,0.0,0.0,0.0,0.0,0.0,0.0,0.0,0.0,0.0,0.0,0.0,0.0,0.0,0.0,0.0,0.0,0.0,0.0,0.0,0.0,0.0,0.0,0.0,0.0,0.0,0.0,0.0,0.0,0.0,0.0,0.0,0.0,0.0,0.0,0.0,0.0,0.0,0.0,0.0,0.0,0.0,0.0,0.0,0.0,0.0,2.4193,2.7405,3.0101,3.2273,3.3863,3.4436,3.3892,3.2182,2.976,0.0,0.0,0.0,0.0,0.0,0.0,0.0,0.0,0.0,0.0,0.0,0.0,0.0,0.0,0.0,0.0,0.0,0.0,0.0,0.0,0.0,0.0,0.0,0.0,0.0,0.0,0.0,0.0,0.0,0.0,0.0,0.0,0.0,0.0,0.0,0.0,0.0,0.0,0.0,0.0,0.0,1.7185,1.8138,1.801,0.0,0.0,0.0,0.0,1.782,1.7853,0.0,0.0,0.0,0.0,0.0,0.0,0.0,0.0,0.0,0.0,0.0,0.0,0.0,0.0,0.0,0.0,0.0,0.0,0.0,0.0,0.0,0.0,0.0,0.0,0.0,0.0,0.0,0.0,0.0,0.0,0.0,0.0,0.0,0.0,0.0,0.0,0.0,0.0,0.0,0.0,0.0,0.0,0.0,0.0,0.0,0.0,0.0,0.0,0.0,0.0,0.0,0.0,0.0,0.0,0.0,0.0,2.5289,2.8931,3.1926,3.4147,3.5691,3.6015,3.504,3.3099,3.0292,0.0,0.0,0.0,0.0,0.0,0.0,0.0,0.0,0.0,0.0,0.0,0.0,0.0,0.0,0.0,0.0,0.0,0.0,0.0,0.0,0.0,0.0,0.0,0.0,0.0,0.0,0.0,0.0,0.0,0.0,0.0,0.0,0.0,0.0,0.0,0.0,0.0,0.0,0.0,0.0,0.0,1.8671,2.0075,1.9891,1.975,0.0,0.0,1.9821,2.0444,2.0155,0.0,0.0,0.0,0.0,0.0,0.0,0.0,0.0,0.0,0.0,0.0,0.0,0.0,0.0,0.0,0.0,0.0,0.0,0.0,0.0,0.0,0.0,0.0,0.0,0.0,0.0,0.0,0.0,0.0,0.0,0.0,0.0,0.0,0.0,0.0,0.0,0.0,0.0,0.0,0.0,0.0,0.0,0.0,0.0,0.0,0.0,0.0,0.0,0.0,0.0,0.0,0.0,0.0,0.0,0.0,2.368,2.753,3.0615,3.3292,3.5516,3.6673,3.68,3.5892,3.3935,3.1104,0.0,0.0,0.0,0.0,0.0,0.0,0.0,0.0,0.0,0.0,0.0,0.0,0.0,0.0,0.0,0.0,0.0,0.0,0.0,0.0,0.0,0.0,0.0,0.0,0.0,0.0,0.0,0.0,0.0,0.0,0.0,0.0,0.0,0.0,0.0,0.0,0.0,0.0,0.0,0.0,0.0,0.0,2.1564,2.2207,0.0,0.0,0.0,2.2654,2.2842,0.0,0.0,0.0,0.0,0.0,0.0,0.0,0.0,0.0,0.0,0.0,0.0,0.0,0.0,0.0,0.0,0.0,0.0,0.0,0.0,0.0,0.0,0.0,0.0,0.0,0.0,0.0,0.0,0.0,0.0,0.0,0.0,0.0,0.0,0.0,0.0,0.0,0.0,0.0,0.0,0.0,0.0,0.0,0.0,0.0,0.0,0.0,0.0,0.0,0.0,0.0,0.0,0.0,0.0,0.0,0.0,0.0,2.9319,3.2078,3.4583,3.676,3.7664,3.7666,3.6702,3.4885,0.0,0.0,0.0,0.0,0.0,0.0,0.0,0.0,0.0,0.0,0.0,0.0,0.0,0.0,0.0,0.0,0.0,0.0,0.0,0.0,0.0,0.0,0.0,0.0,0.0,0.0,0.0,0.872,0.0,0.0,0.0,0.0,0.0,0.0,0.0,0.0,0.0,0.0,0.0,0.0,0.0,0.0,2.1775,2.3158,2.4364,2.5168,0.0,0.0,2.538,2.5274,2.4928,2.4147,0.0,0.0,0.0,0.0,0.0,0.0,0.0,0.0,0.0,0.0,0.0,0.0,0.0,0.0,0.0,0.0,0.0,0.0,0.0,0.0,0.0,0.0,0.0,0.0,0.0,0.0,0.0,0.0,0.0,0.0,0.0,0.0,0.0,0.0,0.0,0.0,0.0,0.0,0.0,0.0,0.0,0.0,0.0,0.0,0.0,0.0,0.0,0.0,0.0,0.0,0.0,0.0,0.0,0.0,0.0,2.9719,3.307,3.5842,3.7905,3.9013,3.8894,3.7547,3.6123,3.3234,0.0,0.0,0.0,0.0,0.0,0.0,0.0,0.0,0.0,0.0,0.0,0.0,0.0,0.0,0.0,0.0,0.0,0.0,0.0,0.0,0.0,0.0,0.0,0.0,0.0,0.0,0.0,0.0,0.0,0.0,0.0,0.0,0.0,0.0,0.0,0.0,0.0,0.0,0.0,0.0,0.0,2.2779,2.5081,2.6081,2.6854,0.0,0.0,2.7626,2.7806,2.7261,2.6174,2.4268,0.0,0.0,0.0,0.0,0.0,0.0,0.0,0.0,0.0,0.0,0.0,0.0,0.0,0.0,0.0,0.0,0.0,0.0,0.0,0.0,0.0,0.0,0.0,0.0,0.0,0.0,0.0,0.0,0.0,0.0,0.0,0.0,0.0,0.0,0.0,0.0,0.0,0.0,0.0,0.0,0.0,0.0,0.0,0.0,0.0,0.0,0.0,0.0,0.0,0.0,0.0,0.0,0.0,2.7616,3.1369,3.4839,3.7592,3.9512,4.0152,4.0185,3.9642,3.7374,3.4577,0.0,0.0,0.0,0.0,0.0,0.0,0.0,0.0,0.0,0.0,0.0,0.0,0.0,0.0,0.0,0.0,0.0,0.0,0.0,0.0,0.0,0.0,0.0,0.0,0.0,0.0,0.0,0.0,1.3295,1.3989,1.4183,0.0,0.0,0.0,0.0,0.0,0.0,0.0,0.0,0.0,0.0,2.4978,2.6928,2.8282,0.0,0.0,2.9823,2.9718,2.95,2.87,2.7386,2.5285,2.3312,0.0,0.0,0.0,0.0,0.0,0.0,0.0,0.0,0.0,0.0,0.0,0.0,0.0,0.0,0.0,0.0,0.0,0.0,0.0,0.0,0.0,0.0,0.0,0.0,0.0,0.0,0.0,0.0,0.0,0.0,0.0,0.0,0.0,0.0,0.0,0.0,0.0,0.0,0.0,0.0,0.0,0.0,0.0,0.0,0.0,0.0,0.0,0.0,0.0,0.0,0.0,0.0,2.8702,3.2619,3.6076,3.8692,4.0451,4.1073,4.126,4.0844,3.8692,3.6115,0.0,0.0,0.0,0.0,0.0,0.0,0.0,0.0,0.0,0.0,0.0,0.0,0.0,0.0,0.0,0.0,0.0,0.0,0.0,0.0,0.0,0.0,0.0,0.0,0.0,0.0,0.0,0.0,1.4567,1.4937,1.4713,0.0,0.0,0.0,0.0,0.0,0.0,0.0,0.0,0.0,0.0,2.6929,2.8804,3.0211,3.1184,3.1609,3.1729,3.1552,3.0917,3.0147,2.8878,2.6816,0.0,0.0,0.0,0.0,0.0,0.0,0.0,0.0,0.0,0.0,0.0,0.0,0.0,0.0,0.0,0.0,0.0,0.0,0.0,0.0,0.0,0.0,0.0,0.0,0.0,0.0,0.0,0.0,0.0,0.0,1.5703,0.0,0.0,0.0,0.0,0.0,0.0,0.0,0.0,0.0,0.0,0.0,0.0,0.0,0.0,0.0,0.0,0.0,0.0,0.0,0.0,0.0,0.0,2.8996,3.316,3.6443,3.8894,4.0529,4.1849,4.2035,4.0999,4.0028,3.7903,3.4403,0.0,0.0,0.0,0.0,0.0,0.0,0.0,0.0,0.0,0.0,0.0,0.0,0.0,0.0,0.0,0.0,0.0,0.0,0.0,0.0,0.0,0.0,0.0,0.0,0.0,0.0,1.531,1.5498,1.5365,0.0,0.0,0.0,0.0,0.0,0.0,0.0,0.0,0.0,0.0,2.6386,2.8342,3.0677,3.1613,3.233,3.3032,3.3375,3.3201,3.2203,3.1646,3.0765,0.0,0.0,0.0,0.0,0.0,0.0,0.0,0.0,0.0,0.0,0.0,0.0,0.0,0.0,0.0,0.0,0.0,0.0,0.0,0.0,0.0,0.0,0.0,0.0,0.0,0.0,0.0,1.9699,1.9531,0.0,0.0,0.0,0.0,0.0,0.0,0.0,0.0,0.0,0.0,0.0,2.445,2.5612,0.0,0.0,0.0,0.0,0.0,0.0,0.0,0.0,0.0,0.0,0.0,0.0,3.0204,3.415,3.7634,4.0337,4.2121,4.2805,4.3046,4.2892,4.1091,3.8344,3.4502,0.0,0.0,0.0,0.0,0.0,0.0,0.0,0.0,0.0,0.0,0.0,0.0,0.0,0.0,0.0,0.0,0.0,0.0,0.0,0.0,0.0,0.0,0.0,0.0,0.0,1.6372,0.0,0.0,0.0,0.0,0.0,0.0,0.0,0.0,0.0,0.0,0.0,2.4362,2.681,2.8723,3.0479,3.2051,3.2746,3.3286,0.0,0.0,0.0,0.0,0.0,0.0,0.0,0.0,0.0,0.0,0.0,0.0,0.0,0.0,2.4456,2.1693,2.1108,2.1073,2.1055,0.0,0.0,0.0,0.0,0.0,0.0,0.0,0.0,0.0,0.0,0.0,0.0,0.0,0.0,2.2538,0.0,2.1372,0.0,0.0,0.0,0.0,0.0,0.0,0.0,0.0,2.6216,2.7231,2.7662,2.8655,2.8875,0.0,2.8377,2.6833,0.0,0.0,0.0,0.0,0.0,0.0,0.0,0.0,3.1533,3.5388,3.8887,4.149,4.3113,4.372,4.4042,4.3992,4.1889,3.926,3.6166,3.2856,2.9675,0.0,0.0,0.0,0.0,0.0,0.0,0.0,0.0,0.0,0.0,0.0,0.0,0.0,0.0,0.0,0.0,0.0,0.0,0.0,0.0,0.0,0.0,0.0,1.7977,0.0,0.0,0.0,0.0,0.0,0.0,0.0,0.0,0.0,2.2656,2.4716,2.716,2.969,3.1224,3.2659,3.4092,0.0,0.0,0.0,0.0,0.0,0.0,0.0,3.3268,3.2183,3.1412,3.0696,3.0033,3.0057,3.0146,2.9984,0.0,0.0,2.5723,2.491,2.4788,2.4788,2.4503,2.4339,2.4503,2.5102,2.5701,0.0,0.0,0.0,0.0,0.0,0.0,0.0,0.0,2.5601,2.5617,0.0,2.4391,0.0,0.0,0.0,0.0,0.0,0.0,0.0,0.0,2.8999,3.0104,3.1322,3.1644,3.1843,3.2036,3.1703,3.1196,3.0443,2.6245,0.0,0.0,0.0,0.0,0.0,0.0,3.3013,3.6881,4.018,4.2423,4.359,4.4674,4.4943,4.4283,4.2419,4.0715,3.9256,3.6435,3.3422,3.018,2.6827,0.0,0.0,0.0,0.0,0.0,0.0,0.0,0.0,0.0,0.0,0.0,0.0,0.0,0.0,0.0,0.0,0.0,0.0,0.0,0.0,1.9386,0.0,0.0,0.0,0.0,0.0,0.0,0.0,0.0,0.0,0.0,2.655,2.7778,2.9868,3.3078,0.0,0.0,0.0,0.0,3.7041,3.7293,3.7343,3.7045,3.6233,3.5913,3.5545,3.477,0.0,0.0,3.2848,3.3534,3.3979,3.3534,3.3794,3.3221,3.0435,2.9434,2.902,2.902,2.8648,2.8408,2.843,2.8946,2.9589,3.3426,0.0,0.0,0.0,0.0,2.9087,2.9593,3.0059,2.9586,2.9457,2.953,2.7871,0.0,0.0,0.0,0.0,0.0,0.0,3.0137,3.1909,3.3191,3.4168,3.4944,3.5731,3.6039,3.5891,3.5777,3.5489,3.5024,3.337,3.0511,2.6596,0.0,0.0,0.0,0.0,3.5571,3.9389,4.206,4.4093,4.5632,4.5946,4.5635,4.4598,4.3664,4.2545,4.13,3.9114,3.6731,3.412,3.0876,0.0,0.0,0.0,0.0,0.0,0.0,0.0,0.0,0.0,0.0,0.0,0.0,0.0,0.0,0.0,0.0,0.0,0.0,0.0,2.2279,2.2128,2.1658,0.0,0.0,0.0,0.0,0.0,0.0,0.0,0.0,0.0,3.2999,3.2534,3.296,0.0,0.0,3.7054,3.8172,3.8348,3.8374,3.8451,0.0,0.0,0.0,3.7999,3.7846,3.7416,3.6809,3.6275,3.5937,3.6092,3.6393,3.658,3.6762,3.6646,3.6131,3.411,3.2661,3.2517,3.2313,3.216,3.2357,3.2819,3.3328,3.8992,3.5757,3.4009,3.3037,3.2777,3.3093,3.3496,3.3933,3.3503,3.3298,3.3084,3.1755,3.0745,3.0073,2.9811,0.0,0.0,0.0,3.3801,3.5329,3.6622,3.7589,3.8228,3.9201,3.9638,3.9527,3.962,3.9436,3.8953,3.8625,3.6668,3.3159,0.0,0.0,3.3746,3.5622,3.8233,4.1695,4.3677,4.5364,4.6839,4.6965,4.6598,4.5793,4.5229,4.4424,4.3359,4.1525,3.9548,3.7462,3.4427,3.1171,0.0,0.0,0.0,0.0,0.0,0.0,0.0,0.0,0.0,0.0,0.0,1.555,0.0,0.0,0.0,0.0,2.1564,2.3679,2.5267,2.4876,0.0,0.0,0.0,0.0,0.0,0.0,0.0,3.0728,3.2391,3.4506,3.7492,3.7267,3.7141,3.8232,3.8628,3.9227,4.0234,0.0,4.0408,4.0525,4.0523,4.0469,4.0362,4.0362,4.0254,4.0008,3.9852,3.9644,3.934,3.9455,3.9662,3.9835,3.9902,3.9997,4.0254,3.8723,3.7022,3.5954,3.5523,3.5432,3.5772,3.6182,3.6672,4.3854,4.28,3.9431,3.7774,3.7359,3.7337,3.7364,3.7391,3.7289,3.6919,3.6364,3.5743,3.5182,3.4633,3.4275,0.0,0.0,3.5966,3.709,3.8467,3.9546,4.0456,4.1256,4.2081,4.2594,4.279,4.3085,4.2906,4.2382,4.2354,4.2018,4.1268,3.7595,3.6455,3.786,3.9024,4.1041,4.383,4.5156,4.6382,4.7503,4.7779,4.7757,4.7405,4.6834,4.6078,4.5169,4.35,4.1828,4.01,3.7404,3.4457,3.118,0.0,0.0,0.0,0.0,0.0,0.0,0.0,0.0,0.0,0.0,0.0,0.0,0.0,0.0,0.0,2.5011,0.0,2.7853,2.7749,0.0,0.0,0.0,2.7873,2.8295,3.005,3.2126,3.4435,0.0,0.0,0.0,0.0,4.1836,4.1141,4.0961,4.1394,4.2671,4.2798,4.2946,4.3126,4.3199,4.3087,4.2759,4.2644,4.2531,4.2305,4.2713,4.2683,4.2501,4.2783,4.3084,4.2751,4.2836,4.2788,4.2866,4.2589,4.2022,3.9235,3.8483,3.8366,3.8816,3.9191,3.965,4.6029,4.5401,4.453,4.3017,4.12,4.115,4.1396,4.1673,4.0571,4.0046,3.988,3.8625,3.7933,3.7651,3.7563,3.8078,3.9062,3.9711,4.0787,4.2099,4.2592,4.3296,4.4112,4.4521,4.4752,4.4801,4.4875,4.4817,4.4704,4.4704,4.482,4.4991,4.3681,4.2348,4.1154,4.1992,4.3647,4.6089,4.7083,4.792,4.8676,4.8758,4.8327,4.7405,4.6964,4.6148,4.4859,4.3965,4.2574,4.0599,3.8834,3.6475,3.3324,3.0204,0.0,0.0,0.0,0.0,0.0,0.0,0.0,0.0,0.0,2.0006,2.088,0.0,2.4569,0.0,2.8477,3.0395,3.0984,3.115,0.0,0.0,3.1644,3.2443,3.2954,3.467,3.6653,3.884,4.0001,4.1426,4.3557,4.3972,4.426,4.4628,4.4181,4.407,4.4789,4.4891,4.4914,4.4959,4.4982,4.4871,4.4529,4.4098,4.3834,4.3718,4.3642,4.3462,4.3428,4.3497,4.3595,4.3482,4.3482,4.3482,4.3531,4.3482,4.3301,4.2555,4.1995,4.1637,4.178,4.204,4.2372,4.8585,4.8308,4.8308,4.749,4.6084,4.4512,4.4018,4.4214,4.3386,4.2927,4.2626,4.1555,4.1031,4.0943,4.1071,4.1558,4.2304,4.2779,4.3448,4.4348,4.4772,4.5361,4.6116,4.6646,4.7022,4.7272,4.7425,4.7501,4.7501,4.7529,4.7592,4.7771,4.7438,4.6608,4.5314,4.4926,4.5767,4.7865,4.89,4.9584,4.9884,4.961,4.8954,4.7805,4.7306,4.6291,4.4663,4.4034,4.3009,4.1473,4.0098,3.8077,3.536,3.2789,2.9966,0.0,0.0,0.0,0.0,0.0,0.0,0.0,0.0,0.0,0.0,0.0,2.8166,0.0,3.2073,0.0,3.4006,3.453,3.4817,3.4725,3.5536,3.6426,3.7196,3.8566,4.0203,4.2217,4.3132,4.4231,4.5879,4.6256,4.6604,4.7295,4.6998,4.6588,4.624,4.618,4.62,4.6286,4.6337,4.6225,4.605,4.5758,4.5548,4.5523,4.5376,4.5262,4.5262,4.5262,4.5262,4.5262,4.5262,4.5262,4.5233,4.5233,4.5233,4.5204,4.4997,4.4482,4.375,4.3701,4.3893,5.0895,5.0844,5.0844,5.0818,5.0569,4.7502,4.6129,4.5995,4.5838,4.5373,4.4685,4.4159,4.3966,4.4052,4.4441,4.4768,4.5075,4.5431,4.5809,4.6112,4.6613,4.7165,4.7769,4.8531,4.9139,4.9616,4.9908,5.0039,5.0013,5.0013,4.9883,4.9702,4.9592,4.9485,4.9272,4.7695,4.7668,4.9247,5.0381,5.0934,5.0878,5.0326,4.9442,4.8254,4.7562,4.6346,4.4477,4.3839,4.3109,4.2141,4.0918,3.9293,3.7182,3.5222,3.2823,0.0,2.7928,0.0,0.0,0.0,0.0,0.0,0.0,0.0,0.0,3.0139,3.2208,3.4592,3.5733,3.6502,3.6998,3.7867,3.8417,3.8467,3.9272,4.0261,4.1225,4.2072,4.3208,4.4997,4.5681,4.6517,4.7715,4.8292,4.8701,4.9041,4.9172,4.8806,4.7748,4.734,4.7305,4.742,4.7412,4.7343,4.728,4.7243,4.7154,4.7154,4.704,4.7235,4.7154,4.7154,4.7239,4.7269,4.7217,4.7269,4.7401,4.7349,4.732,4.7414,4.7334,4.6781,4.5346,4.5027,4.511,5.1334,5.1126,5.11,5.0998,5.0763,5.0073,4.9385,4.8649,4.7684,4.6545,4.5348,4.521,4.5431,4.5929,4.6461,4.7013,4.7535,4.809,4.8657,4.9154,4.9266,4.9613,5.014,5.0306,5.0344,5.0249,5.0301,5.0197,5.0013,5.0013,5.0213,5.0609,5.016,5.0134,0.0,0.0,0.0,0.0,5.0932,5.1183,5.0878,5.0298,4.9414,4.8227,4.7301,0.0,4.3894,4.3392,4.256,4.1254,4.0753,0.0,0.0,0.0,0.0,0.0,0.0,0.0,0.0,0.0,0.0,0.0,3.4187,3.3611,3.2395,3.5125,3.7466,3.8554,3.9267,3.9701,3.9854,4.1004,4.1776,4.1828,4.3358,4.4533,4.4767,4.5429,4.633,4.712,4.7562,4.8053,4.8746,4.9336,4.9714,4.9876,5.0273,5.0454,5.0174,4.9263,4.8758,4.8724,4.8516,4.826,4.8055,4.7821,4.756,4.7294,4.7205,4.7324,4.7589,4.7619,4.7733,4.7964,4.8026,4.8208,4.8655,4.8365,4.8276,4.895,4.8893,4.834,4.7002,4.7082,4.7464,5.2465,0.0,5.2336,5.2258,0.0,5.1997,5.1523,5.0766,4.9697,4.8819,4.8125,4.8125,4.8269,4.8606,4.889,4.9199,4.9481,4.9818,5.009,5.0405,5.0377,5.0704,5.1249,5.1223,5.1342,5.1553,5.1553,5.1366,5.1128,5.1439,5.164,5.1787,5.1814,5.1983,5.2264,5.2118,5.1586,5.0673,5.126,5.1541,5.1348,5.0763,4.9844,4.8648,0.0,0.0,0.0,0.0,0.0,0.0,0.0,0.0,0.0,0.0,0.0,3.6032,3.5065,3.4757,3.5214,3.5287,3.6189,3.8178,3.9821,3.9803,3.7432,3.9619,4.1338,4.1983,4.2682,4.3125,4.3151,4.4119,4.4778,4.483,4.5946,4.6801,4.7008,4.7469,4.8034,4.8567,4.8843,4.9226,4.9904,5.0399,5.081,5.1109,5.1552,5.1857,5.1744,5.0788,4.9898,4.9605,4.9435,4.9128,4.8745,4.8548,4.8347,4.8175,4.8143,4.823,4.8376,4.8405,4.8542,4.8977,4.9086,4.9273,4.9831,4.9722,4.9663,5.0074,5.0082,4.9821,4.912,4.9005,4.8976,5.3981,5.4007,5.4007,5.3981,5.3981,5.3656,5.3116,5.248,0.0,0.0,0.0,5.0818,5.0849,5.0963,5.0963,5.1021,5.1135,5.1135,5.1161,5.1213,5.1213,5.147,5.2038,5.2153,5.247,5.293,5.3074,5.2941,5.2644,5.3182,5.3327,5.3105,5.3613,5.3867,5.3867,5.4063,5.3326,5.1667,5.1979,5.2123,5.1983,5.1392,5.0465,4.9204,4.8586,4.7154,4.4846,4.4734,4.4172,4.2964,4.2397,4.1833,4.1155,4.0418,3.9744,3.9084,3.8717,3.8773,3.9346,3.9525,4.0331,4.2028,4.4468,4.4889,4.2501,4.3516,4.4458,4.4873,4.5619,4.6074,4.61,4.6878,4.7363,4.7363,4.7968,4.8459,4.8721,4.8942,4.9299,4.9731,4.9921,5.025,5.094,5.1524,5.197,5.2465,5.2828,5.3117,5.2946,5.2026,5.1032,5.0596,5.0488,5.0211,4.9692,4.9556,4.9505,4.9554,4.942,4.9373,4.946,4.9488,4.9731,5.0222,5.0381,5.073,5.1153,5.121,5.1174,5.1299,5.1219,5.1249,5.1239,5.091,5.0526,5.5878,5.5878,5.5907,5.5907,5.5848,5.5266,5.4593,5.3866,5.1747,5.0818,5.0818,5.0818,5.1078,5.1592,5.1566,5.1878,5.2421,5.2421,5.2556,0.0,5.2768,5.2929,5.3282,5.3832,5.4044,5.3971,5.4433,5.4557,5.428,5.4338,5.4367,5.434,5.4425,5.4482,5.4482,5.4509,5.4367,5.4055,5.3891,5.3386,5.2574,5.1983,5.1111,4.9902,4.9204,4.7996,4.6111,4.6026,4.5436,4.4205,4.3625,4.331,4.3157,4.249,4.203,4.1928,4.219,4.255,4.311,4.3615,4.4569,4.6036,4.7457,4.7534,4.6006,4.643,4.6909,4.6989,4.7345,4.751,4.7564,4.8543,4.9199,4.9254,4.994,5.0491,5.049,5.0573,5.0628,5.0738,5.1152,5.1482,5.1785,5.2643,5.3308,5.3528,5.392,5.4335,5.4141,5.3303,5.2438,5.2069,5.1983,5.1696,5.1154,5.1059,5.1037,5.1062,5.0605,5.0455,5.0913,5.0999,5.1166,5.1477,5.1915,5.2378,5.2777,5.2447,5.2375,5.2638,5.2587,5.2515,5.2682,5.282,5.2652,5.6305,5.6305,5.6305,5.6305,5.6276,5.5955,5.566,5.5309,5.425,5.3265,5.25,5.2344,5.241,5.2644,5.2672,5.2843,5.3133,5.3105,5.3386,5.3839,5.3868,5.4122,5.4546,5.4865,5.4929,5.4821,5.5081,5.5089,5.4842,5.5158,5.5219,5.5136,5.5422,5.5679,5.5847,5.5847,5.5847,5.5819,5.488,5.4061,5.3471,5.285,5.2062,5.0999,5.0354,4.9316,4.7828,4.7743,4.735,4.6476,4.6024,4.5823,4.5798,4.5253,4.5062,4.5363,4.5404,4.568,4.6247,4.7271,4.8409,4.9555,5.043,5.0646,4.9961,4.9413,4.9085,4.9085,4.9335,4.9501,4.9501,5.027,5.0766,5.0794,5.1626,5.207,5.1985,5.207,5.207,5.1985,5.2177,5.2454,5.2785,5.3483,5.407,5.4347,5.4826,5.5083,5.5083,5.4639,5.3964,5.3251,5.3052,5.2798,5.2289,5.2149,5.2178,5.2151,5.1905,5.1856,5.2143,5.2172,5.2338,5.2757,5.3118,5.3418,5.3821,5.3766,5.3727,5.377,5.3847,5.3795,5.3926,5.4041,5.3721,5.6936,5.6936,5.6936,5.6847,5.6672,5.6702,5.664,5.6492,5.6382,5.5689,5.4573,5.4253,5.4063,5.3917,5.4063,5.4121,5.4121,5.4042,5.4333,5.4771,5.4747,5.4925,5.5416,5.5533,5.5649,5.5621,5.5765,5.5713,5.5579,5.6013,5.6103,5.5963,5.6365,5.6737,5.6993,5.6993,5.6993,5.6936,5.5817,5.4936,5.443,5.375,5.2989,5.2148,5.1447,5.055,4.9513,4.9428,4.9148,4.8558,4.8243,4.8114,4.8089,4.778,4.7765,4.8151,4.8321,4.8734,4.9502,5.0574,5.1542,5.2294,5.2851,5.313,5.3075,5.2127,5.1293,5.1181,5.1348,5.1572,5.1683,5.2101,5.2435,5.2491,5.305,5.3331,5.3159,5.3301,5.3301,5.3072,5.3155,5.3519,5.3937,5.4362,5.4817,5.5268,5.5554,5.57,5.57,5.57,5.5271,5.4613,5.4154,5.3811,5.3284,5.3199,5.3255,5.3259,5.3148,5.3122,5.3181,5.3209,5.3348,5.3793,5.4014,5.4235,5.4618,5.4671,5.4584,5.452,5.4463,5.452,5.449,5.4518,5.4398,5.8809,5.8838,5.8779,5.848,5.7945,5.7915,5.7587,5.7053,5.6783,5.6618,5.6361,5.6155,5.5698,5.526,5.5728,5.5963,5.5937,5.5782,5.5677,5.5737,5.5465,5.5358,5.556,5.6026,5.6316,5.6374,5.681,5.7013,5.6986,5.7073,5.716,5.7132,5.719,5.7219,5.7247,5.7247,5.7247,5.7275,5.7131,5.6503,5.5394,5.4486,5.3751,5.31,5.2176,5.142,5.0744,5.0718,5.0436,4.9874,4.9501,4.937,4.937,4.937,4.9398,4.9509,5.0673,5.1929,5.3023,5.3304,5.3501,5.3838,5.3979,5.4176,5.44,5.4313,5.3837,5.3247,5.3275,5.3445,5.3781,5.4061,5.4229,5.4174,5.4371,5.4343,5.4092,5.3979,5.3923,5.3641,5.4318,5.4799,5.494,5.5508,5.605,5.6078,5.6135,5.6221,5.6221,5.6221,5.6193,5.5935,5.5442,5.4828,5.4481,5.4444,5.4514,5.4661,5.4328,5.4222,5.4341,5.4455,5.4511,5.4651,5.4959,5.518,5.5088,5.4937,5.4936,5.4847,5.4728,5.4667,5.4607,5.4639,5.455,5.964,5.9613,5.964,5.9382,5.8951,5.8921,5.8664,5.8291,5.8184,5.7922,5.7597,5.7818,5.7218,5.5952,5.6161,5.6305,5.6305,5.6172,5.6354,5.6706,5.6571,5.6692,5.7073,5.7308,5.74,5.7234,5.7496,5.7501,5.7331,5.7303,5.7303,5.7303,5.7303,5.7303,5.7303,5.7303,5.7303,5.7303,5.7303,5.7046,5.6475,5.5303,5.4423,5.3887,5.2732,5.2055,5.1935,5.1772,5.1659,5.1593,5.1458,5.1547,5.1914,5.1969,5.2166,5.2561,5.3097,5.3833,5.4714,5.4912,5.5223,5.5736,5.5905,5.5989,5.5962,5.5962,5.5793,5.5396,5.4714,5.4259,5.4455,5.4852,5.5136,5.5165,5.5451,5.5594,5.5481,5.5481,5.5424,5.5339,5.5595,5.5823,5.5851,5.6137,5.6394,5.6423,5.6394,5.6451,5.6423,5.6423,5.6423,5.6337,5.6049,5.5845,5.5642,5.5671,5.57,5.5731,5.5647,5.5536,5.5536,5.5651,5.5651,5.5651,5.5792,5.5933,5.5875,5.5788,5.5758,5.5467,5.5231,5.5142,5.5142,5.5142,5.5142,5.9986,5.9986,5.9986,5.9853,5.9636,5.9636,5.9503,5.9372,5.9372,5.9018,5.8551,5.8997,5.8429,5.7194,5.7051,5.7051,5.7051,5.6971,5.721,5.7626,5.7601,5.7782,5.8166,5.8195,5.8114,5.7948,5.792,5.7779,5.7556,5.7556,5.7556,5.7556,5.7472,5.7444,5.7416,5.736,5.7303,5.7303,5.7303,5.7303,5.7101,5.5863,5.4951,5.4533,5.3119,5.2465,5.268,5.2492,5.2551,5.2909,5.2937,5.3277,5.3931,5.4043,5.4466,5.5207,5.535,5.5609,5.6215,5.6412,5.6754,5.7189,5.7444,5.7444,5.7304,5.7276,5.7276,5.7161,5.6268,5.5609,5.5416,5.5733,5.5991,5.5991,5.6393,5.6623,5.6509,5.6509,5.6451,5.6423,5.6394,5.6623,5.6737,5.6879,5.6993,5.6964,5.6936,5.6879,5.6908,5.6936,5.6936,5.6879,5.6908,5.6737,5.648,5.6308,5.6423,5.6423,5.6279,5.6251,5.6423,5.6365,5.6365,5.6051,5.6308,5.6337,5.6222,5.6279,5.6337,5.6135,5.5903,5.5729,5.5758,5.5729,5.57,5.9986,6.0012,5.9986,5.9986,5.999,5.9959,5.9959,5.988,5.9937,5.9743,5.9412,5.9446,5.9255,5.8895,5.8809,5.8925,5.8898,5.8595,5.8515,5.8548,5.8301,5.8166,5.8195,5.8195,5.8195,5.8167,5.8225,5.814,5.8142,5.8112,5.814,5.8112,5.7892,5.7781,5.7753,5.7529,5.7303,5.736,5.736,5.7331,5.7186,5.6084,5.5338,5.4978,5.3501,5.2764,5.2762,5.2736,5.2993,5.3537,5.3647,5.4043,5.4862,5.5224,5.5898,5.6946,5.7143,5.7378,5.788,5.7969,5.8026,5.8112,5.814,5.814,5.8057,5.8057,5.8057,5.8085,5.7884,5.7573,5.7127,5.7043,5.7131,5.7159,5.7217,5.7134,5.6936,5.6936,5.6737,5.6623,5.6794,5.7135,5.7641,5.7975,5.7946,5.7974,5.8029,5.8001,5.7918,5.8001,5.7974,5.7974,5.7918,5.7723,5.6709,5.6594,5.6537,5.6566,5.6652,5.6451,5.6423,5.6423,5.6423,5.6451,5.6509,5.6509,5.6423,5.6423,5.6451,5.6365,5.6336,5.625,5.6135,5.6308,5.6221,6.0512,6.0512,6.0512,6.0434,6.0246,6.0246,6.0171,5.9986,5.9986,5.9933,5.98,5.9583,5.9449,5.9342,5.918,5.9099,5.9072,5.8991,5.8964,5.8936,5.8828,5.8773,5.88,5.8773,5.8691,5.8527,5.8527,5.8417,5.8195,5.8195,5.8195,5.8195,5.8114,5.8029,5.8059,5.7946,5.7863,5.7863,5.7863,5.7809,5.7611,5.696,5.6466,5.6078,5.4483,5.3687,5.3819,5.4221,5.4649,5.507,5.523,5.5656,5.6408,5.6927,5.7386,5.7814,5.7871,5.7989,5.8193,5.839,5.85,5.8527,5.8691,5.8691,5.8555,5.85,5.8445,5.828,5.8195,5.8057,5.7946,5.7863,5.789,5.7863,5.7863,5.7807,5.7751,5.7723,5.7668,5.7584,5.7668,5.7807,5.8003,5.814,5.8195,5.8195,5.8195,5.8223,5.8195,5.8195,5.8223,5.8195,5.8195,5.8057,5.7723,5.7388,5.7304,5.7219,5.7191,5.7049,5.6964,5.6964,5.7021,5.6964,5.6936,5.6936,5.6936,5.6823,5.6823,5.6737,5.6709,5.6537,5.6394,5.6509,5.6451,6.0923,6.0923,6.082,6.069,6.0534,6.0534,6.0403,6.025,6.025,6.0197,6.0092,5.9876,5.9743,5.9636,5.9449,5.9369,5.9372,5.918,5.9099,5.9099,5.9099,5.9099,5.9099,5.9099,5.9021,5.8828,5.88,5.8719,5.8498,5.847,5.847,5.85,5.8445,5.8362,5.8362,5.825,5.8195,5.8195,5.8195,5.8114,5.7887,5.7525,5.72,5.6837,5.575,5.5118,5.5104,5.5484,5.5913,5.6305,5.6523,5.6952,5.7683,5.8208,5.847,5.85,5.847,5.85,5.8527,5.8691,5.8828,5.8828,5.8964,5.8991,5.8828,5.88,5.8691,5.8584,5.8735,5.8823,5.8883,5.9003,5.8861,5.8398,5.8195,5.8195,5.8195,5.8167,5.8167,5.814,5.8252,5.8335,5.839,5.8445,5.85,5.847,5.85,5.847,5.85,5.85,5.847,5.85,5.8527,5.8525,5.8333,5.8169,5.792,5.7809,5.7668,5.7584,5.7528,5.7528,5.75,5.7472,5.7444,5.7473,5.7417,5.7276,5.722,5.7163,5.7022,5.6851,5.6766,5.6737,5.6709,6.118,6.1155,6.0923,6.082,6.0794,6.0768,6.0768,6.0742,6.0742,6.0617,6.0556,6.0412,6.035,6.0134,6.0179,6.0054,6.0008,5.9603,5.9267,5.918,5.918,5.9153,5.9126,5.9153,5.9099,5.9102,5.9072,5.9072,5.9018,5.9018,5.9018,5.9018,5.8773,5.8691,5.8721,5.8445,5.825,5.8278,5.8278,5.828,5.8136,5.7719,5.7453,5.7397,5.7252,5.6954,5.6421,5.6423,5.6721,5.7249,5.7392,5.7767,5.854,5.8909,5.9072,5.9018,5.9072,5.9099,5.9132,5.9216,5.9273,5.9393,5.9246,5.9366,5.9395,5.9311,5.9254,5.9319,5.9675,6.0031,6.0121,6.0482,6.0168,5.8628,5.8423,5.8423,5.8307,5.8223,5.8223,5.8305,5.8527,5.8694,5.8746,5.8882,5.9018,5.9045,5.9072,5.9099,5.9099,5.9099,5.9099,5.9072,5.9018,5.8964,5.8936,5.8855,5.8555,5.8307,5.814,5.8029,5.7946,5.7946,5.7863,5.7807,5.7751,5.7751,5.7781,5.7669,5.7697,5.7641,5.7416,5.7275,5.7303,5.7275,5.7191,6.1486,6.1461,6.118,6.1078,6.1052,6.0871,6.0794,6.0794,6.0794,6.1019,6.1283,6.1186,6.1298,6.1557,6.146,6.1349,6.1322,6.0705,6.017,5.978,5.972,5.9586,5.9422,5.9369,5.9288,5.9126,5.9099,5.9099,5.9099,5.9099,5.9099,5.9072,5.9018,5.8964,5.8966,5.8882,5.8828,5.8828,5.8828,5.8746,5.8582,5.8567,5.8448,5.8313,5.8611,5.8707,5.8527,5.8151,5.8132,5.8503,5.8719,5.8943,5.9204,5.9153,5.9099,5.9126,5.9288,5.9636,6.0081,6.0334,6.0566,6.0899,6.0856,6.0749,6.0721,6.0526,6.0473,6.0446,6.0685,6.0805,6.0807,6.0954,6.0633,5.963,5.9483,5.9247,5.886,5.88,5.8828,5.8828,5.8909,5.8964,5.9018,5.9207,5.9369,5.9395,5.9529,5.9667,5.9693,5.964,5.9613,5.9449,5.9395,5.9288,5.9153,5.9072,5.8909,5.8637,5.847,5.8388,5.8333,5.8305,5.8252,5.8142,5.8085,5.8086,5.8086,5.8086,5.8086,5.8086,5.789,5.7863,5.7918,5.7807,5.764,6.1984,6.174,6.1461,6.1334,6.1308,6.1052,6.1103,6.1262,6.1189,6.1563,6.2034,6.1993,6.2158,6.2468,6.2367,6.2161,6.1916,6.1458,6.0943,6.0341,6.0069,5.988,5.972,5.9663,5.9529,5.9288,5.9234,5.9207,5.9099,5.9099,5.9099,5.9099,5.9099,5.9099,5.9099,5.9099,5.9099,5.9099,5.9099,5.9045,5.9045,5.9153,5.9234,5.9237,5.9533,5.9693,5.9667,5.9372,5.9264,5.9426,5.9583,5.9663,5.9667,5.9533,5.9422,5.9509,5.9855,6.0291,6.0741,6.1119,6.1528,6.1868,6.1792,6.1682,6.1654,6.1491,6.1438,6.1438,6.1565,6.1631,6.1661,6.1789,6.1523,6.0894,6.0356,5.9902,5.9357,5.9234,5.9315,5.9369,5.9452,5.9452,5.9506,5.956,5.9693,5.9716,5.9853,5.9986,5.9986,5.9959,5.9853,5.9747,5.972,5.9529,5.9315,5.9234,5.9207,5.8991,5.88,5.8716,5.8662,5.8691,5.8637,5.8472,5.8417,5.839,5.839,5.839,5.839,5.8362,5.8305,5.814,5.8057,5.8085,5.8001,6.2764,6.2054,6.1796,6.1732,6.1707,6.1458,6.1727,6.2202,6.2055,6.232,6.2817,6.2914,6.2922,6.2952,6.3056,6.2779,6.2122,6.2038,6.1735,6.1107,6.0573,6.0187,6.0043,5.999,5.98,5.9556,5.9529,5.9422,5.9291,5.9207,5.9126,5.9153,5.9126,5.9099,5.9099,5.9099,5.9153,5.9153,5.918,5.9315,5.9476,5.9529,5.9636,5.988,5.9959,6.0012,5.9986,5.9986,5.9986,6.0012,5.9986,6.0043,6.0103,6.0077,6.0054,6.0179,6.0741,6.1099,6.1312,6.1849,6.2245,6.2427,6.243,6.2163,6.2318,6.2296,6.2241,6.2241,6.244,6.2602,6.2636,6.2825,6.2713,6.2117,6.1036,6.0218,5.9774,5.9767,5.9999,6.0126,6.0111,6.0141,6.0209,6.0263,6.0286,6.0286,6.0369,6.051,6.0327,6.0384,6.0156,6.0043,6.0012,5.9853,5.961,5.956,5.9533,5.9426,5.918,5.9018,5.8936,5.8909,5.8909,5.8773,5.8691,5.8691,5.8691,5.8691,5.8691,5.8691,5.8555,5.8305,5.8278,5.8388,5.8415,6.371,6.3079,6.2801,6.27,6.2649,6.2419,6.269,6.3282,6.3235,6.3424,6.3848,6.3919,6.4058,6.433,6.433,6.4241,6.3868,6.3441,6.3229,6.286,6.18,6.0915,6.0337,6.0122,5.999,5.991,5.9883,5.9827,5.9747,5.9503,5.9395,5.9395,5.9234,5.9126,5.9126,5.9315,5.9395,5.9422,5.9667,5.9773,5.9827,5.9853,5.9937,6.0016,6.0228,6.0302,6.0329,6.0512,6.0481,6.0329,6.0298,6.0573,6.0943,6.0875,6.0947,6.1399,6.1808,6.2283,6.2707,6.3088,6.3534,6.4025,6.3767,6.3779,6.3751,6.3556,6.3503,6.3505,6.3575,6.3577,6.3607,6.3674,6.3405,6.28,6.1818,6.1215,6.125,6.1361,6.1416,6.147,6.1436,6.1403,6.143,6.1538,6.1645,6.1672,6.1718,6.1733,6.1343,6.119,6.1137,6.0538,6.0276,6.0118,5.9986,5.9906,5.9827,5.98,5.9586,5.9261,5.9153,5.9045,5.9045,5.8991,5.8909,5.8909,5.8936,5.8991,5.8991,5.8936,5.8882,5.8719,5.8828,5.8909,5.8882,6.4563,6.3931,6.3753,6.3677,6.3651,6.3421,6.3667,6.4199,6.4157,6.443,6.4799,6.4866,6.5006,6.5242,6.5242,6.5056,6.4777,6.4379,6.4034,6.3632,6.292,6.2029,6.1195,6.0778,6.0703,6.0536,6.0293,6.0122,5.9959,5.98,5.972,5.9693,5.956,5.9479,5.9506,5.9613,5.972,5.9747,5.9937,6.0069,6.0144,6.0171,6.0463,6.0665,6.0941,6.1081,6.1383,6.1577,6.1454,6.1107,6.102,6.1296,6.1878,6.1867,6.1943,6.2367,6.2717,6.3166,6.3561,6.3978,6.4429,6.4737,6.4691,6.4635,6.4549,6.4471,6.4387,6.4326,6.4244,6.416,6.4132,6.4047,6.3895,6.3586,6.3049,6.2563,6.2269,6.2116,6.2228,6.2313,6.234,6.234,6.234,6.2503,6.2557,6.2522,6.2511,6.2437,6.2249,6.2214,6.2034,6.1445,6.1151,6.1111,6.0856,6.0715,6.0282,6.0198,6.0058,5.9704,5.9342,5.918,5.9153,5.9153,5.9126,5.9126,5.918,5.918,5.9072,5.9045,5.9099,5.9126,5.9153,5.9153,5.9153,6.5316,6.4601,6.4601,6.4626,6.4575,6.4369,6.4643,6.5125,6.5061,6.5241,6.5629,6.5723,6.5638,6.57,6.5592,6.5361,6.4831,6.484,6.4395,6.4088,6.375,6.3321,6.2337,6.2016,6.18,6.1496,6.0888,6.0665,6.0624,6.043,6.0343,6.0411,6.035,6.0232,6.0361,6.035,6.0286,6.0403,6.0574,6.0734,6.0862,6.0888,6.1212,6.1708,6.1796,6.2095,6.2464,6.2645,6.2491,6.2029,6.1963,6.2245,6.2768,6.2891,6.2987,6.3144,6.3606,6.391,6.4029,6.4521,6.4857,6.4888,6.4888,6.4888,6.486,6.4805,6.4805,6.4777,6.4607,6.4524,6.4493,6.43,6.4354,6.4426,6.4485,6.3936,6.3108,6.2713,6.2768,6.3041,6.3098,6.3121,6.3068,6.3037,6.3102,6.3486,6.3445,6.326,6.3075,6.2891,6.2768,6.2464,6.2319,6.2292,6.194,6.1561,6.1004,6.0628,6.0483,6.0179,5.959,5.9399,5.9288,5.9261,5.9452,5.9452,5.9399,5.9345,5.9291,5.9318,5.9452,5.9372,5.9264,5.9261,5.9261,6.6162,6.5379,6.5379,6.5379,6.5353,6.5327,6.5654,6.6228,6.6206,6.6084,6.6108,6.6085,6.5947,6.5727,6.5754,6.5607,6.5473,6.5442,6.5134,6.4635,6.5103,6.4831,6.4022,6.3397,6.2853,6.2548,6.2407,6.223,6.212,6.1867,6.1882,6.1825,6.1568,6.1558,6.1551,6.1676,6.1886,6.194,6.207,6.2112,6.2134,6.2187,6.2337,6.2663,6.2667,6.2671,6.2764,6.2798,6.2983,6.3137,6.2979,6.3033,6.3472,6.3598,6.381,6.421,6.4457,6.4641,6.4703,6.4795,6.4888,6.4888,6.4888,6.4888,6.4888,6.4915,6.4915,6.4888,6.4832,6.4884,6.5022,6.505,6.5074,6.5238,6.5289,6.5223,6.5002,6.4715,6.4572,6.4657,6.482,6.4963,6.4719,6.4626,6.4549,6.4477,6.4299,6.4118,6.3903,6.3653,6.3472,6.3314,6.3198,6.3079,6.2657,6.2242,6.1737,6.1355,6.118,6.1008,6.0445,6.0015,6.0079,5.9985,5.9827,5.9773,5.9613,5.9693,5.9693,5.9747,5.9747,5.9693,5.9613,5.9503,5.9342,6.6912,6.6465,6.6433,6.6355,6.6257,6.6257,6.6401,6.6554,6.6586,6.6538,6.6406,6.6379,6.6268,6.6134,6.6134,6.6134,6.6134,6.6134,6.5946,6.5721,6.5946,6.583,6.5477,6.488,6.4386,6.3747,6.3318,6.3225,6.3172,6.299,6.279,6.2798,6.256,6.2465,6.2584,6.2776,6.2871,6.2977,6.3145,6.3225,6.3194,6.3194,6.3442,6.372,6.3968,6.4154,6.4243,6.4212,6.4371,6.4468,6.4344,6.4147,6.4238,6.4334,6.4549,6.4795,6.4888,6.4888,6.4888,6.4888,6.4888,6.4915,6.4915,6.4998,6.5053,6.5108,6.5191,6.5242,6.5297,6.5351,6.5456,6.5456,6.5565,6.5646,6.57,6.57,6.5673,6.5565,6.5483,6.5511,6.5498,6.553,6.5511,6.5515,6.5398,6.5076,6.5076,6.4925,6.4765,6.4549,6.4351,6.4169,6.3964,6.3722,6.3322,6.2899,6.2503,6.2208,6.2089,6.1974,6.1688,6.1336,6.1069,6.0746,6.0339,5.999,5.988,5.9986,6.016,5.9993,5.9967,5.999,6.002,5.9948,5.97,6.7471,6.7388,6.7362,6.7291,6.7083,6.7026,6.6921,6.6744,6.6717,6.6744,6.667,6.6638,6.6612,6.6591,6.6533,6.6559,6.6591,6.6565,6.6417,6.6417,6.6417,6.6343,6.6147,6.5973,6.57,6.4955,6.439,6.4114,6.403,6.38,6.3862,6.3681,6.3432,6.3591,6.3681,6.3698,6.3849,6.4097,6.4123,6.4119,6.4088,6.4088,6.4337,6.4773,6.512,6.5401,6.5401,6.5432,6.5611,6.57,6.57,6.546,6.516,6.5026,6.5026,6.5053,6.5108,6.5136,6.5136,6.5081,6.5081,6.5026,6.5053,6.5163,6.5297,6.5378,6.5429,6.5565,6.5619,6.5673,6.5754,6.5785,6.5839,6.5862,6.5862,6.5835,6.5835,6.5835,6.5862,6.5812,6.592,6.5974,6.5866,6.5812,6.5727,6.57,6.57,6.5646,6.5487,6.5293,6.5029,6.483,6.4618,6.4419,6.4053,6.3837,6.341,6.3045,6.2922,6.2802,6.2683,6.2238,6.1768,6.1184,6.0803,6.0628,6.0685,6.0978,6.089,6.0453,6.0597,6.1035,6.089,6.0457,6.0266,6.7593,6.7362,6.7362,6.7362,6.7343,6.7311,6.7317,6.7291,6.7239,6.7135,6.6953,6.6927,6.6796,6.6638,6.6617,6.6617,6.6617,6.6586,6.6586,6.6586,6.6586,6.6538,6.6512,6.6485,6.6359,6.6195,6.5642,6.5303,6.5312,6.5303,6.5085,6.5183,6.5071,6.5098,6.5147,6.5272,6.5223,6.5316,6.5321,6.5325,6.5325,6.5357,6.5388,6.5607,6.5822,6.583,6.5808,6.5754,6.57,6.57,6.57,6.5673,6.5646,6.5619,6.5592,6.5515,6.5515,6.5487,6.5487,6.5542,6.5538,6.5565,6.5542,6.5569,6.5619,6.5677,6.5727,6.5781,6.5835,6.5862,6.6085,6.6192,6.6272,6.6347,6.6454,6.6454,6.6454,6.6427,6.6374,6.6268,6.6321,6.6321,6.6188,6.6081,6.6027,6.5974,6.5915,6.5835,6.5731,6.5623,6.5479,6.5285,6.518,6.4985,6.4758,6.4662,6.4388,6.3895,6.3622,6.341,6.3225,6.286,6.2415,6.2223,6.207,6.1974,6.2062,6.2032,6.1944,6.168,6.1944,6.2238,6.1886,6.1508,6.1642,6.7924,6.7823,6.7797,6.7721,6.7619,6.7593,6.7516,6.7388,6.7362,6.7311,6.7265,6.7213,6.7057,6.6849,6.6828,6.6749,6.6644,6.6586,6.6586,6.6586,6.6586,6.6586,6.6586,6.6617,6.6586,6.6559,6.6427,6.6294,6.6161,6.5996,6.6,6.5889,6.5812,6.5835,6.6103,6.6125,6.6316,6.6448,6.6554,6.6554,6.6554,6.6554,6.6554,6.6554,6.6554,6.658,6.658,6.658,6.6607,6.6607,6.6575,6.658,6.6554,6.6501,6.6289,6.5862,6.5754,6.5727,6.5727,6.57,6.57,6.57,6.5727,6.5781,6.592,6.5974,6.6108,6.6316,6.6528,6.6633,6.6822,6.677,6.6875,6.6979,6.7005,6.6979,6.7005,6.7005,6.6875,6.6717,6.6612,6.6533,6.6459,6.6379,6.6326,6.6241,6.6161,6.6081,6.5974,6.592,6.5839,6.5619,6.5487,6.5378,6.5214,6.5156,6.5101,6.4703,6.4401,6.4158,6.4015,6.3772,6.3837,6.3821,6.366,6.3106,6.2798,6.2507,6.271,6.286,6.2772,6.2714,6.2714,6.266,6.2737,6.8201,6.8201,6.8201,6.8075,6.7899,6.7873,6.7772,6.7593,6.7568,6.7574,6.7465,6.7439,6.7343,6.7135,6.7057,6.6979,6.6744,6.677,6.6796,6.6796,6.6796,6.677,6.677,6.6744,6.6796,6.6875,6.6927,6.6953,6.6665,6.6559,6.6485,6.6454,6.6156,6.6236,6.6665,6.6744,6.7083,6.7239,6.7362,6.7362,6.7362,6.7362,6.7362,6.7362,6.7362,6.7343,6.7233,6.7233,6.7233,6.7259,6.7285,6.7311,6.7362,6.7362,6.6948,6.6236,6.6049,6.6023,6.5996,6.6023,6.6103,6.6103,6.5996,6.6161,6.6347,6.6533,6.6612,6.7031,6.7213,6.7259,6.7233,6.7336,6.7336,6.7336,6.7336,6.7362,6.7311,6.7285,6.7259,6.7109,6.6927,6.6796,6.6717,6.6538,6.6459,6.6459,6.6374,6.6347,6.6241,6.6272,6.6134,6.5893,6.5758,6.5673,6.5592,6.5538,6.5456,6.525,6.5072,6.4952,6.4881,6.4779,6.4813,6.4604,6.421,6.3687,6.3322,6.3225,6.3564,6.3656,6.3349,6.3322,6.3568,6.3602,6.3578,6.8201,6.8201,6.8201,6.8176,6.8151,6.8151,6.8151,6.8101,6.8075,6.7949,6.7746,6.7721,6.7593,6.742,6.7343,6.7311,6.7291,6.7239,6.7181,6.7213,6.7213,6.7213,6.7259,6.7285,6.7213,6.7213,6.7317,6.7213,6.7057,6.7135,6.7155,6.7104,6.7052,6.7207,6.7213,6.7233,6.7343,6.7388,6.7414,6.7414,6.7414,6.7439,6.7439,6.7414,6.7439,6.7465,6.7491,6.7491,6.7465,6.7439,6.7414,6.7388,6.7362,6.7362,6.7362,6.7233,6.7155,6.7078,6.6849,6.677,6.6744,6.6744,6.677,6.6979,6.7057,6.713,6.7207,6.7285,6.7414,6.7465,6.7491,6.7471,6.7388,6.7439,6.7491,6.7491,6.7497,6.7619,6.7593,6.7491,6.7343,6.7161,6.7031,6.677,6.6591,6.6559,6.6591,6.6565,6.6538,6.6485,6.6432,6.6188,6.6054,6.5974,6.5942,6.5915,6.5808,6.5731,6.565,6.5596,6.5378,6.5187,6.505,6.4868,6.4508,6.4364,6.421,6.4241,6.4518,6.4426,6.4118,6.4334,6.4672,6.4611,6.4306,6.8201,6.8201,6.8201,6.8201,6.8201,6.8201,6.8201,6.8201,6.8201,6.8126,6.8025,6.8025,6.7873,6.7644,6.7465,6.7362,6.7388,6.7388,6.7388,6.7414,6.7414,6.7388,6.7362,6.7362,6.7362,6.7465,6.7516,6.7593,6.7465,6.7362,6.7388,6.7388,6.7414,6.7439,6.7593,6.7619,6.7721,6.7797,6.7848,6.7873,6.7848,6.7848,6.7848,6.788,6.7823,6.7823,6.7823,6.7848,6.7848,6.7848,6.7848,6.7848,6.7848,6.7848,6.7848,6.7848,6.7848,6.7619,6.7317,6.7265,6.7239,6.7239,6.7239,6.7291,6.742,6.7542,6.7619,6.7619,6.7772,6.7823,6.7823,6.7848,6.7848,6.7848,6.79,6.7894,6.7861,6.7848,6.7899,6.7797,6.7695,6.7516,6.7343,6.7083,6.6849,6.6691,6.6638,6.6617,6.6591,6.6565,6.6538,6.6427,6.6347,6.6294,6.6321,6.6321,6.6161,6.6054,6.6005,6.5866,6.5565,6.5402,6.5297,6.5132,6.4841,6.4816,6.4915,6.4857,6.4764,6.4795,6.4888,6.4888,6.4888,6.4857,6.4645,6.8201,6.8201,6.8201,6.8201,6.8201,6.8201,6.8201,6.8201,6.8201,6.8201,6.8201,6.8201,6.8075,6.7899,6.7721,6.7644,6.7619,6.7593,6.7593,6.7593,6.7593,6.7619,6.7644,6.7619,6.7619,6.7593,6.7823,6.7873,6.7823,6.7746,6.7644,6.7593,6.767,6.7721,6.7848,6.7924,6.7975,6.8126,6.8151,6.8151,6.8151,6.8176,6.8176,6.8176,6.8201,6.8201,6.8201,6.8176,6.8176,6.8176,6.8151,6.8126,6.8151,6.8126,6.8126,6.8126,6.8126,6.8,6.7695,6.7568,6.7491,6.7516,6.7568,6.7644,6.7644,6.7797,6.7899,6.7899,6.8025,6.8151,6.8201,6.8176,6.8288,6.8385,6.8482,6.8467,6.846,6.8514,6.8302,6.8025,6.7924,6.7848,6.7644,6.7388,6.7161,6.6875,6.6744,6.6696,6.667,6.6638,6.6586,6.6559,6.6533,6.648,6.648,6.6506,6.6432,6.6379,6.6299,6.6166,6.5893,6.5677,6.5542,6.5351,6.5132,6.4998,6.4943,6.4915,6.4888,6.4888,6.4888,6.4888,6.4888,6.4888,6.4888,6.8201,6.8201,6.8201,6.8201,6.8201,6.8201,6.8201,6.8201,6.8201,6.8201,6.8201,6.8226,6.8226,6.8176,6.8176,6.8151,6.8151,6.8151,6.8151,6.8151,6.8151,6.8101,6.8075,6.8075,6.8075,6.8075,6.8101,6.8126,6.8151,6.8075,6.8075,6.8126,6.8,6.8101,6.8151,6.8126,6.8126,6.8201,6.8201,6.8201,6.8201,6.8201,6.8201,6.8201,6.8201,6.8201,6.8201,6.8201,6.8201,6.8201,6.8201,6.8201,6.8201,6.8201,6.8201,6.8201,6.8201,6.8126,6.8,6.7873,6.7804,6.7848,6.7924,6.8025,6.8025,6.8101,6.8176,6.8126,6.8176,6.8201,6.8201,6.8266,6.8647,6.8874,6.9043,6.9205,6.9205,6.9205,6.8985,6.8403,6.832,6.851,6.8498,6.8364,6.7574,6.7257,6.7031,6.6953,6.6822,6.6796,6.6717,6.6691,6.6665,6.6612,6.6586,6.6586,6.6617,6.6538,6.6459,6.6352,6.6192,6.6032,6.5785,6.5569,6.5324,6.5163,6.497,6.4943,6.4915,6.4915,6.4888,6.4888,6.4888,6.4888,6.4888,6.8201,6.8201,6.8201,6.8201,6.8201,6.8201,6.8201,6.8201,6.8201,6.8201,6.8226,6.8376,6.8451,6.8501,6.8649,6.8699,6.8699,6.8699,6.8674,6.8625,6.855,6.8476,6.8401,6.8326,6.8201,6.8226,6.8226,6.8201,6.8201,6.8251,6.8226,6.8201,6.8251,6.8201,6.8201,6.8201,6.8201,6.8201,6.8201,6.8201,6.8201,6.8201,6.8201,6.8201,6.8201,6.8201,6.8201,6.8201,6.8201,6.8201,6.8201,6.8201,6.8201,6.8201,6.8201,6.8201,6.8201,6.8201,6.8201,6.8101,6.805,6.805,6.8151,6.8234,6.8266,6.8201,6.8201,6.8201,6.8234,6.8298,6.8234,6.859,6.9069,6.936,6.9626,6.9885,6.995,6.995,6.9756,6.927,6.9406,6.9672,6.962,6.9504,6.855,6.7663,6.7438,6.7245,6.7275,6.726,6.7297,6.7303,6.7335,6.7187,6.716,6.7013,6.6833,6.6754,6.6675,6.6512,6.6406,6.6219,6.6005,6.5758,6.5542,6.5351,6.5191,6.4998,6.4943,6.4915,6.4915,6.4888,6.4888,6.4888,6.4888,6.8276,6.8226,6.8276,6.8276,6.8201,6.8201,6.8201,6.8226,6.8301,6.8376,6.8451,6.8649,6.8724,6.8773,6.8871,6.8969,6.8945,6.8945,6.8969,6.8896,6.8797,6.8724,6.8649,6.8575,6.8526,6.8426,6.8426,6.8476,6.8501,6.8451,6.8476,6.8476,6.8351,6.8326,6.8201,6.8201,6.8201,6.8201,6.8201,6.8201,6.8201,6.8201,6.8201,6.8201,6.8201,6.8201,6.8201,6.8201,6.8201,6.8201,6.8201,6.8201,6.8201,6.8201,6.8201,6.8201,6.8226,6.8226,6.8201,6.8201,6.8298,6.8532,6.8273,6.8363,6.8428,6.8363,6.8201,6.8234,6.8363,6.855,6.8583,6.9173,6.982,7.0209,7.0468,7.0695,7.0669,7.0636,7.0468,7.0177,7.0313,7.0215,7.0183,7.0034,6.9627,6.8852,6.8716,6.8496,6.8307,6.8255,6.8217,6.8243,6.8211,6.8037,6.7857,6.7741,6.7625,6.7287,6.7145,6.6728,6.6533,6.6379,6.6219,6.6032,6.5817,6.5569,6.5433,6.5324,6.5105,6.4915,6.4943,6.497,6.4888,6.4888,6.4888,6.8451,6.8251,6.8501,6.8451,6.8276,6.8226,6.8226,6.8326,6.8501,6.8724,6.8896,6.8969,6.8994,6.9018,6.9124,6.9116,6.9116,6.9091,6.9091,6.9091,6.9042,6.8994,6.8969,6.892,6.8822,6.8945,6.8896,6.8847,6.8896,6.8847,6.8871,6.9043,6.9,6.8711,6.8316,6.8234,6.8234,6.8266,6.8363,6.8428,6.8493,6.8525,6.8557,6.8633,6.8503,6.8528,6.8604,6.8409,6.8409,6.8376,6.8351,6.8351,6.8351,6.8326,6.8326,6.8301,6.8276,6.8251,6.8259,6.8259,6.8763,6.9242,6.9015,6.8918,6.9054,6.8802,6.8586,6.8888,6.9,6.9242,6.9515,6.9969,7.0617,7.0954,7.1148,7.1407,7.1381,7.1381,7.1213,7.1116,7.0759,7.0468,7.0468,7.0448,7.0409,7.0149,7.0012,6.9752,6.9396,6.9236,6.916,6.9128,6.9122,6.9017,6.881,6.863,6.8423,6.7996,6.7589,6.7171,6.6812,6.6559,6.6406,6.6246,6.6085,6.587,6.5758,6.5673,6.5433,6.5187,6.5081,6.5053,6.497,6.497,6.5081,6.8822,6.8748,6.8822,6.8822,6.8748,6.8724,6.8724,6.8748,6.8822,6.892,6.9018,6.9164,6.9261,6.9285,6.9439,6.9478,6.9478,6.9526,6.9559,6.9511,6.9334,6.9285,6.927,6.9181,6.9108,6.8994,6.8994,6.9174,6.8969,6.9231,6.9444,6.9599,7.0033,6.979,6.9332,6.9302,6.9691,6.9691,6.9691,6.9691,6.9658,6.9619,6.9663,6.9809,6.9386,6.9267,6.9359,6.9098,6.887,6.8772,6.8772,6.8739,6.8707,6.8674,6.8699,6.8699,6.8724,6.9009,6.9434,6.9825,7.0182,7.0236,7.0062,6.9983,7.0428,6.9858,6.9793,6.9898,6.9881,7.0091,7.0341,7.0998,7.15,7.1401,7.1634,7.2022,7.2152,7.2152,7.2055,7.2022,7.1796,7.1666,7.1601,7.1375,7.1237,7.1049,7.0873,7.0544,7.0182,7.0079,7.0002,7.0002,6.9976,6.991,6.9831,6.965,6.9204,6.8711,6.815,6.7583,6.7229,6.6844,6.6617,6.6432,6.6299,6.6166,6.6054,6.5947,6.57,6.5515,6.546,6.5378,6.5351,6.5406,6.5487,6.9846,6.9739,6.9608,6.9534,6.9444,6.9141,6.9042,6.9116,6.914,6.9164,6.9318,6.9487,6.9526,6.9574,6.9703,6.9798,6.9798,6.9798,6.9798,6.9774,6.9655,6.9559,6.952,6.9654,6.9852,6.9722,6.9919,7.0108,7.0256,7.0108,7.0289,7.0765,7.1339,7.1146,7.0703,7.0641,7.0608,7.0569,7.0569,7.0601,7.0576,7.0634,7.0717,7.0689,7.0504,7.0293,7.0287,7.0067,6.9641,6.9477,6.9379,6.928,6.9149,6.9051,6.9026,6.8994,6.9321,6.9813,7.0705,7.1163,7.1538,7.1924,7.1371,7.12,7.1327,7.0811,7.0541,7.0541,7.0755,7.0851,7.1084,7.181,7.2203,7.213,7.2155,7.2571,7.2497,7.2464,7.2464,7.2497,7.2529,7.2529,7.2562,7.2411,7.2158,7.1931,7.1705,7.1342,7.1045,7.0954,7.0921,7.0928,7.1025,7.1055,7.0912,7.0686,7.0179,6.9487,6.886,6.826,6.7551,6.7224,6.6907,6.6644,6.6512,6.6406,6.6326,6.6192,6.6081,6.6054,6.6054,6.5947,6.5754,6.5754,6.5781,7.1465,7.1191,7.0733,7.056,7.0379,6.9591,6.9254,6.9439,6.9439,6.9526,6.9774,6.9751,6.9751,6.9774,6.9798,6.9798,6.9798,6.9798,6.9898,6.9931,6.9982,6.9949,7.0214,7.0587,7.0713,7.1084,7.1315,7.1317,7.1836,7.1729,7.1672,7.1862,7.2405,7.2393,7.2168,7.1862,7.1622,7.1578,7.1527,7.156,7.1534,7.1447,7.1571,7.1549,7.1436,7.133,7.1274,7.111,7.0749,7.0461,7.0207,6.9788,6.946,6.9141,6.9116,6.9337,6.992,7.1052,7.1898,7.2251,7.2788,7.3061,7.2244,7.2011,7.1978,7.1882,7.1546,7.1488,7.1678,7.161,7.1705,7.2408,7.305,7.2927,7.2802,7.2794,7.2635,7.2609,7.2609,7.2635,7.2635,7.2662,7.2688,7.2662,7.2688,7.2559,7.2331,7.2252,7.1966,7.1958,7.1925,7.1958,7.2087,7.2249,7.2034,7.1561,7.1061,7.0367,6.9714,6.9081,6.8313,6.7694,6.7456,6.7192,6.6812,6.6638,6.6691,6.667,6.6623,6.6596,6.6737,6.6389,6.6175,6.5974,6.5942,7.187,7.1763,7.1606,7.1589,7.1432,7.0697,7.0094,6.9736,6.9703,6.9751,6.9798,6.9798,6.9798,6.9798,6.9798,6.9798,6.9831,6.9864,7.0196,7.0361,7.0593,7.0924,7.1256,7.1521,7.1686,7.1753,7.1951,7.2183,7.2159,7.2448,7.2755,7.2813,7.3292,7.3505,7.348,7.3414,7.3021,7.2718,7.2602,7.2602,7.2576,7.2576,7.2685,7.2722,7.2444,7.2363,7.2389,7.2052,7.168,7.1482,7.1441,7.1234,7.1234,7.1135,7.1168,7.1234,7.1796,7.2522,7.2886,7.3348,7.3737,7.3953,7.3439,7.3531,7.3406,7.2967,7.2538,7.2521,7.2554,7.2512,7.2568,7.3083,7.3441,7.3318,7.3188,7.311,7.2952,7.2926,7.2926,7.2926,7.2926,7.2926,7.2952,7.2979,7.3031,7.3005,7.2926,7.2821,7.2721,7.2615,7.2508,7.2508,7.2508,7.2508,7.2508,7.2125,7.1775,7.1276,7.0563,6.9948,6.9417,6.8822,6.8243,6.7793,6.7439,6.7243,6.7155,6.7211,6.7377,6.743,6.7509,6.6975,6.6563,6.6515,6.6372,7.2846,7.2813,7.2548,7.2283,7.1951,7.1521,7.0924,7.0262,6.9931,6.9798,6.9798,6.9798,6.9798,6.9798,6.9798,6.9931,7.0262,7.0328,7.0659,7.1223,7.1346,7.1554,7.1918,7.234,7.2415,7.2481,7.2713,7.3045,7.2912,7.3177,7.3541,7.3575,7.4064,7.413,7.4105,7.3988,7.392,7.3709,7.3614,7.3654,7.3628,7.3628,7.3815,7.38,7.3389,7.3416,7.345,7.2945,7.2746,7.2481,7.2448,7.225,7.2117,7.1927,7.2225,7.2266,7.2631,7.3127,7.3524,7.3881,7.4105,7.4196,7.4196,7.4105,7.4038,7.3665,7.3491,7.3392,7.3458,7.3532,7.3655,7.3694,7.3639,7.3525,7.3473,7.3422,7.337,7.3292,7.3292,7.3292,7.3266,7.3266,7.3292,7.3318,7.3292,7.3181,7.3162,7.311,7.29,7.2694,7.2588,7.2508,7.2508,7.2508,7.2508,7.2508,7.219,7.1808,7.1302,7.075,7.0361,6.9752,6.9049,6.8528,6.8098,6.7964,6.7926,6.8142,6.8303,6.8384,6.8463,6.8203,6.7757,6.7286,6.7138,7.4163,7.4097,7.3475,7.278,7.215,7.2084,7.1686,7.0924,7.0262,6.9831,6.9831,6.9798,6.9798,6.9831,6.9931,7.0343,7.0756,7.0988,7.1534,7.2124,7.2255,7.2446,7.2753,7.2887,7.3334,7.3534,7.3658,7.3841,7.403,7.4064,7.3997,7.4196,7.4272,7.4297,7.4297,7.4372,7.4347,7.4322,7.4247,7.4221,7.4146,7.4171,7.4196,7.4171,7.4105,7.413,7.413,7.403,7.3873,7.3409,7.3111,7.2846,7.2581,7.2415,7.2746,7.2978,7.3276,7.3541,7.3898,7.413,7.4163,7.4196,7.4196,7.4196,7.413,7.4097,7.3898,7.3799,7.3773,7.3773,7.383,7.3937,7.3909,7.3866,7.3815,7.3731,7.3654,7.3628,7.3628,7.3628,7.3628,7.3602,7.3602,7.3628,7.3679,7.3466,7.337,7.3344,7.3214,7.2959,7.2774,7.2641,7.2535,7.2535,7.2508,7.2508,7.2508,7.219,7.1808,7.1593,7.1267,7.058,6.9799,6.9361,6.9013,6.8871,6.8819,6.8997,6.9201,6.9494,6.9543,6.9468,6.9084,6.852,6.7989,7.4196,7.4163,7.403,7.3508,7.2879,7.2846,7.2415,7.1686,7.0958,7.0361,6.9898,6.9831,6.9855,6.9978,7.0476,7.0946,7.1313,7.1902,7.2623,7.3138,7.3387,7.3538,7.407,7.4163,7.4413,7.4521,7.4531,7.4398,7.4322,7.4272,7.4221,7.4247,7.4372,7.4498,7.4523,7.4622,7.4722,7.4697,7.4697,7.4548,7.4322,7.4221,7.4196,7.4221,7.4247,7.4247,7.4247,7.4188,7.4097,7.3964,7.3931,7.3832,7.3699,7.3666,7.3732,7.3898,7.389,7.4023,7.4064,7.4196,7.4196,7.4221,7.4221,7.4196,7.4196,7.4196,7.413,7.403,7.3997,7.3964,7.3997,7.413,7.4171,7.412,7.407,7.4019,7.3935,7.3935,7.3935,7.3935,7.3968,7.3968,7.3909,7.3935,7.396,7.3917,7.3738,7.3661,7.3584,7.3377,7.3116,7.2932,7.2588,7.2535,7.2535,7.2508,7.2508,7.2508,7.2217,7.2131,7.2078,7.1287,7.0492,7.028,6.9989,6.9827,6.9755,6.9793,7.003,7.0428,7.0573,7.0498,7.0551,7.017,6.9368,7.4196,7.4196,7.4196,7.3964,7.3641,7.3575,7.3177,7.2515,7.2051,7.1527,7.087,7.0533,7.0334,7.0562,7.125,7.196,7.2376,7.2868,7.3551,7.4174,7.4414,7.4567,7.4893,7.5042,7.4935,7.4919,7.4845,7.4697,7.4523,7.4573,7.4597,7.4573,7.4697,7.4771,7.4796,7.4919,7.5051,7.5027,7.5018,7.4845,7.4548,7.4548,7.4548,7.4548,7.4548,7.4498,7.4372,7.4347,7.4297,7.4297,7.4289,7.4339,7.4315,7.439,7.4431,7.4389,7.4339,7.4322,7.4247,7.4221,7.4247,7.4247,7.4347,7.4398,7.4448,7.4448,7.4398,7.4273,7.4122,7.4097,7.4097,7.4196,7.4196,7.4171,7.4146,7.412,7.4095,7.4095,7.4095,7.4095,7.4095,7.4095,7.4062,7.4062,7.412,7.412,7.3968,7.3943,7.3866,7.3738,7.3506,7.3247,7.2959,7.2747,7.2721,7.2641,7.2508,7.2508,7.2588,7.247,7.2282,7.1737,7.1219,7.1012,7.0909,7.0804,7.0726,7.0771,7.1126,7.1557,7.158,7.1537,7.1558,7.1514,7.0822,7.4247,7.4196,7.4221,7.4247,7.4272,7.4297,7.3957,7.3401,7.321,7.296,7.2523,7.1697,7.1479,7.1675,7.2271,7.3141,7.373,7.3945,7.4506,7.4905,7.5064,7.5112,7.5146,7.514,7.514,7.5115,7.5042,7.4993,7.4895,7.4895,7.4895,7.4993,7.5018,7.5042,7.5042,7.5091,7.5164,7.5189,7.5189,7.514,7.5067,7.5018,7.4944,7.4944,7.5002,7.487,7.4697,7.4597,7.4498,7.4498,7.4548,7.4597,7.4672,7.4771,7.4746,7.4672,7.4681,7.4548,7.4448,7.4423,7.4372,7.4398,7.4581,7.4681,7.4697,7.4672,7.4622,7.4548,7.4398,7.4297,7.4297,7.4272,7.4272,7.4221,7.4221,7.4221,7.4221,7.4221,7.4196,7.4196,7.4196,7.4196,7.4196,7.4196,7.4196,7.4196,7.4196,7.4196,7.4146,7.3993,7.3815,7.3609,7.3377,7.3194,7.3011,7.2847,7.2715,7.2768,7.2821,7.2688,7.2544,7.2286,7.2053,7.1876,7.172,7.1688,7.1798,7.1907,7.227,7.2379,7.2213,7.2041,7.202,7.1977,7.1928,7.4398,7.4221,7.4423,7.4531,7.4548,7.4746,7.4745,7.4545,7.3985,7.37,7.3566,7.3432,7.3122,7.2577,7.328,7.3936,7.4354,7.4714,7.5152,7.5508,7.547,7.5518,7.5518,7.5422,7.5398,7.5325,7.5228,7.5131,7.5164,7.5091,7.5018,7.5067,7.5204,7.5252,7.5277,7.5349,7.5494,7.547,7.547,7.547,7.5373,7.5286,7.5018,7.5027,7.5027,7.4968,7.4919,7.4919,7.4895,7.4895,7.487,7.4895,7.4944,7.5018,7.4993,7.4944,7.4895,7.4845,7.4746,7.4722,7.4697,7.4722,7.487,7.4919,7.4944,7.4968,7.4944,7.4944,7.4821,7.4697,7.4647,7.4548,7.4523,7.4372,7.4297,7.4272,7.4247,7.4247,7.4247,7.4221,7.4196,7.4196,7.4196,7.4196,7.4196,7.4196,7.4196,7.4196,7.4196,7.4146,7.4128,7.3917,7.3738,7.3558,7.3292,7.3188,7.3083,7.311,7.311,7.3005,7.3005,7.3103,7.2907,7.2581,7.2646,7.2705,7.2822,7.2605,7.2565,7.255,7.2503,7.2422,7.2428,7.2375,7.2267]}]]